Date StartTime U_cm/s V_cm/s W_cm/s Ustd_cm/s Vstd_cm/s Wstd_cm/s Uvar_(cm/s)^2 Vvar_(cm/s)^2 Wvar_(cm/s)^2 KE_(m/s)^2 TurbulentKE_(m/s)^2 HorizWindSpeed_cm/s FrictionSpeec_cm/s DragCoef SpeedOfSound_m/s SonicTemperature_C Pressure_mb 
09/04/2013  00:00:00      -58.297      -78.926        6.357       42.695       44.681       29.060     1822.884     1996.372      844.507        0.717        0.233       98.122       25.837        0.069      345.334       22.789      862.198
09/04/2013  00:01:00      -29.403      -86.522        9.064       46.432       60.996       24.778     2155.944     3720.509      613.971        0.746        0.325       91.382       22.471        0.060      345.330       22.783      862.206
09/04/2013  00:02:00      -45.149      -52.594       11.452       66.877       45.394       32.800     4472.585     2060.642     1075.855        0.627        0.380       69.315       27.667        0.159      345.303       22.737      862.209
09/04/2013  00:03:00     -143.530     -109.997       -4.345       70.061       48.309       33.087     4908.527     2333.803     1094.758        2.053        0.417      180.832       28.423        0.025      345.315       22.756      862.205
09/04/2013  00:04:00     -125.676      -91.623       -1.880       49.063       44.408       29.019     2407.169     1972.055      842.093        1.471        0.261      155.529       29.407        0.036      345.326       22.774      862.218
09/04/2013  00:05:00     -150.407      -39.417       -6.629       40.748       29.471       18.839     1660.412      868.561      354.903        1.355        0.144      155.486       17.399        0.013      345.323       22.770      862.223
09/04/2013  00:06:00     -131.099      -50.196       -4.077       26.315       29.590       21.394      692.477      875.580      457.697        1.087        0.101      140.380       14.273        0.010      345.329       22.781      862.222
09/04/2013  00:07:00     -142.342      -25.789       -5.165       36.205       26.696       22.609     1310.785      712.674      511.159        1.174        0.127      144.659       14.706        0.010      345.326       22.777      862.221
09/04/2013  00:08:00     -140.161      -26.695       -2.467       38.428       32.175       22.058     1476.689     1035.206      486.561        1.168        0.150      142.680       23.656        0.027      345.354       22.825      862.212
09/04/2013  00:09:00     -128.883      -18.178        3.666       45.895       33.713       21.771     2106.326     1136.564      473.959        1.033        0.186      130.158       23.972        0.034      345.277       22.691      862.213
09/04/2013  00:10:00     -145.695      -31.619       13.714       59.847       51.345       29.337     3581.615     2636.357      860.665        1.475        0.354      149.087       27.617        0.034      345.241       22.628      862.222
09/04/2013  00:11:00     -172.953      -54.435       -0.054       55.346       36.920       24.414     3063.157     1363.084      596.031        1.895        0.251      181.317       21.644        0.014      345.299       22.727      862.236
09/04/2013  00:12:00     -141.423      -48.972       -0.519       41.257       41.754       24.052     1702.147     1743.388      578.512        1.321        0.201      149.662       15.846        0.011      345.198       22.557      862.245
09/04/2013  00:13:00     -163.517      -34.233        0.322       69.590       42.097       27.897     4842.711     1772.197      778.239        1.765        0.370      167.062       28.396        0.029      345.121       22.425      862.244
09/04/2013  00:14:00     -168.002       42.156      -16.061       39.717       40.667       23.167     1577.445     1653.817      536.709        1.701        0.188      173.210       16.538        0.009      345.127       22.436      862.240
09/04/2013  00:15:00     -140.942       45.289       -9.662       40.027       33.510       24.929     1602.134     1122.920      621.455        1.268        0.167      148.040        8.823        0.004      345.141       22.460      862.237
09/04/2013  00:16:00      -78.769       -4.969       -5.339       43.727       34.168       18.436     1912.077     1167.473      339.901        0.484        0.171       78.925       14.957        0.036      345.162       22.496      862.235
09/04/2013  00:17:00     -149.754       33.302       -8.950       28.711       22.243       15.384      824.345      494.737      236.675        1.259        0.078      153.412       12.611        0.007      345.294       22.721      862.231
09/04/2013  00:18:00     -107.366       34.844       -8.035       26.727       22.438       13.873      714.320      503.448      192.456        0.711        0.071      112.878        9.313        0.007      345.172       22.513      862.243
09/04/2013  00:19:00      -67.011       27.636       -8.384       28.617       22.957       15.949      818.914      527.027      254.357        0.346        0.080       72.486       17.395        0.058      345.163       22.497      862.251
09/04/2013  00:20:00      -76.252        3.901      -16.170       14.865       16.764       18.523      220.960      281.018      343.085        0.347        0.042       76.352       11.127        0.021      345.231       22.613      862.249
09/04/2013  00:21:00      -51.664      -15.880        3.143       43.320       24.481       23.516     1876.596      599.339      553.024        0.298        0.151       54.050       18.307        0.115      345.164       22.498      862.247
09/04/2013  00:22:00      -95.088      -31.596       -0.362       28.792       33.321       17.493      828.992     1110.285      306.021        0.614        0.112      100.200       15.428        0.024      345.106       22.402      862.233
09/04/2013  00:23:00     -115.644      -21.437      -15.286       21.665       41.298       18.209      469.392     1705.516      331.561        0.829        0.125      117.614       15.639        0.018      345.099       22.389      862.217
09/04/2013  00:24:00      -91.700      -17.886        0.302       46.361       28.191       20.720     2149.375      794.730      429.333        0.605        0.169       93.428       23.300        0.062      345.072       22.342      862.196
09/04/2013  00:25:00     -119.926      -16.560       -1.254       62.842       39.535       25.459     3949.145     1562.995      648.182        1.041        0.308      121.064       30.321        0.063      344.994       22.208      862.202
09/04/2013  00:26:00     -104.393      -27.583        8.468       47.259       37.186       22.103     2233.393     1382.823      488.527        0.792        0.205      107.976       21.693        0.040      345.015       22.243      862.217
09/04/2013  00:27:00      -87.734      -26.194        5.104       44.539       26.485       18.683     1983.745      701.471      349.043        0.572        0.152       91.561       23.353        0.065      345.117       22.418      862.228
09/04/2013  00:28:00     -101.863       -7.525        4.829       36.734       27.285       19.805     1349.372      744.445      392.238        0.647        0.124      102.141       20.793        0.041      345.129       22.438      862.230
09/04/2013  00:29:00     -114.136       17.953       -5.871       32.659       22.609       18.346     1066.580      511.188      336.573        0.765        0.096      115.539       13.638        0.014      344.969       22.167      862.230
09/04/2013  00:30:00     -116.565       -2.059      -10.935       41.142       25.068       17.130     1692.668      628.382      293.449        0.816        0.131      116.583       17.725        0.023      344.985       22.192      862.231
09/04/2013  00:31:00      -80.740      -22.877       -7.393       46.902       22.841       14.535     2199.790      521.717      211.274        0.501        0.147       83.918       14.237        0.029      344.969       22.165      862.228
09/04/2013  00:32:00     -120.836      -29.293        2.123       51.976       37.932       24.847     2701.550     1438.832      617.387        1.011        0.238      124.336       25.592        0.042      344.941       22.116      862.225
09/04/2013  00:33:00      -84.317        6.568        2.918       51.846       34.809       22.095     2688.020     1211.638      488.192        0.577        0.219       84.573       23.373        0.076      344.920       22.080      862.239
09/04/2013  00:34:00      -33.750        0.964        2.029       23.278       18.986       13.363      541.864      360.465      178.559        0.111        0.054       33.764       10.884        0.104      344.929       22.095      862.263
09/04/2013  00:35:00      -26.335       -8.995       -4.124       17.521       15.448       14.667      306.983      238.631      215.120        0.078        0.038       27.829        9.442        0.115      345.015       22.245      862.267
09/04/2013  00:36:00        5.038        1.642      -10.161       10.189       17.286       11.812      103.823      298.811      139.524        0.034        0.027        5.298       12.838        5.871      345.085       22.363      862.273
09/04/2013  00:37:00       31.529      -40.242       -5.573       19.138       19.272       12.776      366.277      371.415      163.228        0.177        0.045       51.122       12.349        0.058      345.082       22.359      862.278
09/04/2013  00:38:00       42.938      -67.771        2.687       47.876       38.602       39.590     2292.139     1490.092     1567.368        0.590        0.267       80.228       36.415        0.206      345.154       22.483      862.280
09/04/2013  00:39:00      -17.572      -12.639        4.798       18.612       19.283       13.425      346.411      371.849      180.241        0.069        0.045       21.646       10.622        0.241      345.068       22.334      862.287
09/04/2013  00:40:00      -11.697       10.521       17.247       16.407       11.632       12.040      269.187      135.311      144.961        0.055        0.027       15.733       11.613        0.545      344.999       22.218      862.281
09/04/2013  00:41:00      -17.900       28.091       -2.792       14.862        8.882        4.678      220.865       78.896       21.884        0.072        0.016       33.309        3.808        0.013      344.970       22.167      862.277
09/04/2013  00:42:00       -0.777       10.584        6.525       11.499       13.244        7.979      132.228      175.416       63.668        0.026        0.019       10.612        7.867        0.549      344.946       22.126      862.267
09/04/2013  00:43:00      -21.343        3.125       -3.040        8.024        6.491        5.033       64.386       42.129       25.329        0.030        0.007       21.570        4.961        0.053      344.889       22.023      862.266
09/04/2013  00:44:00       -1.617      -12.762      -12.499        9.269        9.653        5.625       85.920       93.178       31.637        0.027        0.011       12.864        5.069        0.155      344.959       22.147      862.270
09/04/2013  00:45:00       -6.384      -40.105       -6.967       14.702       17.516        8.987      216.145      306.799       80.775        0.115        0.030       40.610        6.731        0.027      345.042       22.292      862.277
09/04/2013  00:46:00      -16.712      -25.927        5.856       15.140       15.957       10.093      229.221      254.632      101.878        0.079        0.029       30.846        5.394        0.031      345.005       22.227      862.279
09/04/2013  00:47:00      -25.740      -21.419        2.854       24.399       14.823       10.989      595.329      219.730      120.766        0.103        0.047       33.486       12.905        0.149      345.003       22.225      862.276
09/04/2013  00:48:00       -1.172      -21.072        8.518       12.734       11.470        9.142      162.160      131.570       83.585        0.045        0.019       21.104        6.773        0.103      344.983       22.189      862.262
09/04/2013  00:49:00       -7.775      -27.151       -3.020       20.569       19.366       11.854      423.095      375.054      140.517        0.087        0.047       28.242        9.443        0.112      345.073       22.343      862.243
09/04/2013  00:50:00        1.141        0.337        4.911        7.500        8.255        6.661       56.254       68.139       44.374        0.010        0.008        1.189        4.552       14.643      344.995       22.213      862.236
09/04/2013  00:51:00        1.489       -4.531        5.391       10.698       10.865        9.222      114.442      118.052       85.045        0.018        0.016        4.770        6.592        1.910      344.935       22.108      862.233
09/04/2013  00:52:00       -1.200      -24.125       -1.297        8.732       12.418        7.557       76.246      154.199       57.115        0.044        0.014       24.155        5.559        0.053      345.014       22.240      862.236
09/04/2013  00:53:00       -1.429      -13.099        4.548        9.895       14.360        7.209       97.909      206.224       51.976        0.028        0.018       13.177        2.375        0.032      345.049       22.300      862.238
09/04/2013  00:54:00        4.704      -23.676        0.865        8.486       19.230       15.274       72.014      369.795      233.294        0.063        0.034       24.139       10.527        0.190      345.025       22.260      862.239
09/04/2013  00:55:00       -3.126      -43.635      -10.349       24.784       26.368       18.825      614.261      695.286      354.369        0.184        0.083       43.747       14.187        0.105      344.951       22.135      862.238
09/04/2013  00:56:00      -33.186       -3.117       -8.096       14.213       25.937        9.744      202.003      672.746       94.946        0.107        0.048       33.332       12.141        0.133      344.994       22.207      862.234
09/04/2013  00:57:00      -29.963       33.039       -6.004       11.049       11.522       10.160      122.083      132.746      103.222        0.119        0.018       44.602        5.047        0.013      344.986       22.195      862.232
09/04/2013  00:58:00      -23.863       -4.849       -8.706       13.229       10.954        7.925      174.995      119.979       62.805        0.051        0.018       24.350        6.496        0.071      345.126       22.434      862.237
09/04/2013  00:59:00      -18.723      -20.142        4.902       33.839       16.681       15.967     1145.079      278.247      254.942        0.123        0.084       27.500       12.680        0.213      344.991       22.204      862.257
09/04/2013  01:00:00      -62.889      -14.797       -1.931       21.956       17.494        9.562      482.064      306.047       91.441        0.253        0.044       64.607       11.126        0.030      344.826       21.920      862.261
09/04/2013  01:01:00      -43.002       29.338        2.938       11.961       20.437        9.993      143.072      417.670       99.860        0.169        0.033       52.056        6.100        0.014      344.761       21.808      862.255
09/04/2013  01:02:00      -31.102       46.369       -5.823        8.088       12.887        7.467       65.420      166.065       55.749        0.172        0.014       55.834        4.950        0.008      344.956       22.143      862.254
09/04/2013  01:03:00      -33.507       31.197       -8.168        8.717       16.246        5.889       75.979      263.941       34.680        0.127        0.019       45.782        5.987        0.017      344.949       22.131      862.261
09/04/2013  01:04:00      -10.589       18.198       -0.887       11.416        6.650        6.733      130.321       44.224       45.337        0.033        0.011       21.054        7.474        0.126      344.996       22.212      862.279
09/04/2013  01:05:00       20.853        5.802        5.329       12.752        6.600        6.454      162.601       43.560       41.655        0.037        0.012       21.645        4.748        0.048      344.993       22.205      862.293
09/04/2013  01:06:00        3.621       21.641       17.793       16.182       15.789       19.880      261.847      249.295      395.201        0.085        0.045       21.942       15.790        0.518      344.807       21.887      862.302
09/04/2013  01:07:00      -10.265        1.918        9.259        4.992        5.776       11.533       24.917       33.361      133.016        0.019        0.010       10.443        5.568        0.284      344.764       21.815      862.309
09/04/2013  01:08:00       -0.473       23.719       -3.215        3.897       16.980        2.582       15.190      288.307        6.669        0.044        0.016       23.724        2.346        0.010      345.033       22.275      862.298
09/04/2013  01:09:00        0.125       54.611       -7.069        8.436        9.828        4.613       71.168       96.583       21.282        0.161        0.009       54.611        2.691        0.002      345.119       22.425      862.294
09/04/2013  01:10:00        0.151       61.564       -6.020        4.869        8.994        6.762       23.705       80.897       45.722        0.199        0.008       61.564        4.121        0.004      345.018       22.248      862.301
09/04/2013  01:11:00        7.927       70.757      -10.413       14.244       11.345        6.969      202.901      128.705       48.565        0.278        0.019       71.200        3.791        0.003      345.150       22.474      862.300
09/04/2013  01:12:00      -17.548       86.538       -5.573       20.368       18.796       11.247      414.857      353.286      126.489        0.436        0.045       88.299        3.413        0.001      345.085       22.366      862.284
09/04/2013  01:13:00       -2.842       -1.424       -9.264       30.701       93.709       18.706      942.580     8781.354      349.922        0.508        0.504        3.179       21.133       44.199      345.135       22.450      862.299
09/04/2013  01:14:00      -15.399      -79.320       -6.852       59.944       46.648       29.925     3593.338     2176.061      895.500        0.662        0.333       80.801       19.666        0.059      344.835       21.936      862.315
09/04/2013  01:15:00      -19.426      -35.164        8.052       44.428       24.280       22.573     1973.858      589.502      509.556        0.238        0.154       40.173       16.581        0.170      344.782       21.846      862.310
09/04/2013  01:16:00      -50.016      -26.676        4.046       33.220       17.682       12.112     1103.584      312.643      146.703        0.240        0.078       56.685       13.530        0.057      344.814       21.899      862.296
09/04/2013  01:17:00      -44.777      -14.185        7.444       27.961       15.659        9.686      781.797      245.214       93.816        0.169        0.056       46.970        5.674        0.015      344.881       22.015      862.280
09/04/2013  01:18:00      -41.499       26.494       -1.730       15.521       22.915       11.136      240.893      525.116      124.002        0.166        0.045       49.235       12.433        0.064      344.835       21.935      862.277
09/04/2013  01:19:00      -60.054       34.223      -14.540        9.843       12.519        6.902       96.882      156.726       47.641        0.265        0.015       69.120        5.379        0.006      344.937       22.111      862.275
09/04/2013  01:20:00      -60.822        8.037       -3.134       11.498       10.055        6.233      132.214      101.111       38.853        0.202        0.014       61.351        4.534        0.005      345.004       22.224      862.263
09/04/2013  01:21:00      -61.093      -21.462       -4.039       18.535       12.581       11.607      343.556      158.290      134.729        0.242        0.032       64.753        6.621        0.010      344.822       21.913      862.267
09/04/2013  01:22:00      -57.972       -0.497        3.131       37.581       18.716       19.759     1412.298      350.298      390.425        0.276        0.108       57.974       20.316        0.123      344.779       21.841      862.273
09/04/2013  01:23:00      -34.596       -6.002        2.688       26.773       19.527       16.962      716.800      381.290      287.722        0.131        0.069       35.113       16.939        0.233      344.775       21.834      862.287
09/04/2013  01:24:00      -70.936      -45.199        0.100       29.496       19.067       15.366      869.991      363.537      236.099        0.427        0.073       84.112       14.320        0.029      344.674       21.661      862.286
09/04/2013  01:25:00      -35.167      -37.379        9.189       27.483       43.070       20.268      755.325     1854.992      410.784        0.287        0.151       51.322       21.027        0.168      344.706       21.715      862.282
09/04/2013  01:26:00      -81.283      -18.798        3.490       34.520       25.545       16.263     1191.600      652.565      264.499        0.454        0.105       83.428       18.637        0.050      344.730       21.755      862.279
09/04/2013  01:27:00     -111.728      -28.585      -14.075       27.696       21.841       14.957      767.073      477.046      223.710        0.748        0.073      115.326       15.802        0.019      344.758       21.803      862.274
09/04/2013  01:28:00     -104.623      -25.597       -4.984       32.567       19.820       15.334     1060.625      392.835      235.135        0.666        0.084      107.709       16.499        0.023      344.770       21.824      862.263
09/04/2013  01:29:00      -44.502      -37.925        7.805       48.868       23.802       18.666     2388.096      566.527      348.415        0.339        0.165       58.470       19.990        0.117      344.811       21.896      862.258
09/04/2013  01:30:00      -31.575      -20.323        5.043       34.514       23.602       16.404     1191.195      557.053      269.097        0.173        0.101       37.550       18.436        0.241      344.882       22.016      862.256
09/04/2013  01:31:00       -7.417      -26.334       -3.315       13.315        9.352        8.077      177.295       87.453       65.242        0.054        0.016       27.358        7.004        0.066      344.917       22.079      862.238
09/04/2013  01:32:00       -2.799      -16.986        1.433        4.934       14.036        4.038       24.348      196.997       16.303        0.027        0.012       17.215        1.855        0.012      345.036       22.281      862.220
09/04/2013  01:33:00      -21.753        5.245       -0.402        7.702        5.021        4.886       59.315       25.211       23.869        0.030        0.005       22.376        2.704        0.015      344.907       22.058      862.206
09/04/2013  01:34:00       -6.430        3.720        2.940       17.780        8.052       10.396      316.118       64.835      108.078        0.028        0.024        7.428        8.946        1.450      344.865       21.985      862.206
09/04/2013  01:35:00      -29.058       -4.738       -1.175       19.192       12.184        7.932      368.328      148.451       62.920        0.072        0.029       29.442        6.044        0.042      344.892       22.034      862.210
09/04/2013  01:36:00      -62.380      -33.890       -3.297        6.417        9.539        4.287       41.173       90.985       18.378        0.260        0.008       70.991        3.150        0.002      344.992       22.202      862.204
09/04/2013  01:37:00      -40.174      -34.564       -4.342       17.523        7.407        5.319      307.064       54.860       28.293        0.161        0.020       52.997        3.398        0.004      344.939       22.112      862.190
09/04/2013  01:38:00       12.318      -33.198        2.094       15.391       13.637        8.517      236.878      185.956       72.534        0.088        0.025       35.410        9.670        0.075      345.017       22.249      862.180
09/04/2013  01:39:00       12.378        4.406       15.778       29.468       25.784       23.368      868.358      664.815      546.067        0.125        0.104       13.139       25.686        3.822      344.896       22.040      862.177
09/04/2013  01:40:00       -5.343       31.337       45.079       14.055       23.528       11.020      197.556      553.581      121.450        0.196        0.044       31.789       12.555        0.156      344.723       21.743      862.184
09/04/2013  01:41:00       16.435      -13.476        9.172       10.847       22.639       11.700      117.648      512.539      136.888        0.065        0.038       21.253       12.340        0.337      344.832       21.933      862.194
09/04/2013  01:42:00       27.822       -9.101        1.602        7.226        9.737       10.300       52.222       94.800      106.084        0.056        0.013       29.273        4.141        0.020      345.160       22.492      862.188
09/04/2013  01:43:00       -3.509       -0.774       -3.058       15.802       12.448        5.516      249.689      154.957       30.431        0.023        0.022        3.593        3.078        0.734      345.229       22.611      862.181
09/04/2013  01:44:00      -34.030        2.415       -5.864       15.842       11.865        6.894      250.979      140.771       47.533        0.082        0.022       34.115        4.141        0.015      344.986       22.196      862.189
09/04/2013  01:45:00      -39.567       -4.746       -5.597        8.586        8.555        5.512       73.713       73.189       30.383        0.090        0.009       39.850        3.448        0.007      345.145       22.470      862.192
09/04/2013  01:46:00      -15.660        8.884       -3.243        7.238        4.954        5.040       52.385       24.540       25.397        0.022        0.005       18.004        3.307        0.034      345.253       22.651      862.198
09/04/2013  01:47:00      -17.355       28.809       -3.502       10.629        7.901        4.501      112.978       62.430       20.262        0.067        0.010       33.632        2.692        0.006      345.247       22.636      862.194
09/04/2013  01:48:00      -40.179       18.161       -3.431        9.346        7.907        5.374       87.340       62.526       28.882        0.107        0.009       44.093        3.107        0.005      345.041       22.290      862.195
09/04/2013  01:49:00      -43.642       13.167       -2.330        7.877        8.247        5.448       62.045       68.006       29.683        0.112        0.008       45.585        4.257        0.009      344.892       22.033      862.193
09/04/2013  01:50:00      -51.992       16.171       -6.105       16.386       10.515       11.241      268.508      110.563      126.366        0.175        0.025       54.448        7.363        0.018      344.900       22.047      862.186
09/04/2013  01:51:00      -50.164        9.231       -6.417       18.063       15.742        9.849      326.268      247.805       97.011        0.166        0.034       51.006        9.234        0.033      344.934       22.105      862.188
09/04/2013  01:52:00      -31.477      -13.884       -3.399       10.698       11.171        7.614      114.454      124.787       57.969        0.075        0.015       34.403        4.822        0.020      344.869       21.994      862.189
09/04/2013  01:53:00      -35.873       -0.944       -6.189        6.332       12.200        7.212       40.088      148.845       52.013        0.078        0.012       35.886        4.701        0.017      344.927       22.094      862.181
09/04/2013  01:54:00      -53.995      -11.448       -9.395       15.141       13.154       10.055      229.261      173.023      101.102        0.182        0.025       55.195        6.838        0.015      344.828       21.925      862.171
09/04/2013  01:55:00      -28.550       -6.193       -5.582       20.622       15.761        7.540      425.254      248.398       56.851        0.081        0.037       29.214        9.135        0.098      344.730       21.756      862.172
09/04/2013  01:56:00       -7.185      -14.880       -3.300       19.608       10.287       10.412      384.467      105.817      108.410        0.044        0.030       16.524        7.672        0.216      344.730       21.757      862.179
09/04/2013  01:57:00       11.422      -20.001       -2.672       10.150        9.069       14.151      103.015       82.241      200.239        0.046        0.019       23.033        8.185        0.126      344.757       21.799      862.186
09/04/2013  01:58:00       -0.599      -14.074        2.215       10.556       10.459       10.444      111.431      109.385      109.076        0.027        0.016       14.087        6.902        0.240      344.790       21.857      862.207
09/04/2013  01:59:00       14.209       -9.667        5.363       10.732        8.639       11.957      115.186       74.626      142.959        0.033        0.017       17.185        8.189        0.227      344.863       21.987      862.223
09/04/2013  02:00:00        4.578       -6.910       16.611        9.901       17.823       10.485       98.037      317.662      109.939        0.044        0.026        8.289       11.445        1.906      344.769       21.822      862.230
09/04/2013  02:01:00        9.313       -6.559        3.114        5.101        8.651        5.705       26.018       74.833       32.551        0.014        0.007       11.391        4.929        0.187      344.873       22.000      862.228
09/04/2013  02:02:00       23.519       -1.518       -4.580       13.851       14.329       10.176      191.849      205.332      103.549        0.054        0.025       23.568        2.919        0.015      344.737       21.767      862.217
09/04/2013  02:03:00        9.078       12.961        9.023        9.598        8.378        8.146       92.129       70.194       66.354        0.028        0.011       15.824        5.849        0.137      344.765       21.815      862.202
09/04/2013  02:04:00        5.600       16.642        5.287       10.667        7.631       10.021      113.785       58.234      100.424        0.030        0.014       17.559        5.361        0.093      344.802       21.880      862.192
09/04/2013  02:05:00       -1.903       50.759       -8.942        8.654       20.567        9.260       74.899      422.981       85.748        0.162        0.029       50.794        8.370        0.027      345.139       22.455      862.183
09/04/2013  02:06:00       -3.162       45.522       -2.315       16.443       19.413       11.076      270.359      376.862      122.672        0.143        0.038       45.631        9.909        0.047      345.078       22.353      862.184
09/04/2013  02:07:00      -18.909       47.348       -6.639       14.139       20.852       10.089      199.898      434.800      101.797        0.169        0.037       50.984        7.244        0.020      345.091       22.376      862.177
09/04/2013  02:08:00      -34.987       -0.507       -3.383       11.808       13.702        7.872      139.428      187.746       61.963        0.081        0.019       34.991        8.308        0.056      344.907       22.060      862.178
09/04/2013  02:09:00      -39.543       -3.870       -0.360       13.879       10.453        7.403      192.638      109.267       54.811        0.097        0.018       39.731        4.365        0.012      345.017       22.247      862.186
09/04/2013  02:10:00        3.003        4.333        6.155       23.379        9.932        9.401      546.591       98.638       88.382        0.040        0.037        5.272        6.819        1.673      344.781       21.845      862.189
09/04/2013  02:11:00       39.574       24.697       16.028       24.126       13.783       16.572      582.059      189.960      274.620        0.174        0.052       46.648       10.387        0.050      344.410       21.209      862.201
09/04/2013  02:12:00       60.109       18.711       32.014       34.605       26.889       26.013     1197.490      723.031      676.667        0.379        0.130       62.954       23.799        0.143      344.239       20.916      862.203
09/04/2013  02:13:00       37.017        9.654       24.125       27.705       16.759       21.082      767.568      280.872      444.451        0.177        0.075       38.255       11.592        0.092      344.397       21.186      862.203
09/04/2013  02:14:00       52.438       14.578        4.285       21.047       21.197       14.175      442.993      449.312      200.917        0.204        0.055       54.427       10.532        0.037      344.571       21.485      862.193
09/04/2013  02:15:00       35.044       25.910        3.331       21.797       11.997        9.549      475.105      143.931       91.176        0.131        0.036       43.582        5.836        0.018      344.701       21.708      862.189
09/04/2013  02:16:00       33.216        2.848        5.475       24.214       22.744       14.723      586.295      517.280      216.760        0.123        0.066       33.337       11.096        0.111      344.512       21.384      862.193
09/04/2013  02:17:00      -25.950      -19.253       -3.850       20.509       17.098        7.916      420.605      292.334       62.662        0.092        0.039       32.312        8.170        0.064      344.501       21.364      862.217
09/04/2013  02:18:00      -64.863        2.129       -7.814       22.017       11.195        8.830      484.764      125.319       77.975        0.248        0.034       64.898        6.659        0.011      344.476       21.322      862.237
09/04/2013  02:19:00     -111.858       -3.905      -15.132       18.063       14.241       12.967      326.278      202.801      168.147        0.673        0.035      111.926        9.947        0.008      344.610       21.552      862.233
09/04/2013  02:20:00      -81.609      -30.136       -7.078       22.496       19.017       11.924      506.049      361.640      142.172        0.431        0.050       86.995       10.754        0.015      344.711       21.725      862.224
09/04/2013  02:21:00      -99.599      -40.436        0.620       50.772       28.600       16.335     2577.810      817.935      266.842        0.761        0.183      107.494       21.602        0.040      344.753       21.794      862.224
09/04/2013  02:22:00      -53.040      122.585      -20.649       35.748       72.749       26.664     1277.949     5292.400      710.963        1.277        0.364      133.568       32.321        0.059      345.041       22.287      862.220
09/04/2013  02:23:00      -26.383       64.301      -11.711       26.427       48.764       11.497      698.408     2377.933      132.178        0.409        0.160       69.503        7.497        0.012      344.924       22.086      862.211
09/04/2013  02:24:00        5.376       72.191       -0.545       14.156       27.069       21.108      200.396      732.724      445.561        0.331        0.069       72.390       13.583        0.035      345.057       22.316      862.201
09/04/2013  02:25:00       -9.205      101.210      -12.003       24.966       35.679       19.397      623.286     1273.006      376.229        0.637        0.114      101.628       18.380        0.033      344.999       22.216      862.191
09/04/2013  02:26:00       -3.404       72.966      -17.015       21.396       15.374       10.380      457.798      236.345      107.745        0.321        0.040       73.046        5.758        0.006      345.007       22.231      862.198
09/04/2013  02:27:00       15.067       62.544      -11.225       15.829       12.727        7.064      250.557      161.980       49.904        0.236        0.023       64.333        4.519        0.005      345.033       22.276      862.203
09/04/2013  02:28:00       30.917       48.182       -5.669       15.867       19.396       10.598      251.757      376.194      112.322        0.202        0.037       57.249       10.844        0.036      344.946       22.125      862.212
09/04/2013  02:29:00       17.662       58.860       -4.722       16.237       23.912       14.349      263.626      571.765      205.888        0.242        0.052       61.453       14.409        0.055      345.129       22.440      862.226
09/04/2013  02:30:00       35.557       51.591       -5.431       20.028       24.613       13.036      401.132      605.785      169.931        0.257        0.059       62.658       12.141        0.038      345.115       22.416      862.233
09/04/2013  02:31:00        8.034       28.305       -8.461        7.614       17.273        5.583       57.967      298.363       31.171        0.066        0.019       29.423        6.651        0.051      345.246       22.639      862.245
09/04/2013  02:32:00        3.582       29.930       -2.890        5.157        8.359        4.886       26.599       69.877       23.873        0.052        0.006       30.144        3.152        0.011      345.233       22.617      862.249
09/04/2013  02:33:00       -9.572        8.206       -3.622       11.822       12.200        4.073      139.764      148.833       16.588        0.024        0.015       12.608        5.030        0.159      345.067       22.335      862.245
09/04/2013  02:34:00      -27.098        4.716       -3.614        7.202       10.260        7.496       51.865      105.259       56.190        0.049        0.011       27.505        4.452        0.026      345.161       22.494      862.238
09/04/2013  02:35:00      -45.569       -0.920       -7.559        8.668        6.132        5.795       75.133       37.598       33.584        0.114        0.007       45.579        5.812        0.016      344.924       22.089      862.233
09/04/2013  02:36:00      -46.677       -9.581       -5.953       10.364        8.831        6.065      107.418       77.990       36.788        0.126        0.011       47.650        3.834        0.006      344.916       22.076      862.233
09/04/2013  02:37:00      -87.942      -22.597       -7.527       17.814       10.141        8.214      317.344      102.836       67.473        0.439        0.024       90.799        2.051        0.001      344.931       22.101      862.228
09/04/2013  02:38:00     -101.960      -18.114       -5.510       18.043       20.165       15.409      325.537      406.639      237.430        0.586        0.048      103.556       12.792        0.015      344.941       22.117      862.221
09/04/2013  02:39:00      -93.202       -6.835      -11.504       22.811       15.552       10.747      520.344      241.855      115.490        0.487        0.044       93.452        8.257        0.008      344.911       22.065      862.212
09/04/2013  02:40:00      -82.212        2.169       -9.158       20.251       22.591       12.569      410.118      510.373      157.990        0.396        0.054       82.241       12.196        0.022      344.929       22.097      862.216
09/04/2013  02:41:00      -54.815      -14.940       -4.988       13.301       13.907       10.426      176.924      193.392      108.706        0.187        0.024       56.814        7.080        0.016      344.891       22.031      862.218
09/04/2013  02:42:00      -47.314       -6.435       -7.348       12.093       14.012        8.910      146.243      196.344       79.391        0.138        0.021       47.749        5.384        0.013      344.894       22.038      862.217
09/04/2013  02:43:00      -74.351       -7.080      -11.081       13.144       12.697       10.897      172.771      161.220      118.751        0.308        0.023       74.687        8.467        0.013      344.842       21.948      862.213
09/04/2013  02:44:00      -76.290      -23.381      -10.571       17.459       19.035       12.887      304.819      362.315      166.084        0.366        0.042       79.792        9.964        0.016      344.832       21.931      862.210
09/04/2013  02:45:00      -89.186      -49.452       -5.269       16.048       22.941       12.452      257.536      526.275      155.053        0.568        0.047      101.979        4.914        0.002      344.762       21.810      862.221
09/04/2013  02:46:00      -98.287      -16.683      -10.204       31.504       19.546       14.944      992.482      382.030      223.328        0.582        0.080       99.693       14.024        0.020      344.667       21.649      862.235
09/04/2013  02:47:00      -72.039      -23.430       -1.252       24.451       18.369       12.931      597.869      337.418      167.198        0.342        0.055       75.754       10.704        0.020      344.647       21.614      862.248
09/04/2013  02:48:00      -86.441      -28.092       -4.116       33.904       25.953       13.477     1149.451      673.566      181.626        0.514        0.100       90.892       11.268        0.015      344.653       21.622      862.257
09/04/2013  02:49:00      -56.125       -4.272        1.823       12.365       16.733       11.036      152.891      280.000      121.800        0.186        0.028       56.288        5.962        0.011      344.691       21.690      862.264
09/04/2013  02:50:00      -52.629        6.193       -0.062       25.836       18.657       14.518      667.498      348.100      210.777        0.202        0.061       52.992       14.342        0.073      344.741       21.775      862.269
09/04/2013  02:51:00      -79.073       54.297      -19.086       25.242       30.843       13.519      637.180      951.279      182.776        0.567        0.089       95.921       12.825        0.018      344.942       22.119      862.270
09/04/2013  02:52:00      -44.113       93.977      -13.690       27.952       29.673       15.916      781.316      880.517      253.322        0.644        0.096      103.815       14.058        0.018      344.987       22.197      862.264
09/04/2013  02:53:00      -47.846      120.374      -14.591       22.227       30.951       18.904      494.048      957.940      357.354        0.940        0.090      129.534       17.491        0.018      345.005       22.227      862.258
09/04/2013  02:54:00      -33.157       61.853       -4.435       26.850       29.966       19.117      720.923      897.975      365.453        0.346        0.099       70.179       18.078        0.066      344.943       22.120      862.244
09/04/2013  02:55:00      -21.574       61.334      -10.932       24.892       23.553       15.400      619.606      554.734      237.161        0.288        0.071       65.018       11.040        0.029      344.964       22.158      862.241
09/04/2013  02:56:00       -6.000       86.535       -8.669       11.123       14.243       10.565      123.710      202.853      111.626        0.402        0.022       86.743        5.613        0.004      345.014       22.242      862.240
09/04/2013  02:57:00      -32.941       81.198      -10.799       25.173       21.390       15.177      633.683      457.533      230.340        0.456        0.066       87.625       13.762        0.025      345.006       22.229      862.233
09/04/2013  02:58:00      -37.230       75.315      -16.239       16.369       18.018        8.606      267.946      324.660       74.069        0.399        0.033       84.015        4.209        0.003      345.018       22.250      862.225
09/04/2013  02:59:00      -41.848      105.497      -15.532       20.645       35.062       11.481      426.198     1229.348      131.809        0.745        0.089      113.494        7.373        0.004      345.070       22.340      862.200
09/04/2013  03:00:00      -31.705       97.715      -15.071       18.022       25.177       13.464      324.787      633.863      181.290        0.596        0.057      102.730       12.452        0.015      345.037       22.282      862.188
09/04/2013  03:01:00      -32.228       69.637       -8.671       17.487       26.958       13.918      305.803      726.717      193.698        0.359        0.061       76.733       12.760        0.028      344.993       22.207      862.178
09/04/2013  03:02:00      -28.420      130.367      -16.175       17.159       29.404       10.892      294.419      864.624      118.625        0.967        0.064      133.429       11.286        0.007      344.979       22.180      862.166
09/04/2013  03:03:00      -35.526      121.396      -18.564       14.317       29.511       12.978      204.965      870.921      168.430        0.879        0.062      126.487        8.654        0.005      345.011       22.237      862.163
09/04/2013  03:04:00      -49.305       64.438      -10.613       16.946       33.403       13.306      287.160     1115.784      177.053        0.414        0.079       81.137       14.331        0.031      344.953       22.138      862.170
09/04/2013  03:05:00      -42.958       37.139       -8.038       11.658       20.008        8.293      135.898      400.305       68.781        0.195        0.030       56.787        7.039        0.015      345.012       22.241      862.180
09/04/2013  03:06:00      -49.188       12.457       -4.684       13.020       16.653       11.020      169.516      277.334      121.449        0.158        0.028       50.741        9.716        0.037      344.907       22.060      862.190
09/04/2013  03:07:00      -50.758       20.084       -5.574       19.934       24.542        9.478      397.380      602.290       89.836        0.205        0.054       54.587        9.764        0.032      345.016       22.246      862.185
09/04/2013  03:08:00      -45.673        6.159      -11.759       13.634       19.719        7.994      185.895      388.828       63.912        0.145        0.032       46.087        7.675        0.028      344.821       21.912      862.188
09/04/2013  03:09:00      -40.716       21.513      -12.811       19.432       38.386        8.166      377.593     1473.469       66.686        0.210        0.096       46.050        9.339        0.041      344.949       22.131      862.197
09/04/2013  03:10:00      -19.689       -2.195       -2.598       18.987       12.212       10.117      360.512      149.126      102.346        0.051        0.031       19.811       11.247        0.322      344.880       22.014      862.206
09/04/2013  03:11:00      -28.025      -12.839       -8.738       16.442       15.606       15.504      270.323      243.556      240.359        0.089        0.038       30.826        5.835        0.036      344.823       21.913      862.217
09/04/2013  03:12:00      -64.555      -25.133      -11.215       14.809       10.956       10.021      219.306      120.033      100.415        0.268        0.022       69.275        3.360        0.002      344.683       21.675      862.226
09/04/2013  03:13:00      -55.749      -23.895       -6.910       16.519       14.965        9.375      272.862      223.953       87.888        0.216        0.029       60.654        8.167        0.018      344.675       21.663      862.225
09/04/2013  03:14:00      -34.563      -13.771       -7.095       13.804       15.827        9.663      190.550      250.504       93.365        0.098        0.027       37.206        3.982        0.011      344.643       21.607      862.229
09/04/2013  03:15:00      -17.687      -17.972       -0.425       13.088       10.482        9.646      171.296      109.881       93.040        0.051        0.019       25.215        4.631        0.034      344.596       21.526      862.232
09/04/2013  03:16:00      -38.405      -25.457       -8.979       27.443       14.368       10.113      753.123      206.435      102.263        0.163        0.053       46.076        8.349        0.033      344.662       21.639      862.244
09/04/2013  03:17:00     -103.130      -18.455      -15.311       26.695       17.942       11.645      712.636      321.898      135.611        0.619        0.059      104.768        5.918        0.003      344.576       21.493      862.238
09/04/2013  03:18:00      -99.509      -11.431       -1.746       24.424       17.814       15.361      596.528      317.321      235.960        0.559        0.057      100.164       12.800        0.016      344.436       21.252      862.221
09/04/2013  03:19:00      -60.048      -28.046        4.044       41.428       17.955       15.808     1716.318      322.390      249.908        0.335        0.114       66.275       19.635        0.088      344.418       21.223      862.223
09/04/2013  03:20:00       -1.974      -45.923       -2.255       12.452       14.249       13.197      155.058      203.039      174.167        0.132        0.027       45.965       11.826        0.066      344.489       21.345      862.229
09/04/2013  03:21:00      -52.580      -56.337        0.840       30.669       27.089       16.218      940.557      733.816      263.036        0.394        0.097       77.062        9.220        0.014      344.521       21.398      862.230
09/04/2013  03:22:00      -56.860      -64.768       -0.406       36.024       36.861       20.169     1297.732     1358.737      406.787        0.525        0.153       86.185       12.852        0.022      344.299       21.019      862.231
09/04/2013  03:23:00      -26.519      -78.438       -7.652       25.960       27.116       13.917      673.907      735.281      193.682        0.426        0.080       82.800        7.041        0.007      344.406       21.202      862.229
09/04/2013  03:24:00      -42.154      -39.251       -5.540       25.026       16.055       12.617      626.282      257.763      159.200        0.220        0.052       57.599       12.732        0.049      344.522       21.400      862.224
09/04/2013  03:25:00      -43.997      -27.618        3.924       24.696       22.909       14.103      609.912      524.802      198.891        0.202        0.067       51.947       17.694        0.116      344.450       21.279      862.224
09/04/2013  03:26:00       -6.472      -17.383       -5.414       17.524       14.078       14.511      307.090      198.180      210.580        0.054        0.036       18.549       12.305        0.440      344.295       21.012      862.230
09/04/2013  03:27:00      -10.435      -34.736      -15.616       17.116       25.031       13.418      292.941      626.533      180.046        0.133        0.055       36.269       12.016        0.110      344.246       20.929      862.251
09/04/2013  03:28:00      -60.193      -34.153      -12.332       23.760       26.574        9.167      564.550      706.157       84.038        0.315        0.068       69.207        6.175        0.008      344.355       21.116      862.257
09/04/2013  03:29:00        1.218      -38.694        2.854       21.499       28.598       24.242      462.190      817.844      587.660        0.169        0.093       38.713        9.532        0.061      344.266       20.963      862.270
09/04/2013  03:30:00      -36.498      -13.305       -2.447       23.181       28.207       11.267      537.344      795.632      126.956        0.149        0.073       38.847        4.689        0.015      344.287       20.998      862.274
09/04/2013  03:31:00      -56.252      -42.437        1.874       29.027       25.950       14.330      842.572      673.381      205.351        0.334        0.086       70.464       18.498        0.069      344.317       21.049      862.277
09/04/2013  03:32:00      -28.895      -13.746        3.768       28.119       16.324       15.388      790.674      266.465      236.799        0.117        0.065       31.998       16.821        0.276      344.215       20.877      862.276
09/04/2013  03:33:00        4.632       -9.033       18.022       27.576       14.727       18.020      760.456      216.895      324.717        0.086        0.065       10.152       18.772        3.419      344.028       20.556      862.283
09/04/2013  03:34:00      -33.188      -17.613        5.891       29.026       10.884       14.025      842.496      118.457      196.690        0.130        0.058       37.572       14.947        0.158      344.124       20.722      862.290
09/04/2013  03:35:00      -71.438      -34.416       -5.090       12.882       17.393        9.092      165.958      302.518       82.667        0.343        0.028       79.296        6.259        0.006      344.233       20.907      862.294
09/04/2013  03:36:00      -77.582      -36.773       -3.210       25.245       14.131        9.237      637.300      199.686       85.331        0.415        0.046       85.856        4.173        0.002      344.255       20.944      862.296
09/04/2013  03:37:00      -58.457      -32.825        2.931       45.795       28.309       14.454     2097.184      801.426      208.909        0.380        0.155       67.042       17.846        0.071      344.115       20.704      862.301
09/04/2013  03:38:00      -36.620      -42.041       12.453       53.747       37.627       25.853     2888.719     1415.794      668.368        0.412        0.249       55.754       27.497        0.243      344.025       20.552      862.301
09/04/2013  03:39:00      -98.884      -88.826       -4.412       62.466       69.258       34.244     3901.988     4796.677     1172.632        1.378        0.494      132.921       32.489        0.060      343.980       20.472      862.321
09/04/2013  03:40:00     -148.829     -115.863       -0.877       66.338       47.269       31.814     4400.681     2234.389     1012.142        2.161        0.382      188.612       34.181        0.033      343.938       20.401      862.303
09/04/2013  03:41:00     -138.042      -85.782        2.078       53.511       50.405       30.551     2863.458     2540.637      933.335        1.638        0.317      162.525       24.022        0.022      343.855       20.261      862.293
09/04/2013  03:42:00     -115.395      -47.307        5.507       57.003       36.924       29.703     3249.375     1363.393      882.250        1.054        0.275      124.716       29.430        0.056      343.820       20.200      862.290
09/04/2013  03:43:00     -121.223      -74.150        0.982       77.350       46.381       26.172     5982.948     2151.162      684.984        1.450        0.441      142.103       32.621        0.053      343.746       20.073      862.295
09/04/2013  03:44:00     -143.625      -90.106       -8.896       51.839       47.618       30.875     2687.230     2267.467      953.294        1.737        0.295      169.550       26.207        0.024      343.733       20.050      862.289
09/04/2013  03:45:00     -149.329      -65.489      -15.997       38.570       33.811       20.378     1487.608     1143.202      415.265        1.494        0.152      163.059       13.738        0.007      343.804       20.174      862.281
09/04/2013  03:46:00     -162.742      -40.610      -13.545       39.318       32.816       21.992     1545.918     1076.879      483.646        1.571        0.155      167.733       17.392        0.011      343.779       20.130      862.263
09/04/2013  03:47:00     -163.506      -35.944       -6.243       64.161       34.224       24.694     4116.690     1171.300      609.798        1.698        0.295      167.410       25.630        0.023      343.735       20.053      862.257
09/04/2013  03:48:00     -174.434      -10.566      -13.203       50.982       32.726       24.395     2599.155     1071.006      595.109        1.749        0.213      174.753       24.958        0.020      343.687       19.970      862.251
09/04/2013  03:49:00     -142.405       -6.276      -16.636       54.520       32.402       29.439     2972.480     1049.892      866.653        1.274        0.244      142.543       29.559        0.043      343.732       20.050      862.246
09/04/2013  03:50:00     -128.087      -23.377      -14.071       30.843       28.464       19.218      951.299      810.184      369.322        0.964        0.107      130.202       16.300        0.016      343.715       20.021      862.244
09/04/2013  03:51:00      -97.166       -6.722       -0.973       38.998       37.827       19.024     1520.831     1430.855      361.900        0.640        0.166       97.399       17.375        0.032      343.681       19.964      862.248
09/04/2013  03:52:00      -80.467       -6.779       -1.483       24.274       27.639       19.036      589.251      763.918      362.375        0.412        0.086       80.752       10.297        0.016      343.738       20.062      862.250
09/04/2013  03:53:00     -124.100      -11.681      -14.484       21.874       33.661       18.993      478.469     1133.057      360.738        0.886        0.099      124.649       14.753        0.014      343.907       20.349      862.250
09/04/2013  03:54:00      -77.869       -0.360       -7.578       48.500       24.743       17.763     2352.230      612.222      315.542        0.470        0.164       77.870       19.294        0.061      343.844       20.243      862.261
09/04/2013  03:55:00      -85.761      -17.958       -7.011       38.462       40.920       18.776     1479.320     1674.463      352.532        0.562        0.175       87.621       11.674        0.018      343.881       20.304      862.259
09/04/2013  03:56:00     -112.594       -7.775      -21.523       27.586       41.179       16.121      761.009     1695.693      259.886        0.796        0.136      112.862       10.697        0.009      343.913       20.360      862.258
09/04/2013  03:57:00      -91.936      -26.581        2.609       39.119       38.931       20.342     1530.275     1515.656      413.796        0.631        0.173       95.702       18.360        0.037      343.882       20.307      862.265
09/04/2013  03:58:00      -46.624      -27.065       -3.269       40.296       23.763       19.995     1623.806      564.700      399.783        0.275        0.129       53.911        5.669        0.011      343.829       20.218      862.268
09/04/2013  03:59:00       -6.805        2.000       -1.027       17.442       15.551       12.546      304.214      241.835      157.411        0.038        0.035        7.093       11.794        2.765      343.767       20.111      862.266
09/04/2013  04:00:00      -11.094      -12.099        0.832       11.508       34.512       11.982      132.445     1191.099      143.578        0.087        0.073       16.415        5.715        0.121      343.845       20.242      862.263
09/04/2013  04:01:00      -18.167      -18.146        0.794       22.455       18.437       17.249      504.223      339.933      297.536        0.090        0.057       25.677       14.749        0.330      343.929       20.387      862.264
09/04/2013  04:02:00      -37.861      -17.768       -7.528       12.285        9.294        9.204      150.917       86.377       84.707        0.106        0.016       41.823        3.780        0.008      343.918       20.368      862.270
09/04/2013  04:03:00      -62.900      -22.595       -9.472       14.003       15.168        7.192      196.078      230.075       51.725        0.252        0.024       66.835        7.294        0.012      344.079       20.644      862.285
09/04/2013  04:04:00     -100.262      -76.966       -9.401       27.702       33.516       22.096      767.397     1123.307      488.242        0.922        0.119      126.397       10.733        0.007      343.685       19.972      862.284
09/04/2013  04:05:00     -113.972      -76.719       -2.405       29.053       37.574       21.418      844.084     1411.808      458.750        1.080        0.136      137.388       19.238        0.020      343.621       19.858      862.288
09/04/2013  04:06:00     -108.803      -24.890       -7.039       27.092       33.648       19.996      733.964     1132.198      399.851        0.739        0.113      111.614       17.394        0.024      343.609       19.842      862.293
09/04/2013  04:07:00      -68.443       -3.910       -4.950       13.283       19.257       11.238      176.425      370.847      126.301        0.270        0.034       68.554        8.154        0.014      343.648       19.906      862.292
09/04/2013  04:08:00      -73.894      -35.171       -6.247       14.408       15.671       10.643      207.584      245.577      113.278        0.365        0.028       81.837        7.885        0.009      343.746       20.074      862.295
09/04/2013  04:09:00      -16.438      -19.360       13.379       29.804       15.331       15.218      888.305      235.036      231.579        0.109        0.068       25.397       17.218        0.460      343.659       19.925      862.292
09/04/2013  04:10:00      -50.600      -30.435        6.770       43.782       22.898       17.912     1916.825      524.296      320.847        0.315        0.138       59.048       21.622        0.134      343.565       19.763      862.303
09/04/2013  04:11:00      -42.010      -22.618        0.540       19.265       21.780       10.114      371.138      474.377      102.297        0.161        0.047       47.712       10.818        0.051      343.547       19.735      862.301
09/04/2013  04:12:00      -30.754      -23.918       -1.644       10.889        8.336        9.088      118.580       69.495       82.600        0.090        0.014       38.960        3.691        0.009      343.600       19.825      862.289
09/04/2013  04:13:00      -16.787       -8.353       -2.086       15.609       14.663        8.216      243.629      214.990       67.503        0.044        0.026       18.750        6.095        0.106      343.570       19.774      862.287
09/04/2013  04:14:00      -25.105      -34.998        3.298       35.095       26.071       14.638     1231.655      679.713      214.259        0.200        0.106       43.071        8.574        0.040      343.611       19.843      862.294
09/04/2013  04:15:00      -17.274      -27.499       15.748       32.701       18.285       17.386     1069.359      334.340      302.285        0.150        0.085       32.475       10.062        0.096      343.474       19.613      862.316
09/04/2013  04:16:00      -67.584      -52.369        5.498       47.614       34.597       22.849     2267.084     1196.931      522.073        0.566        0.199       85.499       22.743        0.071      343.447       19.564      862.325
09/04/2013  04:17:00      -88.050      -60.677        3.192       46.238       30.017       23.817     2137.922      901.024      567.255        0.752        0.180      106.932       23.992        0.050      343.495       19.646      862.331
09/04/2013  04:18:00     -110.549      -36.176       -3.401       25.598       21.689       15.625      655.240      470.397      244.141        0.746        0.068      116.317        9.021        0.006      343.482       19.625      862.343
09/04/2013  04:19:00      -84.645      -49.181       -5.167       18.370       21.633       12.419      337.451      467.996      154.222        0.528        0.048       97.895       10.868        0.012      343.434       19.543      862.353
09/04/2013  04:20:00      -71.515      -36.025        4.125       39.821       22.004       17.957     1585.711      484.183      322.441        0.441        0.120       80.076       22.307        0.078      343.443       19.558      862.352
09/04/2013  04:21:00     -104.144      -21.726       -8.094       19.108       20.625       12.496      365.122      425.410      156.138        0.616        0.047      106.386        6.848        0.004      343.413       19.507      862.353
09/04/2013  04:22:00      -84.695      -25.448       -3.731       31.919       22.451       11.681     1018.804      504.050      136.456        0.475        0.083       88.435       11.834        0.018      343.373       19.437      862.350
09/04/2013  04:23:00      -94.478      -42.996       -1.313       31.982       18.970       12.475     1022.869      359.848      155.632        0.616        0.077      103.802       15.468        0.022      343.372       19.439      862.359
09/04/2013  04:24:00      -87.717      -47.288        4.294       32.967       21.108       15.205     1086.792      445.541      231.180        0.586        0.088       99.651       18.041        0.033      343.406       19.497      862.343
09/04/2013  04:25:00      -70.136      -47.075       -0.285       39.749       27.881       15.848     1579.983      777.327      251.147        0.487        0.130       84.469       15.659        0.034      343.383       19.458      862.339
09/04/2013  04:26:00      -82.843      -57.766        2.108       31.003       32.765       17.731      961.197     1073.566      314.374        0.628        0.117      100.994       12.089        0.014      343.329       19.363      862.326
09/04/2013  04:27:00     -122.393      -56.816      -10.248       17.188       15.197       12.872      295.438      230.936      165.698        0.950        0.035      134.937        6.662        0.002      343.299       19.313      862.312
09/04/2013  04:28:00     -124.221      -56.929      -11.377       18.376       26.029       14.617      337.676      677.485      213.660        1.001        0.061      136.644        5.656        0.002      343.323       19.352      862.310
09/04/2013  04:29:00     -132.634      -25.009       -9.825       39.450       27.195       19.092     1556.274      739.551      364.488        1.049        0.133      134.971       18.209        0.018      343.248       19.226      862.309
09/04/2013  04:30:00      -94.450       -5.670       -2.400       43.644       29.176       21.082     1904.840      851.226      444.448        0.608        0.160       94.620       17.538        0.034      343.169       19.092      862.308
09/04/2013  04:31:00      -69.706      -33.457       -1.876       33.966       26.435       17.344     1153.681      698.815      300.815        0.407        0.108       77.319       16.460        0.045      343.193       19.131      862.309
09/04/2013  04:32:00      -41.513       -4.320        4.124       19.400       23.338       13.412      376.377      544.640      179.880        0.143        0.055       41.737        7.409        0.032      343.197       19.138      862.313
09/04/2013  04:33:00      -35.855      -15.317      -10.395       21.791       19.827       14.193      474.849      393.120      201.446        0.135        0.053       38.990       10.584        0.074      343.291       19.299      862.306
09/04/2013  04:34:00      -23.390       28.677       -3.638       12.062       13.780       11.366      145.490      189.896      129.190        0.092        0.023       37.006        2.227        0.004      343.369       19.433      862.308
09/04/2013  04:35:00      -57.128       24.714      -13.371       14.356       18.436        8.344      206.103      339.885       69.622        0.233        0.031       62.245        5.918        0.009      343.519       19.688      862.302
09/04/2013  04:36:00      -68.361       14.020      -15.647       14.433       15.828       10.659      208.306      250.521      113.606        0.284        0.029       69.784        8.219        0.014      343.520       19.691      862.289
09/04/2013  04:37:00      -64.523       21.699      -10.282       20.331       15.473       10.888      413.347      239.429      118.553        0.276        0.039       68.074       12.436        0.033      343.599       19.827      862.280
09/04/2013  04:38:00      -40.482       -6.787       -5.424       12.340       13.783       10.067      152.281      189.970      101.354        0.108        0.022       41.047        5.337        0.017      343.474       19.611      862.288
09/04/2013  04:39:00      -65.044      -26.984       -8.597       17.345       14.449       10.328      300.856      208.769      106.678        0.282        0.031       70.419        6.446        0.008      343.346       19.393      862.303
09/04/2013  04:40:00      -61.129      -33.077       -9.747       16.572       15.412       10.315      274.619      237.533      106.408        0.277        0.031       69.504        5.153        0.005      343.302       19.316      862.309
09/04/2013  04:41:00      -68.803      -36.601      -10.435       13.033       11.782       10.769      169.869      138.815      115.980        0.330        0.021       77.933        4.594        0.003      343.344       19.388      862.306
09/04/2013  04:42:00      -77.973      -12.624      -14.346       13.485       12.889       10.364      181.845      166.139      107.423        0.345        0.023       78.989       10.071        0.016      343.501       19.657      862.307
09/04/2013  04:43:00      -68.514      -35.601       -7.148       14.546       12.238        9.070      211.581      149.767       82.268        0.323        0.022       77.211        4.967        0.004      343.290       19.296      862.307
09/04/2013  04:44:00      -58.770      -23.371       -9.775        6.504        7.905        7.676       42.299       62.490       58.924        0.213        0.008       63.247        5.158        0.007      343.360       19.415      862.323
09/04/2013  04:45:00      -55.680      -16.235      -10.169        5.304        6.033        5.702       28.135       36.399       32.509        0.178        0.005       57.999        2.105        0.001      343.337       19.376      862.328
09/04/2013  04:46:00      -48.602      -17.392       -7.631        7.800        7.074        5.152       60.845       50.047       26.546        0.143        0.007       51.620        3.379        0.004      343.430       19.536      862.339
09/04/2013  04:47:00      -39.463      -32.231       -6.595       12.874       14.007        8.190      165.732      196.203       67.071        0.153        0.021       50.953        4.250        0.007      343.474       19.612      862.349
09/04/2013  04:48:00      -65.845      -29.503      -12.167       21.048        9.055        8.260      443.019       81.994       68.224        0.297        0.030       72.152        6.682        0.009      343.333       19.369      862.348
09/04/2013  04:49:00     -113.091      -59.745       -9.675       27.842       29.885       16.121      775.201      893.125      259.881        0.919        0.096      127.902        8.453        0.004      343.183       19.115      862.363
09/04/2013  04:50:00      -79.043      -95.770       -1.928       51.036       42.178       26.525     2604.713     1778.953      703.573        1.025        0.254      124.176       28.705        0.053      343.103       18.979      862.385
09/04/2013  04:51:00      -59.509      -81.720       -9.694       20.233       19.610       14.285      409.385      384.555      204.051        0.566        0.050      101.092        8.916        0.008      343.236       19.206      862.397
09/04/2013  04:52:00      -64.830      -46.262       -7.010       14.909       15.275        8.454      222.289      233.315       71.477        0.346        0.026       79.644        3.727        0.002      343.281       19.283      862.397
09/04/2013  04:53:00      -81.808      -25.223       -8.247       14.386       13.386       10.295      206.951      179.178      105.978        0.394        0.025       85.608        3.838        0.002      343.194       19.134      862.387
09/04/2013  04:54:00      -72.721      -36.593      -10.907        9.312       16.649        8.813       86.718      277.189       77.665        0.359        0.022       81.409        3.803        0.002      343.191       19.129      862.374
09/04/2013  04:55:00      -80.399      -21.408      -14.542        6.473        6.425        6.183       41.897       41.279       38.233        0.363        0.006       83.200        4.659        0.003      343.215       19.172      862.364
09/04/2013  04:56:00      -80.575      -17.644      -11.643       12.295       11.172        9.282      151.162      124.824       86.162        0.365        0.018       82.484        6.097        0.005      343.142       19.045      862.365
09/04/2013  04:57:00     -107.277      -29.781      -15.684       13.866       10.740        7.614      192.261      115.342       57.970        0.650        0.018      111.334        3.290        0.001      343.141       19.044      862.365
09/04/2013  04:58:00     -135.573      -23.306      -20.002       11.482       12.920        7.150      131.827      166.932       51.119        0.984        0.017      137.562        3.056        0.000      343.163       19.082      862.367
09/04/2013  04:59:00     -130.530      -33.291      -17.617       11.181       12.016        9.820      125.004      144.389       96.427        0.941        0.018      134.708        6.192        0.002      343.102       18.978      862.371
09/04/2013  05:00:00     -115.975      -43.253      -10.635       17.593       20.163       14.131      309.510      406.555      199.688        0.817        0.046      123.778        9.720        0.006      343.062       18.909      862.388
09/04/2013  05:01:00     -101.224      -50.285       -8.766       15.210       15.135       11.635      231.352      229.061      135.371        0.672        0.030      113.026        7.682        0.005      343.045       18.880      862.394
09/04/2013  05:02:00     -112.536      -45.963       -3.982       21.714       22.351       15.483      471.518      499.563      239.736        0.800        0.061      121.561       14.315        0.014      343.018       18.834      862.397
09/04/2013  05:03:00     -120.552      -18.877      -12.733       19.747       18.153       13.224      389.933      329.531      174.866        0.797        0.045      122.021       12.251        0.010      343.059       18.905      862.394
09/04/2013  05:04:00     -110.074       -8.920      -15.710        8.804       10.738        7.010       77.509      115.300       49.147        0.634        0.012      110.435        5.303        0.002      343.131       19.027      862.401
09/04/2013  05:05:00      -85.691      -21.350      -14.035       14.205       10.824       10.862      201.787      117.158      117.985        0.422        0.022       88.311        8.655        0.010      343.069       18.920      862.423
09/04/2013  05:06:00      -96.656      -26.992      -10.221       10.982       10.987        8.695      120.599      120.721       75.602        0.525        0.016      100.355        6.293        0.004      343.075       18.930      862.434
09/04/2013  05:07:00     -107.254       -8.865      -18.888       14.356       12.568        7.278      206.101      157.960       52.964        0.618        0.021      107.620        6.191        0.003      343.083       18.944      862.431
09/04/2013  05:08:00      -44.436      -35.153       -8.415       43.036       20.629       14.933     1852.134      425.555      222.990        0.289        0.125       56.659        6.255        0.012      343.011       18.822      862.438
09/04/2013  05:09:00      -23.177      -27.546       -6.896       23.460       20.791       12.401      550.352      432.262      153.787        0.124        0.057       35.999        7.882        0.048      342.985       18.778      862.462
09/04/2013  05:10:00      -28.962      -18.539        7.285       32.823       20.049       16.721     1077.370      401.965      279.607        0.150        0.088       34.388       16.982        0.244      342.948       18.716      862.460
09/04/2013  05:11:00      -71.577      -64.271      -11.147       21.435       12.419       10.625      459.454      154.239      112.885        0.505        0.036       96.198        9.271        0.009      343.093       18.963      862.468
09/04/2013  05:12:00      -33.077      -48.799       11.115       44.050       37.611       20.407     1940.424     1414.555      416.463        0.368        0.189       58.953       25.260        0.184      342.978       18.766      862.495
09/04/2013  05:13:00      -54.184      -90.205       -7.058       22.147       48.632       20.041      490.495     2365.055      401.628        0.719        0.163      105.228        6.203        0.003      343.137       19.037      862.503
09/04/2013  05:14:00      -92.860      -38.140       -7.257       30.131       27.122       15.357      907.871      735.578      235.841        0.600        0.094      100.387        9.996        0.010      343.006       18.814      862.497
09/04/2013  05:15:00      -63.071      -43.930       -4.502       41.659       29.686       16.107     1735.504      881.277      259.437        0.440        0.144       76.862       14.493        0.036      342.962       18.737      862.500
09/04/2013  05:16:00      -71.058      -28.376       -4.766       19.600       16.483       12.261      384.173      271.684      150.339        0.334        0.040       76.514        8.102        0.011      342.900       18.635      862.508
09/04/2013  05:17:00      -64.677      -19.490      -12.188       30.192       15.231       12.430      911.558      231.990      154.517        0.300        0.065       67.549       14.471        0.046      342.902       18.636      862.512
09/04/2013  05:18:00      -54.878      -20.481        0.177       43.765       14.114       14.682     1915.336      199.208      215.549        0.288        0.117       58.575       20.955        0.128      342.880       18.597      862.519
09/04/2013  05:19:00     -116.396      -43.671       -9.379       17.115       18.390       11.511      292.907      338.193      132.511        0.815        0.038      124.319        7.699        0.004      342.897       18.628      862.535
09/04/2013  05:20:00      -75.865      -35.213       -8.079       24.604       15.935       12.371      605.358      253.917      153.037        0.404        0.051       83.639       10.843        0.017      342.875       18.592      862.552
09/04/2013  05:21:00      -93.403      -35.989       -9.712       11.080       17.031       10.206      122.775      290.040      104.164        0.532        0.026      100.097        5.277        0.003      342.910       18.649      862.564
09/04/2013  05:22:00      -79.824      -25.769       -9.293       12.411       16.374       11.996      154.023      268.100      143.916        0.384        0.028       83.880        6.726        0.006      342.909       18.648      862.572
09/04/2013  05:23:00      -74.493      -12.354      -10.088       15.271       12.594        9.625      233.189      158.619       92.646        0.314        0.024       75.510        7.577        0.010      342.872       18.586      862.569
09/04/2013  05:24:00     -110.472      -36.757       -9.221       18.503       12.326        9.343      342.353      151.939       87.291        0.711        0.029      116.427        7.745        0.004      342.877       18.595      862.587
09/04/2013  05:25:00     -106.805      -50.056       -2.427       34.887       19.266       12.053     1217.070      371.195      145.283        0.783        0.087      117.953       14.354        0.015      342.822       18.502      862.603
09/04/2013  05:26:00     -122.420      -27.592      -12.634       17.966       14.383        9.257      322.766      206.870       85.694        0.826        0.031      125.491        4.565        0.001      342.770       18.412      862.611
09/04/2013  05:27:00      -86.371      -49.123       -3.502       29.735       23.150       16.832      884.171      535.906      283.309        0.579        0.085       99.363        7.599        0.006      342.755       18.386      862.613
09/04/2013  05:28:00      -78.117      -34.430       -7.311       23.270       23.589       12.178      541.501      556.452      148.314        0.429        0.062       85.368        9.833        0.013      342.758       18.390      862.622
09/04/2013  05:29:00      -82.634      -27.342      -11.752       15.035       17.157       11.400      226.062      294.368      129.953        0.418        0.033       87.040        7.115        0.007      342.803       18.468      862.630
09/04/2013  05:30:00      -99.120      -38.975       -7.724       18.217       15.792        9.497      331.846      249.391       90.201        0.604        0.034      106.507        7.738        0.005      342.857       18.560      862.629
09/04/2013  05:31:00      -98.939      -53.150      -12.671       20.750       16.886       14.664      430.544      285.123      215.028        0.685        0.047      112.311       10.024        0.008      342.816       18.490      862.628
09/04/2013  05:32:00      -82.397      -56.755        0.842       36.286       31.764       23.993     1316.641     1008.946      575.683        0.646        0.145      100.052       11.834        0.014      342.726       18.337      862.641
09/04/2013  05:33:00     -124.416      -40.480       -4.900       28.930       20.484       17.013      836.926      419.600      289.431        0.934        0.077      130.836       17.334        0.018      342.666       18.235      862.642
09/04/2013  05:34:00      -76.897       -9.316        3.046       25.059       24.168       16.979      627.970      584.085      288.286        0.375        0.075       77.459       12.503        0.026      342.619       18.156      862.633
09/04/2013  05:35:00      -79.149      -36.063       -6.632       26.156       14.969       15.277      684.122      224.071      233.385        0.438        0.057       86.977       15.078        0.030      342.666       18.235      862.626
09/04/2013  05:36:00     -100.521      -47.731       -9.556       22.117       16.554       12.895      489.142      274.028      166.288        0.670        0.046      111.277        6.691        0.004      342.660       18.225      862.613
09/04/2013  05:37:00      -60.880      -33.980        1.541       30.918       24.181       16.143      955.949      584.704      260.592        0.333        0.090       69.721       14.052        0.041      342.603       18.128      862.606
09/04/2013  05:38:00      -75.282      -40.145       -3.944       21.136       29.268       15.943      446.734      856.622      254.164        0.443        0.078       85.317       13.282        0.024      342.731       18.344      862.597
09/04/2013  05:39:00      -59.077      -52.115        4.018       36.765       24.529       23.893     1351.672      601.683      570.886        0.437        0.126       78.779       24.306        0.095      342.763       18.399      862.610
09/04/2013  05:40:00      -13.481      -25.984        8.353       53.358       43.396       23.667     2847.083     1883.230      560.134        0.311        0.265       29.273       18.697        0.408      342.608       18.138      862.616
09/04/2013  05:41:00        5.913      -68.960      -11.997       52.157       31.751       24.665     2720.358     1008.115      608.345        0.463        0.217       69.213       21.711        0.098      342.526       17.996      862.648
09/04/2013  05:42:00     -108.505      -80.529      -14.789       52.450       50.439       32.019     2751.032     2544.134     1025.245        1.240        0.316      135.123       23.803        0.031      342.674       18.248      862.661
09/04/2013  05:43:00     -113.995      -90.430       -8.816       55.226       44.782       22.249     3049.945     2005.415      495.026        1.340        0.278      145.508       19.872        0.019      342.633       18.176      862.655
09/04/2013  05:44:00     -110.333      -42.191      -15.527       26.426       28.433       14.106      698.339      808.462      198.987        0.795        0.085      118.125       10.729        0.008      342.580       18.092      862.624
09/04/2013  05:45:00      -64.963      -41.138      -18.076       31.117       15.296       11.228      968.266      233.982      126.068        0.378        0.066       76.893        7.725        0.010      342.630       18.174      862.639
09/04/2013  05:46:00      -71.587      -37.234       -9.741       17.484       15.060       13.466      305.706      226.819      181.346        0.366        0.036       80.691        6.056        0.006      342.617       18.151      862.653
09/04/2013  05:47:00      -77.763      -43.395       -6.512       17.934       19.429        8.150      321.637      377.467       66.425        0.437        0.038       89.052        6.713        0.006      342.560       18.055      862.660
09/04/2013  05:48:00      -85.456      -39.026       -3.546       12.664       17.756       11.172      160.387      315.259      124.812        0.472        0.030       93.945        8.031        0.007      342.546       18.032      862.662
09/04/2013  05:49:00     -104.413      -40.689       -6.823       26.365       16.404       10.618      695.101      269.082      112.737        0.684        0.054      112.061        7.393        0.004      342.551       18.040      862.654
09/04/2013  05:50:00      -87.847      -54.836       -9.381       32.797       26.369       19.483     1075.615      695.343      379.603        0.648        0.108      103.557       13.085        0.016      342.561       18.057      862.661
09/04/2013  05:51:00     -107.762      -69.662       -5.578       23.079       15.739       10.640      532.652      247.720      113.215        0.869        0.045      128.318        7.026        0.003      342.534       18.011      862.659
09/04/2013  05:52:00      -79.219      -52.262       -4.325       30.881       20.543       15.472      953.611      422.017      239.387        0.532        0.081       94.905       15.732        0.027      342.559       18.052      862.653
09/04/2013  05:53:00      -62.027      -37.776       -3.736       33.540       21.232       15.029     1124.927      450.782      225.882        0.354        0.090       72.625        4.444        0.004      342.603       18.129      862.642
09/04/2013  05:54:00      -28.977      -17.509       -1.239       16.247       11.951       10.297      263.977      142.826      106.025        0.083        0.026       33.857        7.301        0.046      342.586       18.098      862.643
09/04/2013  05:55:00      -78.292       -4.590      -12.417       23.464       17.994       13.150      550.543      323.775      172.929        0.368        0.052       78.427        7.259        0.009      342.760       18.394      862.630
09/04/2013  05:56:00      -49.568      -39.954       -6.817       49.851       19.701       18.737     2485.104      388.149      351.070        0.366        0.161       63.666       26.351        0.171      342.696       18.286      862.624
09/04/2013  05:57:00      -55.980      -34.925       -3.934       33.795       14.180       12.889     1142.115      201.076      166.132        0.294        0.075       65.981       15.628        0.056      342.637       18.185      862.625
09/04/2013  05:58:00      -51.522      -39.576       -4.041       23.106       18.046       16.082      533.894      325.656      258.638        0.268        0.056       64.967        8.895        0.019      342.594       18.111      862.629
09/04/2013  05:59:00      -47.843      -41.654       -1.907       22.772       15.224       10.527      518.546      231.783      110.811        0.244        0.043       63.435        9.202        0.021      342.593       18.112      862.624
09/04/2013  06:00:00      -59.581      -29.094       -6.008       10.017        5.941        5.800      100.347       35.293       33.641        0.230        0.008       66.305        4.077        0.004      342.635       18.182      862.627
09/04/2013  06:01:00      -55.000      -30.899       -7.627       13.717       13.845        8.054      188.151      191.693       64.862        0.224        0.022       63.085        5.106        0.007      342.708       18.307      862.625
09/04/2013  06:02:00      -66.659      -37.217       -8.019       23.469       17.209       16.528      550.774      296.162      273.159        0.351        0.056       76.345       16.523        0.047      342.638       18.188      862.633
09/04/2013  06:03:00      -17.359       -8.942       -0.843       19.190       15.324       13.382      368.272      234.828      179.072        0.058        0.039       19.527        9.117        0.218      342.556       18.048      862.638
09/04/2013  06:04:00      -82.142      -20.951      -12.868       29.214       11.353       10.357      853.431      128.882      107.266        0.422        0.054       84.771       13.315        0.025      342.682       18.262      862.625
09/04/2013  06:05:00      -51.212      -32.712       -7.824       41.408       11.269       13.565     1714.635      126.985      183.999        0.289        0.101       60.768       18.596        0.094      342.681       18.260      862.620
09/04/2013  06:06:00      -30.412      -18.053       -9.014       33.525       13.465       13.226     1123.934      181.319      174.917        0.141        0.074       35.367       13.258        0.141      342.710       18.309      862.631
09/04/2013  06:07:00      -98.264      -40.226      -17.824       19.660       14.000       10.180      386.519      196.000      103.640        0.614        0.034      106.179        7.915        0.006      342.750       18.379      862.627
09/04/2013  06:08:00     -110.636      -33.670       -6.616       29.625       20.875       17.322      877.652      435.768      300.050        0.752        0.081      115.646       14.154        0.015      342.540       18.021      862.649
09/04/2013  06:09:00      -70.663      -38.886       -3.732       30.867       21.384       17.956      952.790      457.280      322.412        0.413        0.087       80.656       15.084        0.035      342.466       17.895      862.664
09/04/2013  06:10:00     -110.234      -45.989       -8.629       21.079       21.090       14.507      444.313      444.788      210.441        0.772        0.055      119.442        8.479        0.005      342.471       17.903      862.681
09/04/2013  06:11:00     -104.433      -27.526      -12.099       15.710       19.955       12.284      246.819      398.217      150.900        0.630        0.040      107.999        6.545        0.004      342.659       18.222      862.695
09/04/2013  06:12:00     -114.914      -35.900      -10.112       41.784       30.278       18.815     1745.901      916.782      353.992        0.881        0.151      120.391       18.431        0.023      342.543       18.026      862.706
09/04/2013  06:13:00      -80.469      -42.887        4.334       56.882       27.488       21.700     3235.566      755.584      470.878        0.640        0.223       91.184       14.053        0.024      342.404       17.788      862.717
09/04/2013  06:14:00     -142.428      -48.080       -8.126       33.936       27.779       18.594     1151.622      771.654      345.724        1.247        0.113      150.324       10.883        0.005      342.361       17.717      862.724
09/04/2013  06:15:00     -151.354      -44.520      -15.292       35.516       31.270       19.334     1261.375      977.841      373.818        1.387        0.131      157.766       19.702        0.016      342.346       17.692      862.725
09/04/2013  06:16:00     -126.758       -7.636       -5.652       34.998       31.962       22.670     1224.892     1021.591      513.946        0.946        0.138      126.988       17.456        0.019      342.462       17.888      862.720
09/04/2013  06:17:00      -64.555        4.975       16.005       50.802       43.258       30.919     2580.846     1871.214      956.007        0.493        0.270       64.746       28.508        0.194      342.542       18.024      862.698
09/04/2013  06:18:00      -54.335       -0.902        6.137       31.257       39.340       23.376      976.998     1547.623      546.446        0.303        0.154       54.342       17.940        0.109      342.560       18.056      862.683
09/04/2013  06:19:00      -60.968      -16.826        9.790       63.957       62.574       27.320     4090.451     3915.564      746.407        0.642        0.438       63.247       30.690        0.235      342.581       18.091      862.684
09/04/2013  06:20:00     -116.638       23.012       -6.624       65.206       55.449       34.420     4251.778     3074.600     1184.735        1.134        0.426      118.886       35.211        0.088      342.781       18.430      862.687
09/04/2013  06:21:00      -66.379      -23.467        1.076       52.724       43.319       25.761     2779.775     1876.530      663.634        0.514        0.266       70.405       27.651        0.154      342.552       18.042      862.690
09/04/2013  06:22:00      -42.915      -26.809      -11.067       44.700       31.326       19.396     1998.054      981.307      376.196        0.302        0.168       50.600       18.498        0.134      342.497       17.949      862.692
09/04/2013  06:23:00      -22.574       -4.116       -2.320       28.917       20.932       18.230      836.183      438.140      332.342        0.107        0.080       22.946        9.780        0.182      342.466       17.895      862.695
09/04/2013  06:24:00      -32.671      -20.232       -6.933       31.809       22.527       18.770     1011.784      507.466      352.311        0.170        0.094       38.428       14.370        0.140      342.467       17.897      862.691
09/04/2013  06:25:00      -21.813       -8.954        1.899       29.611       23.455       16.830      876.817      550.159      283.238        0.113        0.086       23.579       14.501        0.378      342.477       17.914      862.688
09/04/2013  06:26:00        8.064       11.150       19.948       22.789       13.134       17.083      519.357      172.496      291.836        0.079        0.049       13.760        9.073        0.435      342.461       17.888      862.693
09/04/2013  06:27:00       26.322        4.398       32.029       22.751        8.814       13.489      517.608       77.692      181.940        0.126        0.039       26.686        9.163        0.118      342.467       17.896      862.707
09/04/2013  06:28:00       22.514       -8.798       -0.882       15.930       17.824       13.956      253.767      317.712      194.760        0.068        0.038       24.172       10.586        0.192      342.578       18.086      862.712
09/04/2013  06:29:00       25.281      -50.212       -4.914       15.172       15.553       16.535      230.197      241.904      273.406        0.196        0.037       56.217        9.716        0.030      342.605       18.131      862.727
09/04/2013  06:30:00      -14.271      -18.955       -9.380       21.887       18.083       15.571      479.040      326.992      242.470        0.085        0.052       23.727       12.309        0.269      342.509       17.967      862.731
09/04/2013  06:31:00      -77.078      -40.274       -9.338       48.054       21.178       14.241     2309.152      448.500      202.812        0.530        0.148       86.966       20.091        0.053      342.489       17.936      862.735
09/04/2013  06:32:00      -93.052      -54.257       -4.031       33.588       17.465       14.137     1128.142      305.011      199.858        0.663        0.082      107.715        4.834        0.002      342.440       17.853      862.744
09/04/2013  06:33:00      -79.178      -58.919        5.287       44.468       40.175       26.016     1977.392     1614.041      676.813        0.702        0.213       98.694       24.399        0.061      342.451       17.869      862.762
09/04/2013  06:34:00      -90.011      -90.078       -4.538       31.809       23.787       21.092     1011.833      565.826      444.892        0.913        0.101      127.342       18.610        0.021      342.471       17.902      862.789
09/04/2013  06:35:00      -51.944      -40.378       -0.142       37.290       22.342       14.755     1390.563      499.156      217.707        0.322        0.105       65.792       12.990        0.039      342.513       17.975      862.803
09/04/2013  06:36:00      -96.538      -75.348       -6.463       41.516       35.441       17.354     1723.606     1256.097      301.168        0.916        0.164      122.462       13.892        0.013      342.519       17.985      862.808
09/04/2013  06:37:00     -151.524      -84.477       -9.518       43.602       58.145       27.866     1901.093     3380.856      776.495        1.812        0.303      173.482       21.834        0.016      342.409       17.796      862.802
09/04/2013  06:38:00     -155.538     -114.338       -3.767       52.950       57.605       35.117     2803.739     3318.302     1233.192        2.232        0.368      193.042       30.194        0.024      342.254       17.534      862.801
09/04/2013  06:39:00     -130.578      -65.694       -3.198       53.914       40.545       23.568     2906.698     1643.896      555.438        1.324        0.255      146.172       19.716        0.018      342.284       17.584      862.815
09/04/2013  06:40:00       -9.256      -40.074        5.807       30.602       19.437       21.243      936.501      377.804      451.265        0.175        0.088       41.129       19.061        0.215      342.294       17.602      862.830
09/04/2013  06:41:00      -16.149      -55.441        6.393       21.366       19.656       14.265      456.487      386.372      203.486        0.221        0.052       57.746       12.657        0.048      342.376       17.742      862.845
09/04/2013  06:42:00      -38.179      -79.548       -1.019       14.715       34.812       11.249      216.524     1211.871      126.543        0.467        0.078       88.236       15.670        0.032      342.393       17.771      862.863
09/04/2013  06:43:00      -91.528      -62.651       -1.534       29.195       34.650       17.327      852.374     1200.634      300.228        0.733        0.118      110.917        9.101        0.007      342.360       17.715      862.865
09/04/2013  06:44:00     -125.736      -79.777       -1.477       62.970       37.936       28.761     3965.158     1439.110      827.169        1.420        0.312      148.909       17.968        0.015      342.245       17.519      862.856
09/04/2013  06:45:00     -132.096      -75.966       -7.032       70.344       36.136       33.568     4948.288     1305.787     1126.813        1.532        0.369      152.382       30.853        0.041      342.208       17.456      862.853
09/04/2013  06:46:00     -126.938     -102.407        1.576       36.342       41.806       26.099     1320.716     1747.705      681.133        1.518        0.187      163.096       24.468        0.023      342.161       17.377      862.875
09/04/2013  06:47:00      -68.356      -71.312       -1.599       46.422       37.063       26.404     2154.994     1373.703      697.146        0.699        0.211       98.783       26.767        0.073      342.197       17.438      862.911
09/04/2013  06:48:00      -69.389      -58.373        1.427       35.593       29.408       23.312     1266.850      864.831      543.451        0.545        0.134       90.676       24.671        0.074      342.234       17.500      862.938
09/04/2013  06:49:00      -79.903      -78.197       -1.286       40.779       29.028       21.685     1662.957      842.616      470.259        0.774        0.149      111.800       17.906        0.026      342.270       17.563      862.953
09/04/2013  06:50:00      -93.214      -61.786        3.358       35.392       37.577       21.369     1252.582     1412.023      456.647        0.782        0.156      111.832       15.736        0.020      342.289       17.594      862.959
09/04/2013  06:51:00     -142.580      -66.921       -1.703       48.723       36.091       26.013     2373.894     1302.594      676.686        1.458        0.218      157.504       25.111        0.025      342.277       17.574      862.963
09/04/2013  06:52:00     -133.809      -61.484       -8.154       49.272       35.516       22.232     2427.769     1261.381      494.240        1.297        0.209      147.259       24.776        0.028      342.293       17.601      862.968
09/04/2013  06:53:00     -111.931      -25.096       -9.100       27.298       19.990       14.283      745.165      399.607      204.003        0.729        0.067      114.709        7.140        0.004      342.417       17.812      862.978
09/04/2013  06:54:00      -70.914      -40.363      -11.552       22.057       19.036       11.502      486.508      362.352      132.307        0.389        0.049       81.596        9.125        0.013      342.507       17.965      862.993
09/04/2013  06:55:00      -68.964      -47.021       -9.136       17.315       14.320       11.209      299.819      205.059      125.634        0.384        0.032       83.469        8.378        0.010      342.372       17.735      863.008
09/04/2013  06:56:00      -60.113      -41.511        1.167       42.145       27.651       19.093     1776.198      764.585      364.540        0.412        0.145       73.053       16.340        0.050      342.342       17.684      863.019
09/04/2013  06:57:00      -82.151      -47.571       -5.746       50.960       30.043       27.871     2596.931      902.576      776.777        0.666        0.214       94.931       26.413        0.077      342.388       17.762      863.028
09/04/2013  06:58:00     -157.184      -89.503       -4.719       43.416       35.715       31.479     1884.914     1275.569      990.941        1.844        0.208      180.881       24.549        0.018      342.390       17.764      863.020
09/04/2013  06:59:00     -136.984      -83.396       -3.797       55.035       40.482       26.194     3028.827     1638.805      686.117        1.554        0.268      160.373       24.113        0.023      342.278       17.575      863.005
09/04/2013  07:00:00     -105.176      -50.527        2.478       38.502       33.086       21.156     1482.397     1094.683      447.595        0.832        0.151      116.683       21.358        0.034      342.338       17.677      863.010
09/04/2013  07:01:00      -77.977      -21.992       -3.549       45.509       27.938       22.050     2071.085      780.534      486.220        0.496        0.167       81.019       26.797        0.109      342.463       17.889      863.016
09/04/2013  07:02:00      -43.635      -21.716        1.145       20.555       16.454       11.156      422.508      270.741      124.459        0.160        0.041       48.740        9.177        0.035      342.511       17.971      863.026
09/04/2013  07:03:00      -56.399      -23.168       -2.859       21.593       11.729       10.398      466.250      137.558      108.127        0.222        0.036       60.972       10.717        0.031      342.495       17.946      863.036
09/04/2013  07:04:00      -61.686       19.311       -8.655       24.139       37.275       15.738      582.671     1389.399      247.687        0.324        0.111       64.638       14.246        0.049      342.680       18.257      863.036
09/04/2013  07:05:00      -56.979       26.676      -11.011       28.427       28.670       15.817      808.074      821.955      250.185        0.298        0.094       62.914        8.727        0.019      342.818       18.492      863.017
09/04/2013  07:06:00      -72.041      -21.696      -16.943       27.051       33.837       17.368      731.749     1144.959      301.650        0.406        0.109       75.238       14.058        0.035      342.708       18.307      863.013
09/04/2013  07:07:00      -47.640      -32.487       -5.121       28.721       17.946       12.974      824.885      322.075      168.314        0.233        0.066       57.663       14.738        0.065      342.602       18.128      863.028
09/04/2013  07:08:00       -1.294      -30.713        7.090       38.026       24.517       23.686     1445.980      601.095      561.035        0.180        0.130       30.740       15.809        0.264      342.584       18.098      863.042
09/04/2013  07:09:00      -58.290      -33.593       -5.134       13.494       13.176        8.236      182.075      173.602       67.838        0.249        0.021       67.278        6.007        0.008      342.564       18.063      863.048
09/04/2013  07:10:00      -70.411      -21.935      -10.310        6.293        9.445        6.373       39.601       89.213       40.619        0.286        0.008       73.748        2.482        0.001      342.521       17.992      863.054
09/04/2013  07:11:00      -68.526      -44.235      -11.209       11.046       10.685       11.720      122.009      114.164      137.361        0.358        0.019       81.563        6.540        0.006      342.589       18.103      863.065
09/04/2013  07:12:00       -3.943      -33.964       -0.469       34.498       21.859       13.461     1190.114      477.809      181.200        0.151        0.092       34.192       15.695        0.211      342.683       18.264      863.099
09/04/2013  07:13:00      -26.315      -38.791       -0.530       20.244       24.450       15.024      409.825      597.814      225.709        0.172        0.062       46.874       11.409        0.059      342.711       18.312      863.111
09/04/2013  07:14:00      -46.357      -13.923       -4.059       13.525       11.646        5.495      182.934      135.638       30.198        0.135        0.017       48.403        6.655        0.019      342.734       18.350      863.095
09/04/2013  07:15:00      -92.643      -35.408      -13.722       12.024        9.111        6.684      144.574       83.019       44.676        0.515        0.014       99.179        5.685        0.003      342.750       18.380      863.086
09/04/2013  07:16:00      -37.777      -48.045        0.888       40.328       20.368       17.881     1626.353      414.855      319.742        0.305        0.118       61.118       19.056        0.097      342.726       18.337      863.102
09/04/2013  07:17:00      -20.661      -39.079        4.895       33.455       18.841       18.104     1119.266      354.967      327.755        0.189        0.090       44.205       19.943        0.204      342.699       18.290      863.111
09/04/2013  07:18:00      -46.021      -31.436       -0.655       20.640       14.603        8.846      425.989      213.254       78.248        0.191        0.036       55.733        7.998        0.021      342.689       18.273      863.097
09/04/2013  07:19:00      -73.137      -26.927       -7.738       14.197        8.478        6.580      201.550       71.881       43.295        0.323        0.016       77.936        4.505        0.003      342.702       18.297      863.081
09/04/2013  07:20:00      -89.223      -36.406      -10.507        8.782       11.564        5.485       77.126      133.737       30.085        0.482        0.012       96.365        2.460        0.001      342.697       18.288      863.075
09/04/2013  07:21:00      -51.638      -40.183       -1.236       43.803       26.276       19.060     1918.682      690.424      363.281        0.363        0.149       65.430       16.139        0.061      342.696       18.286      863.098
09/04/2013  07:22:00      -74.477      -75.435        1.673       47.780       40.377       23.579     2282.935     1630.306      555.948        0.785        0.223      106.006       29.835        0.079      342.647       18.202      863.119
09/04/2013  07:23:00      -43.326      -59.155       -6.013       49.394       32.597       20.586     2439.778     1062.543      423.779        0.467        0.196       73.324       22.501        0.094      342.671       18.243      863.117
09/04/2013  07:24:00       -0.512       15.737       22.775       14.442       13.322       16.751      208.584      177.475      280.591        0.072        0.033       15.746       11.328        0.518      342.960       18.736      863.119
09/04/2013  07:25:00        4.317       -1.096        7.604       17.103       23.044       18.117      292.524      531.012      328.212        0.061        0.058        4.454       15.912       12.764      342.812       18.483      863.109
09/04/2013  07:26:00       22.160       28.157       -0.530       24.404       21.656       20.230      595.569      468.992      409.270        0.138        0.074       35.831       16.106        0.202      343.212       19.164      863.088
09/04/2013  07:27:00      -25.006        9.079       -1.705       25.474       17.740       10.985      648.919      314.701      120.678        0.090        0.054       26.604       10.102        0.144      343.223       19.184      863.085
09/04/2013  07:28:00      -62.412      -25.315      -13.973       12.670       12.650        8.702      160.531      160.012       75.724        0.256        0.020       67.351        6.386        0.009      342.815       18.487      863.069
09/04/2013  07:29:00      -33.372      -38.961       -8.696       20.669       11.247       12.738      427.188      126.497      162.251        0.171        0.036       51.300        5.943        0.013      342.879       18.599      863.071
09/04/2013  07:30:00       -1.844      -42.139       -5.942       17.413       19.133       10.754      303.199      366.085      115.653        0.130        0.039       42.180       11.139        0.070      342.964       18.741      863.069
09/04/2013  07:31:00      -29.574      -36.195      -13.457       16.054       21.130       11.417      257.718      446.498      130.343        0.160        0.042       46.741        9.088        0.038      343.019       18.838      863.077
09/04/2013  07:32:00      -65.996      -24.322       -4.049       23.599        9.113       10.561      556.899       83.046      111.529        0.286        0.038       70.335       10.512        0.022      343.016       18.832      863.071
09/04/2013  07:33:00      -82.462      -56.292       -2.272       33.931       16.843       17.486     1151.318      283.684      305.767        0.586        0.087       99.844       18.101        0.033      342.971       18.753      863.066
09/04/2013  07:34:00      -86.320      -62.278       -1.667       23.582       24.653       13.604      556.107      607.785      185.056        0.634        0.067      106.441       13.225        0.015      343.037       18.866      863.068
09/04/2013  07:35:00      -43.343      -67.582        5.108       51.017       28.298       25.139     2602.737      800.793      631.988        0.525        0.202       80.286       22.179        0.076      343.076       18.932      863.078
09/04/2013  07:36:00      -68.183      -45.683       -1.288       36.753       14.345       14.798     1350.789      205.776      218.994        0.426        0.089       82.072       16.021        0.038      342.980       18.771      863.091
09/04/2013  07:37:00      -17.431      -21.876       12.640       13.090       17.121       14.747      171.336      293.132      217.482        0.081        0.034       27.971        9.511        0.116      343.116       19.001      863.108
09/04/2013  07:38:00      -14.439      -30.167       -5.267        8.322       13.359       10.639       69.259      178.457      113.188        0.075        0.018       33.445        8.769        0.069      343.181       19.112      863.121
09/04/2013  07:39:00      -42.182      -28.740       -4.526       10.009       12.244        5.811      100.187      149.912       33.773        0.145        0.014       51.043        4.282        0.007      343.196       19.139      863.130
09/04/2013  07:40:00      -65.989      -18.820       -7.189        7.548       10.574        6.436       56.972      111.816       41.427        0.249        0.011       68.620        5.993        0.008      343.165       19.085      863.129
09/04/2013  07:41:00      -58.563      -34.492       -7.227       14.241       10.951        7.778      202.806      119.919       60.494        0.253        0.019       67.966        5.930        0.008      343.160       19.076      863.127
09/04/2013  07:42:00      -22.385      -27.412       -5.787       13.983        9.522        6.413      195.517       90.674       41.123        0.081        0.016       35.391        5.532        0.024      343.195       19.136      863.124
09/04/2013  07:43:00      -26.508      -14.360       -2.369       11.069        6.776        8.738      122.528       45.916       76.347        0.058        0.012       30.148        4.545        0.023      343.295       19.305      863.132
09/04/2013  07:44:00        2.218        4.026        1.480        9.451       12.654        8.541       89.320      160.114       72.956        0.017        0.016        4.597        6.654        2.095      343.532       19.709      863.142
09/04/2013  07:45:00       49.737       52.712       10.006       14.448       16.379       19.722      208.748      268.268      388.957        0.311        0.043       72.472       11.709        0.026      343.382       19.453      863.149
09/04/2013  07:46:00       47.479       58.988        3.885       12.767        6.626        9.221      163.001       43.908       85.030        0.302        0.015       75.722        5.759        0.006      343.360       19.418      863.134
09/04/2013  07:47:00        8.611       36.810       -2.581       11.487        9.902       11.521      131.948       98.045      132.724        0.090        0.018       37.804        4.045        0.011      343.511       19.674      863.111
09/04/2013  07:48:00        7.453       13.392       12.953       16.671       12.687       11.051      277.920      160.965      122.118        0.048        0.028       15.327       10.325        0.454      343.783       20.138      863.118
09/04/2013  07:49:00        2.705        2.435       23.650       11.519       11.825       10.342      132.697      139.827      106.948        0.048        0.019        3.639        6.838        3.530      343.963       20.446      863.151
09/04/2013  07:50:00       -7.457      -19.027       25.038       16.624       23.976       15.106      276.361      574.868      228.189        0.106        0.054       20.436       10.953        0.287      343.817       20.196      863.158
09/04/2013  07:51:00        4.186      -38.339       -2.373        9.747       24.451       12.259       95.005      597.871      150.293        0.117        0.042       38.567        5.743        0.022      343.712       20.016      863.161
09/04/2013  07:52:00        2.625      -10.036        6.048        8.716       14.682       16.397       75.962      215.569      268.858        0.035        0.028       10.374       13.216        1.623      343.877       20.299      863.163
09/04/2013  07:53:00      -22.037        4.401       19.195       10.730        6.045        5.236      115.141       36.538       27.411        0.053        0.009       22.472        4.139        0.034      343.810       20.184      863.157
09/04/2013  07:54:00      -14.363       -2.804       10.889       14.039        5.565        9.712      197.091       30.971       94.332        0.033        0.016       14.634       10.493        0.514      344.076       20.639      863.171
09/04/2013  07:55:00      -16.418       -1.322       -4.871       11.215        7.682        9.115      125.774       59.008       83.092        0.028        0.013       16.472        3.680        0.050      343.822       20.206      863.182
09/04/2013  07:56:00      -39.898      -13.714        0.905       15.624        9.161        9.157      244.094       83.927       83.858        0.110        0.021       42.189        8.670        0.042      343.647       19.907      863.186
09/04/2013  07:57:00       -7.884      -12.859       10.085       19.349       11.617        7.310      374.365      134.959       53.440        0.045        0.028       15.084        8.514        0.319      343.820       20.201      863.207
09/04/2013  07:58:00        5.118       -7.064       13.712       10.171       11.032       13.429      103.458      121.695      180.327        0.033        0.020        8.724       10.419        1.426      344.159       20.781      863.220
09/04/2013  07:59:00       -5.506       -5.716        9.473        7.581        9.178        9.422       57.468       84.242       88.779        0.019        0.012        7.936        4.071        0.263      344.103       20.684      863.229
09/04/2013  08:00:00       -1.672       11.972       11.814        9.744       12.370       15.346       94.951      153.011      235.499        0.038        0.024       12.088       11.045        0.835      344.196       20.844      863.228
09/04/2013  08:01:00        3.960        7.734       17.924       10.652       11.499        8.742      113.464      132.221       76.424        0.036        0.016        8.689        6.069        0.488      344.262       20.957      863.236
09/04/2013  08:02:00        6.686       28.387        5.844        9.577       11.837       17.299       91.711      140.125      299.239        0.071        0.027       29.163        7.337        0.063      344.050       20.595      863.244
09/04/2013  08:03:00        9.730       15.401       21.100       12.783       16.345       12.359      163.406      267.170      152.746        0.068        0.029       18.217       10.707        0.345      344.286       20.996      863.257
09/04/2013  08:04:00       -1.523       -4.671       23.962       12.433       12.827        9.538      154.581      164.533       90.982        0.050        0.021        4.913        3.390        0.476      344.483       21.335      863.275
09/04/2013  08:05:00      -15.538      -32.051       22.615       14.110       22.899       15.141      199.080      524.376      229.254        0.137        0.048       35.619        9.981        0.079      344.243       20.924      863.289
09/04/2013  08:06:00       30.379       13.838       17.801       33.065       23.876       15.314     1093.278      570.043      234.524        0.166        0.095       33.382       18.319        0.301      344.335       21.080      863.289
09/04/2013  08:07:00       35.035       16.238       14.012       23.101       21.149       15.844      533.663      447.276      251.042        0.146        0.062       38.615        9.449        0.060      344.198       20.847      863.290
09/04/2013  08:08:00       37.491       29.490        1.517       22.614       18.098       13.472      511.391      327.534      181.502        0.165        0.051       47.700       13.017        0.074      344.162       20.787      863.295
09/04/2013  08:09:00       53.298       38.924       11.908       16.850       22.233       19.902      283.913      494.312      396.082        0.284        0.059       65.998       13.435        0.041      344.213       20.872      863.283
09/04/2013  08:10:00       48.776       37.396       -4.207       31.938       21.671       23.588     1020.065      469.643      556.407        0.292        0.102       61.462        9.255        0.023      344.184       20.823      863.274
09/04/2013  08:11:00       48.726       41.668       24.187       14.625       14.580       18.914      213.898      212.571      357.736        0.274        0.039       64.113        8.198        0.016      344.219       20.882      863.285
09/04/2013  08:12:00       11.495        4.555       12.973       22.651       28.385       18.044      513.067      805.713      325.591        0.098        0.082       12.364       16.477        1.776      344.436       21.253      863.291
09/04/2013  08:13:00       10.552        5.804       15.866       14.125       21.807       11.906      199.508      475.560      141.760        0.061        0.041       12.043       10.352        0.739      344.616       21.561      863.284
09/04/2013  08:14:00       30.069       35.231       -0.038       11.278       24.225       14.009      127.184      586.868      196.245        0.153        0.046       46.318       13.383        0.083      344.346       21.100      863.274
09/04/2013  08:15:00       46.641       26.709       16.669       27.474       18.490       17.422      754.819      341.886      303.512        0.228        0.070       53.748        7.208        0.018      344.517       21.392      863.267
09/04/2013  08:16:00       49.800       12.911       19.040       22.489       16.503       19.990      505.738      272.361      399.612        0.209        0.059       51.446       11.955        0.054      344.591       21.520      863.277
09/04/2013  08:17:00       36.143       47.182        9.088       32.354       26.243       24.547     1046.754      688.698      602.570        0.298        0.117       59.435       18.570        0.098      344.449       21.276      863.293
09/04/2013  08:18:00        2.492      -14.285       18.847       19.268       41.212       19.189      371.275     1698.388      368.218        0.150        0.122       14.501       16.722        1.330      344.653       21.626      863.306
09/04/2013  08:19:00       12.650       23.669       21.619       20.453       38.088       15.222      418.315     1450.699      231.708        0.164        0.105       26.837       11.186        0.174      344.539       21.431      863.303
09/04/2013  08:20:00       -7.556       -4.086       11.961       10.285       18.862       13.017      105.784      355.776      169.446        0.042        0.032        8.590        4.973        0.335      344.741       21.777      863.295
09/04/2013  08:21:00       12.548       -4.738       16.666       23.277       31.310       15.828      541.800      980.340      250.536        0.111        0.089       13.413       15.566        1.347      344.750       21.791      863.296
09/04/2013  08:22:00       -3.368      -45.615       15.580       13.735       24.630       18.065      188.655      606.641      326.342        0.173        0.056       45.739       13.950        0.093      344.637       21.597      863.307
09/04/2013  08:23:00       -0.690      -20.478       25.717        9.421       25.582       16.156       88.754      654.455      261.022        0.104        0.050       20.489       13.030        0.404      345.021       22.255      863.305
09/04/2013  08:24:00       25.429      -18.962       -0.465       15.099       17.383       19.960      227.985      302.185      398.390        0.097        0.046       31.721       14.302        0.203      344.647       21.613      863.304
09/04/2013  08:25:00        4.999        8.569       21.912       19.661       21.785       20.214      386.537      474.572      408.618        0.092        0.063        9.921       20.653        4.334      345.002       22.223      863.299
09/04/2013  08:26:00        6.229       -5.298       15.563       14.494       12.124       13.813      210.084      146.985      190.792        0.043        0.027        8.178       10.378        1.611      345.115       22.416      863.291
09/04/2013  08:27:00       17.766       21.202       15.923       16.514       17.427       15.747      272.721      303.685      247.982        0.092        0.041       27.661        9.267        0.112      345.002       22.222      863.286
09/04/2013  08:28:00       16.756       -1.662       29.078       22.720       27.953       16.476      516.194      781.363      271.472        0.135        0.078       16.838       13.075        0.603      344.870       21.996      863.290
09/04/2013  08:29:00       16.967       26.823       50.119       21.304       23.637       13.624      453.862      558.688      185.608        0.236        0.060       31.739        6.553        0.043      344.942       22.118      863.299
09/04/2013  08:30:00       39.489       40.317       38.932       35.432       25.383       23.614     1255.409      644.304      557.642        0.358        0.123       56.434       21.258        0.142      344.763       21.813      863.298
09/04/2013  08:31:00       57.672       35.494       -1.697       26.773       25.089       17.153      716.806      629.436      294.241        0.311        0.082       67.719       16.762        0.061      344.631       21.586      863.283
09/04/2013  08:32:00       10.704       40.177        3.684       21.907       27.011       22.821      479.929      729.594      520.820        0.174        0.087       41.578       13.053        0.099      344.900       22.047      863.271
09/04/2013  08:33:00       52.457       27.457        3.157       24.677       19.807       17.846      608.971      392.312      318.496        0.242        0.066       59.208        9.111        0.024      344.668       21.650      863.273
09/04/2013  08:34:00       58.275       27.521        2.002       22.522       21.980       21.447      507.244      483.114      459.959        0.280        0.073       64.447       12.635        0.038      344.601       21.534      863.280
09/04/2013  08:35:00       16.564       27.304       10.868       19.336       20.589       23.551      373.862      423.914      554.672        0.124        0.068       31.936       16.535        0.268      344.788       21.855      863.286
09/04/2013  08:36:00       18.830       28.378       -3.090       14.330       13.296       21.564      205.337      176.779      465.011        0.101        0.042       34.057       11.663        0.117      344.761       21.809      863.287
09/04/2013  08:37:00       33.500       44.940       -5.944       19.649       18.247       18.405      386.088      332.942      338.731        0.212        0.053       56.053        8.233        0.022      344.714       21.728      863.287
09/04/2013  08:38:00       30.694       28.483       24.262       26.111       13.645       20.037      681.805      186.183      401.474        0.181        0.063       41.874       12.772        0.093      345.005       22.226      863.287
09/04/2013  08:39:00       77.401       61.578       34.115       23.559       16.352       21.348      555.039      267.375      455.725        0.611        0.064       98.909       11.989        0.015      344.773       21.829      863.299
09/04/2013  08:40:00       81.375       58.769       25.800       21.083       16.369       23.139      444.503      267.949      535.434        0.599        0.062      100.378        9.929        0.010      344.751       21.791      863.306
09/04/2013  08:41:00       63.346       51.854        8.499       19.378       14.657       21.796      375.520      214.836      475.058        0.392        0.053       81.863       10.712        0.017      344.946       22.125      863.305
09/04/2013  08:42:00       41.339       32.425       31.175       29.003       17.010       21.668      841.176      289.340      469.512        0.267        0.080       52.538       13.392        0.065      345.135       22.449      863.320
09/04/2013  08:43:00       87.084       46.491       11.399       36.660       30.900       27.236     1343.927      954.790      741.779        0.646        0.152       98.717       12.835        0.017      344.953       22.137      863.323
09/04/2013  08:44:00       85.157       44.730        8.879       41.742       33.612       21.847     1742.404     1129.757      477.302        0.634        0.167       96.189       10.893        0.013      344.972       22.171      863.323
09/04/2013  08:45:00       68.946       63.239       11.860       16.472       22.232       25.486      271.338      494.257      649.532        0.515        0.071       93.556       15.049        0.026      344.797       21.870      863.325
09/04/2013  08:46:00       45.480       48.045        8.559       35.703       27.536       30.819     1274.676      758.248      949.827        0.372        0.149       66.157       19.167        0.084      344.934       22.105      863.330
09/04/2013  08:47:00       40.476       40.169        7.644       35.524       21.338       22.716     1261.955      455.294      516.011        0.277        0.112       57.025       12.299        0.047      345.116       22.418      863.331
09/04/2013  08:48:00       44.302       45.891       25.257       30.505       30.216       26.673      930.528      913.029      711.424        0.363        0.128       63.787       16.454        0.067      345.169       22.509      863.333
09/04/2013  08:49:00       41.525       65.888        1.991       41.312       48.968       37.211     1706.702     2397.908     1384.690        0.578        0.274       77.881       31.595        0.165      345.244       22.636      863.345
09/04/2013  08:50:00       50.004       48.837        8.036       40.065       40.864       26.012     1605.200     1669.907      676.622        0.445        0.198       69.896       24.099        0.119      345.236       22.622      863.353
09/04/2013  08:51:00       24.159       17.752       36.224       36.231       37.683       33.691     1312.708     1420.033     1135.082        0.304        0.193       29.980       24.541        0.670      345.582       23.216      863.367
09/04/2013  08:52:00       -4.374       13.345       29.841       20.033       36.561       16.342      401.334     1336.731      267.072        0.155        0.100       14.044       10.485        0.557      345.545       23.153      863.393
09/04/2013  08:53:00       50.959       28.919        9.054       39.294       27.642       26.969     1544.050      764.061      727.308        0.327        0.152       58.593       12.065        0.042      345.346       22.811      863.413
09/04/2013  08:54:00       56.050       51.604        0.398       33.270       24.039       25.256     1106.876      577.867      637.887        0.406        0.116       76.188       17.189        0.051      345.439       22.971      863.430
09/04/2013  08:55:00       54.709       57.271       27.725       39.237       43.830       33.884     1539.548     1921.078     1148.092        0.582        0.230       79.202       22.172        0.078      345.478       23.037      863.453
09/04/2013  08:56:00       67.000       63.351       48.249       42.906       40.331       27.694     1840.960     1626.606      766.949        0.753        0.212       92.209       11.067        0.014      345.332       22.787      863.459
09/04/2013  08:57:00       82.548       53.102       21.730       19.455       17.155       23.739      378.499      294.287      563.549        0.567        0.062       98.153        8.558        0.008      344.944       22.122      863.475
09/04/2013  08:58:00       12.100       16.638        2.331       19.874       19.255       17.087      394.961      370.758      291.976        0.074        0.053       20.573       13.984        0.462      345.450       22.987      863.482
09/04/2013  08:59:00       38.695       37.216        7.567       35.017       21.436       23.519     1226.208      459.503      553.139        0.259        0.112       53.687       14.322        0.071      345.300       22.732      863.475
09/04/2013  09:00:00       65.024       41.814       20.989       30.066       21.036       21.292      903.936      442.503      453.346        0.411        0.090       77.308       10.920        0.020      345.343       22.806      863.478
09/04/2013  09:01:00       59.225       29.019       11.939       39.681       22.168       29.451     1574.571      491.438      867.364        0.371        0.147       65.952       22.997        0.122      345.158       22.488      863.479
09/04/2013  09:02:00       32.230       35.414       17.634       24.501       26.571       30.800      600.310      706.034      948.657        0.243        0.113       47.884       18.206        0.145      345.419       22.935      863.463
09/04/2013  09:03:00       39.643       80.192        1.336       31.471       41.853       31.458      990.398     1751.655      989.606        0.587        0.187       89.455       30.396        0.115      345.412       22.925      863.470
09/04/2013  09:04:00       53.625       66.980        6.341       29.380       33.833       31.069      863.200     1144.656      965.296        0.519        0.149       85.801       24.794        0.084      345.301       22.733      863.474
09/04/2013  09:05:00       70.870       54.210        6.391       45.410       39.163       32.228     2062.110     1533.771     1038.655        0.632        0.232       89.226       24.993        0.078      345.348       22.813      863.474
09/04/2013  09:06:00       44.380       28.214       23.097       57.420       43.291       30.074     3297.041     1874.068      904.461        0.469        0.304       52.589       15.639        0.088      345.576       23.206      863.486
09/04/2013  09:07:00       55.541       54.592       50.573       37.335       23.623       26.037     1393.937      558.034      677.912        0.563        0.131       77.878       10.855        0.019      345.433       22.959      863.495
09/04/2013  09:08:00       39.363        5.462       36.094       32.503       51.049       23.327     1056.422     2606.008      544.158        0.354        0.210       39.740       21.372        0.289      345.451       22.991      863.504
09/04/2013  09:09:00       49.204     -108.233      -10.321       30.383       25.797       25.483      923.135      665.497      649.364        0.824        0.112      118.892       20.498        0.030      345.354       22.825      863.511
09/04/2013  09:10:00       43.357      -57.466       20.674       36.181       48.961       31.379     1309.029     2397.175      984.625        0.515        0.235       71.987       29.992        0.174      345.592       23.233      863.511
09/04/2013  09:11:00       21.275      -41.218       32.496       25.712       42.212       22.637      661.085     1781.874      512.427        0.308        0.148       46.385       11.355        0.060      345.526       23.119      863.521
09/04/2013  09:12:00       77.976       25.765       22.786       66.121       63.612       36.284     4372.044     4046.511     1316.505        0.850        0.487       82.123       28.757        0.123      345.584       23.219      863.524
09/04/2013  09:13:00      119.327      103.052        6.691       41.666       36.165       38.626     1736.083     1307.914     1491.968        1.472        0.227      157.666       22.013        0.019      345.451       22.989      863.520
09/04/2013  09:14:00      113.594       64.567       25.059       60.129       42.843       35.160     3615.475     1835.509     1236.213        1.219        0.334      130.662       28.410        0.047      345.418       22.935      863.523
09/04/2013  09:15:00       52.915       41.456       15.093       33.546       18.010       21.161     1125.331      324.352      447.798        0.332        0.095       67.221       13.356        0.039      345.393       22.893      863.510
09/04/2013  09:16:00       -6.230       -2.264       33.273       20.913       30.958       22.432      437.343      958.421      503.174        0.152        0.095        6.628        7.895        1.419      345.976       23.892      863.515
09/04/2013  09:17:00       31.568       34.129       18.842       51.245       32.700       18.932     2626.095     1069.267      358.430        0.328        0.203       46.490       13.584        0.085      345.865       23.701      863.507
09/04/2013  09:18:00       32.569       52.836       58.981       40.474       30.165       18.161     1638.147      909.936      329.811        0.510        0.144       62.068       11.758        0.036      345.901       23.763      863.503
09/04/2013  09:19:00       26.902       12.062       34.862       28.053       42.234       23.624      786.990     1783.684      558.108        0.261        0.156       29.483       17.136        0.338      346.042       24.006      863.512
09/04/2013  09:20:00        8.138       -7.429       30.510       38.415       42.985       29.351     1475.683     1847.699      861.480        0.262        0.209       11.019        8.626        0.613      345.911       23.780      863.501
09/04/2013  09:21:00       66.167      -57.994      -19.859       34.016       66.634       30.522     1157.063     4440.147      931.580        0.733        0.326       87.985       31.833        0.131      345.534       23.133      863.517
09/04/2013  09:22:00       47.792      -67.983        8.252       35.986       39.272       32.561     1295.016     1542.328     1060.244        0.543        0.195       83.101       31.546        0.144      345.571       23.195      863.509
09/04/2013  09:23:00       -1.132      -40.983        5.173       26.244       26.632       20.833      688.755      709.287      434.016        0.177        0.092       40.998       15.980        0.152      345.513       23.097      863.502
09/04/2013  09:24:00      -19.730      -15.772       19.586       17.840       20.829       11.391      318.249      433.827      129.747        0.095        0.044       25.260       12.236        0.235      346.084       24.079      863.487
09/04/2013  09:25:00       23.053        6.739       21.613       29.468       17.389       17.254      868.352      302.361      297.714        0.126        0.073       24.018       16.734        0.485      346.400       24.620      863.483
09/04/2013  09:26:00       12.788       47.241       -0.277       37.972       33.562       17.115     1441.857     1126.417      292.939        0.263        0.143       48.942       13.922        0.081      345.641       23.318      863.484
09/04/2013  09:27:00       14.177       20.650       17.091       21.076       26.065       18.483      444.182      679.381      341.618        0.119        0.073       25.048       13.165        0.276      346.214       24.300      863.495
09/04/2013  09:28:00        2.916       16.217       13.803       14.101       16.955       20.228      198.837      287.477      409.188        0.068        0.045       16.477       10.553        0.410      346.224       24.319      863.503
09/04/2013  09:29:00      -14.863       42.111        8.547       25.905       24.507       17.866      671.067      600.603      319.191        0.183        0.080       44.657       16.160        0.131      345.985       23.908      863.496
09/04/2013  09:30:00        1.227        6.775       31.334       13.641       18.340       14.115      186.068      336.371      199.233        0.088        0.036        6.885       12.409        3.249      346.985       25.627      863.486
09/04/2013  09:31:00      -23.383       14.185        8.150       24.866       15.059       21.704      618.300      226.787      471.082        0.107        0.066       27.350       20.955        0.587      346.351       24.536      863.483
09/04/2013  09:32:00      -99.378       25.005      -12.968       34.102       19.360       21.871     1162.929      374.823      478.326        0.634        0.101      102.475       19.656        0.037      345.658       23.346      863.487
09/04/2013  09:33:00      -13.888       16.413        6.944       20.830       23.568       20.355      433.892      555.458      414.324        0.096        0.070       21.500       13.791        0.411      346.476       24.752      863.490
09/04/2013  09:34:00        0.478       44.380       23.241       14.639       22.696       16.357      214.295      515.122      267.551        0.175        0.050       44.383       13.210        0.089      346.719       25.170      863.498
09/04/2013  09:35:00        9.779       27.971       -0.906       22.013       31.702       24.788      484.586     1005.039      614.465        0.149        0.105       29.631        9.928        0.112      346.186       24.253      863.516
09/04/2013  09:36:00       30.957       24.567       -6.876       18.418       25.631       24.067      339.241      656.946      579.236        0.159        0.079       39.520       17.006        0.185      345.958       23.861      863.515
09/04/2013  09:37:00       34.937       31.408       12.832       22.409       15.180       21.146      502.179      230.430      447.133        0.178        0.059       46.980       12.205        0.067      346.104       24.111      863.522
09/04/2013  09:38:00       18.911       12.020        6.516       20.178       16.222       18.686      407.168      263.143      349.151        0.078        0.051       22.407       13.135        0.344      346.312       24.470      863.528
09/04/2013  09:39:00       33.980       34.473       10.189       37.421       40.398       22.071     1400.307     1631.976      487.136        0.298        0.176       48.405       22.364        0.213      346.413       24.643      863.541
09/04/2013  09:40:00       57.847       52.645       51.952       41.207       31.902       24.669     1697.984     1017.718      608.578        0.607        0.166       78.216       15.888        0.041      346.284       24.421      863.544
09/04/2013  09:41:00        3.185       12.965       36.505       15.394       22.251       23.236      236.978      495.097      539.932        0.139        0.064       13.351       17.417        1.702      347.024       25.695      863.543
09/04/2013  09:42:00       48.980       81.671       -9.550       33.318       62.526       35.439     1110.077     3909.461     1255.958        0.772        0.314       95.232       30.013        0.099      346.112       24.126      863.549
09/04/2013  09:43:00       90.386       61.813       10.884       27.038       28.580       30.126      731.073      816.792      907.596        0.728        0.123      109.501       16.522        0.023      346.146       24.184      863.560
09/04/2013  09:44:00       67.687       72.777       17.006       41.509       35.375       37.951     1723.010     1251.364     1440.311        0.729        0.221       99.388       31.432        0.100      346.320       24.485      863.587
09/04/2013  09:45:00       71.255       54.418        3.115       20.371       24.913       23.279      414.963      620.668      541.930        0.481        0.079       89.658       12.286        0.019      346.105       24.114      863.605
09/04/2013  09:46:00       48.344       37.125        6.547       24.259       27.816       26.267      588.514      773.756      689.939        0.290        0.103       60.954       15.096        0.061      346.250       24.362      863.618
09/04/2013  09:47:00       63.713      -30.771       -0.497       31.722       73.578       31.303     1006.273     5413.702      979.879        0.620        0.370       70.755       28.284        0.160      345.998       23.930      863.612
09/04/2013  09:48:00       61.904       25.872       23.280       62.182       55.520       29.714     3866.550     3082.451      882.917        0.644        0.392       67.093       31.966        0.227      346.499       24.791      863.616
09/04/2013  09:49:00      101.785       85.501       21.615       29.568       25.510       36.454      874.295      650.747     1328.873        1.050        0.143      132.931       17.953        0.018      346.154       24.198      863.614
09/04/2013  09:50:00       87.393       75.398       36.691       56.761       64.751       28.674     3221.815     4192.719      822.219        1.145        0.412      115.423       20.316        0.031      346.265       24.388      863.611
09/04/2013  09:51:00       34.719      -28.299        6.816       44.392       84.703       40.437     1970.684     7174.672     1635.188        0.641        0.539       44.791       45.143        1.016      345.977       23.894      863.604
09/04/2013  09:52:00       22.110       14.275       42.140       40.656       46.954       27.816     1652.928     2204.646      773.721        0.355        0.232       26.317       23.557        0.801      346.688       25.116      863.592
09/04/2013  09:53:00       -1.204        7.434       34.364       15.665       17.267       15.604      245.399      298.158      243.498        0.101        0.039        7.531        8.076        1.150      346.972       25.605      863.587
09/04/2013  09:54:00        0.309        3.896       27.791       14.026       21.169       18.078      196.720      448.130      326.815        0.088        0.049        3.908       15.829       16.403      346.835       25.368      863.584
09/04/2013  09:55:00       19.209       15.920       16.521       20.527       13.120       16.277      421.371      172.143      264.956        0.088        0.043       24.948       11.733        0.221      346.666       25.078      863.577
09/04/2013  09:56:00       -1.479      -32.804        1.816       24.822       26.836       22.117      616.132      720.172      489.146        0.145        0.091       32.837       15.184        0.214      346.486       24.768      863.573
09/04/2013  09:57:00       30.268      -54.323      -10.101       42.798       37.607       23.754     1831.697     1414.263      564.268        0.389        0.191       62.186       11.387        0.034      346.243       24.350      863.566
09/04/2013  09:58:00        0.117      -27.299        3.199       39.433       38.746       27.167     1554.928     1501.238      738.045        0.227        0.190       27.299       24.556        0.809      346.513       24.816      863.564
09/04/2013  09:59:00       16.385        2.650       27.247       14.327       24.683       20.543      205.259      609.252      422.029        0.113        0.062       16.598       18.246        1.208      347.190       25.980      863.547
09/04/2013  10:00:00       21.490       15.888       14.943       36.852       23.754       19.051     1358.074      564.274      362.956        0.161        0.114       26.726        9.756        0.133      347.158       25.924      863.539
09/04/2013  10:01:00      -18.645       14.340        8.331       17.941       28.987       16.121      321.880      840.269      259.899        0.102        0.071       23.522       11.112        0.223      347.166       25.938      863.526
09/04/2013  10:02:00       13.428       25.646       24.488       49.046       43.854       23.523     2405.469     1923.197      553.320        0.316        0.244       28.948       12.087        0.174      347.129       25.876      863.519
09/04/2013  10:03:00        7.534       29.498       28.647       38.179       30.305       33.760     1457.603      918.413     1139.739        0.263        0.176       30.445       16.431        0.291      346.987       25.629      863.495
09/04/2013  10:04:00       10.104       41.511       30.349       26.500       44.114       25.440      702.267     1946.056      647.178        0.302        0.165       42.723       20.765        0.236      347.471       26.465      863.497
09/04/2013  10:05:00       57.154       68.349       14.931       29.423       30.597       33.452      865.685      936.149     1119.052        0.554        0.146       89.097       18.539        0.043      346.931       25.533      863.501
09/04/2013  10:06:00      111.610       87.046       10.767       37.989       30.663       22.792     1443.176      940.246      519.473        1.153        0.145      141.541       17.934        0.016      346.518       24.824      863.512
09/04/2013  10:07:00       39.734       46.842       25.496       37.723       36.656       32.430     1422.992     1343.642     1051.693        0.412        0.191       61.425       23.938        0.152      347.050       25.740      863.514
09/04/2013  10:08:00       -4.760       45.503       23.570       30.148       43.026       29.153      908.925     1851.275      849.905        0.313        0.181       45.752       30.877        0.455      347.432       26.398      863.510
09/04/2013  10:09:00       47.627       45.505       15.369       44.364       41.057       35.154     1968.142     1685.676     1235.818        0.473        0.244       65.871       25.692        0.152      347.179       25.961      863.480
09/04/2013  10:10:00       38.938       61.556       40.095       55.442       44.147       47.557     3073.787     1948.941     2261.643        0.710        0.364       72.838       34.693        0.227      347.253       26.088      863.472
09/04/2013  10:11:00      123.042       83.887        2.818       51.562       39.629       36.522     2658.629     1570.460     1333.846        1.387        0.278      148.917       19.067        0.016      346.936       25.541      863.463
09/04/2013  10:12:00       63.943       58.664       22.287       41.027       35.101       31.379     1683.237     1232.112      984.664        0.596        0.195       86.777       28.900        0.111      347.216       26.024      863.467
09/04/2013  10:13:00        6.384       39.659       23.106       43.369       37.521       26.821     1880.882     1407.845      719.385        0.308        0.200       40.169       14.499        0.130      347.426       26.388      863.464
09/04/2013  10:14:00       14.252       49.603       77.200       51.341       40.756       31.253     2635.900     1661.081      976.781        0.695        0.264       51.610       22.883        0.197      347.399       26.340      863.457
09/04/2013  10:15:00        5.342       39.929       50.948       30.674       35.734       36.440      940.905     1276.894     1327.855        0.388        0.177       40.284       24.166        0.360      347.516       26.544      863.438
09/04/2013  10:16:00       44.096      -42.889       23.507       47.071       56.106       38.464     2215.725     3147.919     1479.506        0.559        0.342       61.513       41.874        0.463      347.124       25.866      863.451
09/04/2013  10:17:00       29.762      -35.208       32.562       39.757       50.501       36.289     1580.619     2550.382     1316.888        0.432        0.272       46.102       30.906        0.449      347.287       26.146      863.438
09/04/2013  10:18:00       16.111       -3.733       31.768       27.741       41.811       36.005      769.551     1748.144     1296.349        0.255        0.191       16.538       30.506        3.402      347.288       26.150      863.433
09/04/2013  10:19:00       -4.540       13.957       37.532       13.539       19.752       17.175      183.297      390.127      294.985        0.125        0.043       14.677       11.003        0.562      348.014       27.402      863.429
09/04/2013  10:20:00       24.461       39.224       18.293       44.623       29.675       28.126     1991.192      880.631      791.065        0.307        0.183       46.226        9.880        0.046      347.423       26.382      863.426
09/04/2013  10:21:00      -13.134       54.531        6.531       53.540       48.029       30.311     2866.519     2306.739      918.781        0.464        0.305       56.090       31.809        0.322      347.339       26.236      863.428
09/04/2013  10:22:00       20.448       21.544       31.796       19.833       19.424       16.059      393.353      377.292      257.880        0.146        0.051       29.702        7.803        0.069      347.872       27.156      863.437
09/04/2013  10:23:00       35.247       76.018        4.310       37.136       37.960       27.749     1379.094     1440.963      770.015        0.531        0.180       83.792       14.254        0.029      347.331       26.224      863.446
09/04/2013  10:24:00        1.370       82.373        2.498       38.181       48.350       29.761     1457.759     2337.726      885.690        0.574        0.234       82.385       24.685        0.090      347.228       26.045      863.450
09/04/2013  10:25:00       42.724       54.047        0.071       31.777       38.608       30.837     1009.804     1490.583      950.924        0.410        0.173       68.894       16.753        0.059      347.143       25.899      863.447
09/04/2013  10:26:00       51.007       60.566       16.883       25.713       25.252       23.995      661.152      637.666      575.758        0.421        0.094       79.183        4.792        0.004      346.981       25.619      863.439
09/04/2013  10:27:00       61.447       56.372        4.386       24.694       20.959       29.282      609.784      439.259      857.462        0.444        0.095       83.388       15.686        0.035      347.061       25.758      863.431
09/04/2013  10:28:00       15.372       92.377       -6.596       45.665       43.963       36.016     2085.329     1932.732     1297.166        0.706        0.266       93.647       26.594        0.081      347.280       26.136      863.422
09/04/2013  10:29:00      -31.791       69.408        7.596       50.851       70.952       37.849     2585.784     5034.146     1432.566        0.747        0.453       76.343       45.511        0.355      347.520       26.549      863.411
09/04/2013  10:30:00      -50.562       80.702       -8.380       36.203       52.393       33.593     1310.624     2745.046     1128.483        0.716        0.259       95.233       29.405        0.095      347.383       26.313      863.391
09/04/2013  10:31:00      -61.763       67.653      -15.232       25.565       38.319       22.471      653.547     1468.365      504.968        0.562        0.131       91.605       16.658        0.033      346.985       25.627      863.390
09/04/2013  10:32:00      -54.696       15.474       -8.485       26.574       42.852       26.302      706.174     1836.330      691.801        0.327        0.162       56.842       18.836        0.110      347.051       25.738      863.387
09/04/2013  10:33:00       -5.416      -23.847        5.953       30.432       25.577       22.647      926.130      654.204      512.884        0.136        0.105       24.454       18.720        0.586      347.046       25.732      863.389
09/04/2013  10:34:00       20.775      -15.528        8.993       23.663       18.229       18.734      559.929      332.282      350.949        0.100        0.062       25.937       14.752        0.324      347.473       26.468      863.384
09/04/2013  10:35:00        6.398      -10.909       13.754       18.920       23.790       14.589      357.957      565.951      212.843        0.074        0.057       12.646        8.631        0.466      347.757       26.958      863.381
09/04/2013  10:36:00       67.180       42.710       21.072       27.155       21.357       23.103      737.413      456.126      533.746        0.425        0.086       79.608       18.453        0.054      347.532       26.569      863.379
09/04/2013  10:37:00       84.837       74.505       -0.309       28.428       31.742       28.542      808.150     1007.550      814.649        0.769        0.132      112.908       16.637        0.022      347.480       26.479      863.384
09/04/2013  10:38:00       46.140       66.202        5.344       45.896       36.779       32.778     2106.452     1352.689     1074.424        0.554        0.227       80.695       20.545        0.065      347.362       26.276      863.377
09/04/2013  10:39:00       34.181       52.837        6.092       36.817       38.984       31.766     1355.463     1519.742     1009.074        0.394        0.194       62.929       23.912        0.144      347.676       26.819      863.376
09/04/2013  10:40:00       27.888      -11.136        5.085       36.528       62.392       22.666     1334.262     3892.734      513.764        0.333        0.287       30.029       28.851        0.923      347.628       26.734      863.364
09/04/2013  10:41:00       17.866      -33.628       21.517       35.647       57.107       39.290     1270.743     3261.160     1543.684        0.399        0.304       38.079       40.995        1.159      348.119       27.583      863.348
09/04/2013  10:42:00       23.024      -59.286       27.940       60.700       68.644       50.134     3684.444     4711.988     2513.464        0.787        0.545       63.599       41.626        0.428      347.750       26.948      863.318
09/04/2013  10:43:00       59.582     -100.551      -14.004       78.443       81.699       52.052     6153.381     6674.756     2709.460        1.469        0.777      116.878       46.230        0.156      347.521       26.550      863.321
09/04/2013  10:44:00       26.095     -111.504        5.368       68.862       96.044       60.792     4742.008     9224.426     3695.682        1.540        0.883      114.517       55.130        0.232      347.660       26.791      863.314
09/04/2013  10:45:00       60.095      -41.598       38.564       51.822      114.247       65.415     2685.469    13052.302     4279.161        1.342        1.001       73.088       75.626        1.071      347.481       26.480      863.332
09/04/2013  10:46:00       22.152       17.970       35.563       54.794       34.910       32.684     3002.386     1218.716     1068.211        0.368        0.264       28.524       21.130        0.549      347.849       27.119      863.314
09/04/2013  10:47:00      -12.022      -25.251       -2.181       20.476       39.477       19.568      419.256     1558.399      382.891        0.157        0.118       27.967       20.652        0.545      347.590       26.670      863.307
09/04/2013  10:48:00      -74.723       11.039        8.922       29.903       36.343       21.975      894.205     1320.789      482.921        0.424        0.135       75.534       13.480        0.032      347.438       26.407      863.295
09/04/2013  10:49:00      -66.029        0.516       -1.551       19.619       38.795       18.233      384.907     1505.075      332.425        0.329        0.111       66.031       19.795        0.090      347.295       26.161      863.296
09/04/2013  10:50:00      -38.612        6.534       14.675       33.093       28.290       26.605     1095.171      800.310      707.814        0.218        0.130       39.161       21.942        0.314      348.202       27.727      863.289
09/04/2013  10:51:00      -69.415      -59.760       -7.279       31.491       32.934       18.907      991.653     1084.665      357.483        0.544        0.122       91.596       12.372        0.018      347.354       26.262      863.272
09/04/2013  10:52:00      -74.055       33.525       -5.321       48.690       61.689       36.182     2370.706     3805.507     1309.164        0.706        0.374       81.290       35.606        0.192      347.807       27.045      863.252
09/04/2013  10:53:00     -114.421      129.507      -28.661       49.105       43.588       31.219     2411.339     1899.948      974.599        1.798        0.264      172.813       22.751        0.017      347.493       26.500      863.238
09/04/2013  10:54:00      -82.576       72.625       -5.115       67.736       39.537       36.508     4588.148     1563.170     1332.816        0.980        0.374      109.969       40.722        0.137      347.827       27.079      863.236
09/04/2013  10:55:00      -51.638       62.859       17.276       37.763       55.395       44.659     1426.022     3068.587     1994.458        0.670        0.324       81.350       34.582        0.181      348.210       27.742      863.246
09/04/2013  10:56:00      -62.555      135.415      -11.459       34.801       55.838       36.508     1211.124     3117.883     1332.833        1.402        0.283      149.166       29.581        0.039      347.928       27.253      863.243
09/04/2013  10:57:00      -14.358       60.360       20.290       39.017       46.873       36.114     1522.310     2197.039     1304.225        0.464        0.251       62.044       23.049        0.138      348.504       28.250      863.217
09/04/2013  10:58:00     -112.552      239.544      -21.766      112.632       75.155       50.118    12685.957     5648.222     2511.839        4.568        1.042      264.668       57.475        0.047      347.637       26.750      863.193
09/04/2013  10:59:00     -110.561      107.507       -7.949       91.217       39.669       44.285     8320.466     1573.642     1961.188        1.785        0.593      154.212       49.290        0.102      347.815       27.058      863.165
09/04/2013  11:00:00      -90.445      107.646       -5.603       60.289      111.114       47.254     3634.772    12346.398     2232.974        1.900        0.911      140.598       51.983        0.137      347.682       26.826      863.149
09/04/2013  11:01:00     -161.518       30.271       -8.346      102.195       78.977       35.015    10443.829     6237.402     1226.052        2.249        0.895      164.330       37.509        0.052      347.687       26.835      863.131
09/04/2013  11:02:00     -163.083      -25.381       -3.352       75.121       61.254       35.348     5643.192     3752.047     1249.516        1.895        0.532      165.046       39.034        0.056      347.674       26.814      863.110
09/04/2013  11:03:00     -173.975        3.416       -6.487       87.671       75.040       36.527     7686.256     5630.928     1334.228        2.248        0.733      174.009       36.933        0.045      347.815       27.056      863.087
09/04/2013  11:04:00     -134.178       -6.261       -4.337       42.815       58.422       30.198     1833.093     3413.107      911.918        1.211        0.308      134.324       18.881        0.020      347.680       26.825      863.062
09/04/2013  11:05:00     -167.162       23.186      -21.231       38.745       58.945       33.479     1501.183     3474.551     1120.820        1.751        0.305      168.762       20.761        0.015      347.665       26.800      863.057
09/04/2013  11:06:00      -34.126      -19.778      -10.963       55.428       36.440       22.431     3072.316     1327.858      503.165        0.329        0.245       39.443       21.495        0.297      347.665       26.799      863.037
09/04/2013  11:07:00     -118.987      -53.445      -13.170      154.476       65.030       46.702    23862.694     4228.904     2181.121        2.372        1.514      130.439       44.963        0.119      347.871       27.154      863.030
09/04/2013  11:08:00     -265.415        6.120      -27.499      107.552       53.814       45.227    11567.438     2895.906     2045.463        4.387        0.825      265.486       54.895        0.043      347.731       26.909      863.034
09/04/2013  11:09:00      -56.711      -30.765        4.724       46.987       61.413       31.846     2207.763     3771.593     1014.139        0.559        0.350       64.518       17.403        0.073      348.005       27.386      863.028
09/04/2013  11:10:00      -99.746      -20.956       17.573       77.253       73.178       37.409     5967.977     5354.959     1399.453        1.171        0.636      101.924       49.440        0.235      348.190       27.704      863.032
09/04/2013  11:11:00     -163.661       39.703       -5.867      139.300       86.946       49.861    19404.378     7559.581     2486.084        2.892        1.473      168.408       65.225        0.150      348.043       27.450      863.015
09/04/2013  11:12:00     -253.256       47.924      -18.157      128.777      100.394       55.434    16583.503    10079.042     3072.980        4.824        1.487      257.750       58.382        0.051      347.673       26.809      863.036
09/04/2013  11:13:00     -263.322       31.155      -35.092       98.718       69.880       28.291     9745.181     4883.150      800.373        4.348        0.771      265.159       30.016        0.013      347.507       26.523      863.048
09/04/2013  11:14:00       23.825      -16.240       30.002       46.427       38.988       37.988     2155.512     1520.037     1443.123        0.342        0.256       28.833       31.728        1.211      348.361       28.002      863.031
09/04/2013  11:15:00      -17.139      -58.112        9.446       63.703       32.699       32.586     4058.016     1069.196     1061.867        0.497        0.309       60.587       23.244        0.147      347.770       26.980      862.995
09/04/2013  11:16:00      -29.554      -57.022       10.050       47.950       34.232       22.544     2299.220     1171.801      508.233        0.410        0.199       64.226       23.370        0.132      348.048       27.460      862.978
09/04/2013  11:17:00      -94.603      121.803       -6.490       82.949       85.083       40.408     6880.601     7239.093     1632.792        1.979        0.788      154.227       49.564        0.103      348.076       27.507      862.978
09/04/2013  11:18:00     -161.994      174.560      -44.831       60.432       86.781       29.871     3652.063     7530.908      892.276        3.540        0.604      238.145       31.516        0.018      347.589       26.665      862.963
09/04/2013  11:19:00      -55.132       50.232       -8.624       56.101       36.560       32.558     3147.372     1336.631     1060.037        0.559        0.277       74.584       26.708        0.128      348.125       27.593      862.959
09/04/2013  11:20:00      -89.055       -2.723       -8.563       43.792       53.054       27.879     1917.698     2814.694      777.239        0.676        0.275       89.097       21.626        0.059      348.117       27.581      862.938
09/04/2013  11:21:00      -86.502       42.922       -2.768       75.818       93.421       40.121     5748.365     8727.414     1609.655        1.271        0.804       96.565       42.060        0.190      348.356       27.994      862.920
09/04/2013  11:22:00      -97.493       36.083      -10.160       52.896       96.999       40.870     2797.965     9408.864     1670.331        1.239        0.694      103.956       45.518        0.192      347.994       27.366      862.889
09/04/2013  11:23:00     -111.767      108.008       -0.963       54.294       93.826       52.250     2947.857     8803.242     2730.036        1.932        0.724      155.427       43.822        0.079      348.186       27.697      862.864
09/04/2013  11:24:00     -201.346       41.963      -15.506      108.343      103.707       51.398    11738.244    10755.144     2641.724        3.383        1.257      205.672       55.903        0.074      348.054       27.466      862.872
09/04/2013  11:25:00     -179.745       29.448      -22.840       56.886       28.362       23.083     3235.975      804.417      532.826        1.913        0.229      182.141       23.394        0.016      347.754       26.952      862.872
09/04/2013  11:26:00     -190.593       27.903      -27.629       75.796       79.669       46.067     5745.076     6347.085     2122.131        2.604        0.711      192.625       36.305        0.036      347.983       27.344      862.871
09/04/2013  11:27:00     -151.359       33.542      -17.757       68.754       69.057       42.442     4727.166     4768.818     1801.282        1.782        0.565      155.030       27.212        0.031      348.199       27.720      862.875
09/04/2013  11:28:00     -356.050       66.338      -32.434      130.606       99.386       51.027    17057.970     9877.552     2603.738        8.088        1.477      362.177       59.325        0.027      347.933       27.257      862.874
09/04/2013  11:29:00     -245.129      -54.980      -23.352       89.341       49.968       31.330     7981.840     2496.762      981.544        3.756        0.573      251.219       30.306        0.015      347.823       27.069      862.895
09/04/2013  11:30:00     -248.159      -39.813      -17.666       94.599       73.812       43.047     8948.940     5448.244     1853.068        3.986        0.813      251.332       49.513        0.039      348.044       27.449      862.877
09/04/2013  11:31:00     -167.620       19.630      -18.715       87.013       97.329       37.186     7571.189     9473.018     1382.811        2.363        0.921      168.765       37.147        0.048      347.997       27.369      862.857
09/04/2013  11:32:00     -172.375       72.646      -18.513       67.703       57.011       45.322     4583.758     3250.309     2054.101        2.261        0.494      187.057       37.152        0.039      348.033       27.432      862.839
09/04/2013  11:33:00     -162.697      -24.851      -18.487       55.964       82.027       35.654     3131.980     6728.485     1271.217        1.928        0.557      164.584       19.914        0.015      348.283       27.865      862.844
09/04/2013  11:34:00      -84.108       14.590      -22.522       46.151       34.966       26.117     2129.956     1222.651      682.100        0.591        0.202       85.364        9.276        0.012      348.415       28.095      862.853
09/04/2013  11:35:00     -224.037       52.055      -28.650      115.666       66.172       41.507    13378.724     4378.671     1722.790        3.660        0.974      230.005       46.287        0.040      348.045       27.451      862.860
09/04/2013  11:36:00      -29.524       11.932       17.144       77.960       58.418       45.907     6077.705     3412.609     2107.478        0.645        0.580       31.844       45.389        2.032      348.577       28.375      862.822
09/04/2013  11:37:00      -11.056       33.870       17.856       47.000       44.589       30.621     2209.039     1988.223      937.655        0.336        0.257       35.628       15.990        0.201      348.820       28.796      862.799
09/04/2013  11:38:00     -200.429      -23.717       -4.209      121.717       85.694       39.141    14815.076     7343.459     1532.039        3.222        1.185      201.828       50.615        0.063      348.383       28.036      862.800
09/04/2013  11:39:00     -109.234       -5.586        3.151       78.276       50.676       34.534     6127.114     2568.104     1192.584        1.093        0.494      109.377       38.037        0.121      348.420       28.103      862.792
09/04/2013  11:40:00     -203.739      -79.438       -7.463       99.623       83.982       47.765     9924.795     7052.930     2281.482        3.356        0.963      218.678       54.914        0.063      348.239       27.787      862.803
09/04/2013  11:41:00     -246.508      -29.185       -9.070      115.706       51.783       40.836    13387.839     2681.518     1667.610        3.971        0.887      248.230       45.066        0.033      347.987       27.351      862.812
09/04/2013  11:42:00     -158.786      -94.814       -5.367       79.795       68.737       35.099     6367.198     4724.813     1231.972        2.328        0.616      184.940       32.027        0.030      348.149       27.634      862.796
09/04/2013  11:43:00      -68.809      -33.453       15.060       67.092       55.001       39.226     4501.271     3025.073     1538.705        0.757        0.453       76.510       31.833        0.173      348.474       28.196      862.783
09/04/2013  11:44:00      -79.398      -52.466        4.584       72.693       47.763       24.937     5284.211     2281.335      621.850        0.863        0.409       95.167       32.030        0.113      348.161       27.656      862.785
09/04/2013  11:45:00      -70.007      -13.897       -6.135       36.680       34.780       31.628     1345.396     1209.622     1000.317        0.434        0.178       71.373       22.163        0.096      348.095       27.541      862.773
09/04/2013  11:46:00      -65.059       14.380       -9.573       39.080       35.825       26.083     1527.224     1283.397      680.300        0.401        0.175       66.629       23.578        0.125      348.244       27.800      862.768
09/04/2013  11:47:00     -162.603       49.580      -23.211       30.748       38.964       20.000      945.410     1518.163      400.011        1.615        0.143      169.994       13.458        0.006      348.059       27.478      862.759
09/04/2013  11:48:00     -120.422      131.142      -25.865       62.243       80.310       37.653     3874.181     6449.724     1417.757        2.205        0.587      178.044       33.434        0.035      348.256       27.817      862.734
09/04/2013  11:49:00     -115.334       26.911      -13.110       65.863       72.621       30.910     4337.971     5273.798      955.423        1.238        0.528      118.432       28.211        0.057      348.343       27.970      862.719
09/04/2013  11:50:00      -76.371       39.892      -10.037       34.841       42.075       27.757     1213.866     1770.278      770.430        0.564        0.188       86.163       20.292        0.055      348.412       28.090      862.719
09/04/2013  11:51:00        4.633       53.820       18.984       29.826       52.319       34.568      889.581     2737.290     1194.970        0.405        0.241       54.019       29.924        0.307      348.664       28.526      862.719
09/04/2013  11:52:00      -26.926       94.329        5.127       55.779       96.500       39.925     3111.307     9312.285     1594.032        1.183        0.701       98.097       45.255        0.213      348.509       28.257      862.708
09/04/2013  11:53:00      -67.827       -5.770       -6.862       63.830       74.906       38.112     4074.222     5610.968     1452.513        0.791        0.557       68.072       11.199        0.027      348.342       27.968      862.706
09/04/2013  11:54:00      -66.161       22.799        6.477       36.178       65.590       37.289     1308.875     4302.102     1390.493        0.597        0.350       69.979       24.849        0.126      348.393       28.056      862.707
09/04/2013  11:55:00      -28.454       15.716       23.352       46.199       47.739       28.134     2134.311     2279.016      791.539        0.340        0.260       32.506       27.754        0.729      348.747       28.669      862.699
09/04/2013  11:56:00      -51.223      -56.280        1.140      107.969       65.715       52.321    11657.217     4318.459     2737.502        1.225        0.936       76.101       49.840        0.429      348.320       27.929      862.687
09/04/2013  11:57:00     -182.004     -120.162       -6.355       98.905       88.166       46.015     9782.216     7773.236     2117.348        3.363        0.984      218.093       51.742        0.056      348.175       27.678      862.682
09/04/2013  11:58:00      -96.278     -110.567       18.173       72.710       56.471       42.870     5286.767     3188.932     1837.857        1.607        0.516      146.610       46.499        0.101      348.062       27.482      862.672
09/04/2013  11:59:00     -148.352     -106.287       -3.959       70.117       56.429       32.933     4916.438     3184.214     1084.553        2.125        0.459      182.497       34.587        0.036      347.959       27.304      862.684
09/04/2013  12:00:00      -88.483      -64.240        1.414       75.624       54.263       39.350     5719.009     2944.501     1548.452        1.108        0.511      109.343       41.208        0.142      348.256       27.820      862.681
09/04/2013  12:01:00     -119.804      -49.180        2.426       66.516       51.844       26.758     4424.315     2687.802      715.972        1.230        0.391      129.505       30.393        0.055      348.043       27.451      862.681
09/04/2013  12:02:00     -182.378      -25.689       -0.619       78.285       73.537       38.989     6128.489     5407.753     1520.120        2.349        0.653      184.178       38.313        0.043      348.116       27.573      862.678
09/04/2013  12:03:00     -131.901      -28.738      -11.678       72.624       48.963       29.685     5274.240     2397.340      881.188        1.345        0.428      134.995       31.143        0.053      348.012       27.397      862.680
09/04/2013  12:04:00     -146.062       53.876      -11.257       58.206       40.493       31.521     3387.975     1639.705      993.544        1.519        0.301      155.682       28.017        0.032      348.171       27.673      862.673
09/04/2013  12:05:00      -74.907       36.982       11.954       92.991       32.932       37.768     8647.284     1084.519     1426.403        0.914        0.558       83.538       54.569        0.427      348.307       27.908      862.659
09/04/2013  12:06:00       39.711       38.139       18.481       29.963       30.098       29.639      897.754      905.891      878.454        0.303        0.134       55.059       21.828        0.157      348.134       27.610      862.627
09/04/2013  12:07:00      -24.692       19.594        1.870       27.368       20.392       13.862      749.000      415.849      192.152        0.118        0.068       31.522        9.672        0.094      348.158       27.650      862.609
09/04/2013  12:08:00      -68.588       27.917       -2.375       45.626       34.885       23.508     2081.725     1216.974      552.615        0.467        0.193       74.052       21.307        0.083      348.215       27.749      862.599
09/04/2013  12:09:00     -118.711       50.479      -17.449       69.770       65.435       40.027     4867.846     4281.681     1602.171        1.385        0.538      128.998       25.830        0.040      348.097       27.543      862.592
09/04/2013  12:10:00     -205.566      168.567      -48.405       95.085      108.336       51.245     9041.128    11736.593     2626.070        4.820        1.170      265.843       62.350        0.055      348.120       27.581      862.593
09/04/2013  12:11:00      -85.597       24.817      -12.363       65.149       41.784       35.528     4244.411     1745.942     1262.213        0.767        0.363       89.122       19.747        0.049      348.263       27.830      862.601
09/04/2013  12:12:00      -26.580       44.039        3.398       38.721       77.039       37.155     1499.335     5934.950     1380.505        0.573        0.441       51.439       30.339        0.348      348.454       28.161      862.598
09/04/2013  12:13:00     -125.828       73.857       -4.737       79.880       57.971       42.825     6380.876     3360.669     1833.959        1.644        0.579      145.902       33.509        0.053      348.411       28.086      862.587
09/04/2013  12:14:00     -108.779       44.947      -12.114       70.699       39.860       40.816     4998.351     1588.829     1665.929        1.112        0.413      117.699       38.320        0.106      348.299       27.893      862.578
09/04/2013  12:15:00      -89.274      -24.759       -7.662       31.401       43.980       19.030      986.048     1934.202      362.152        0.596        0.164       92.644       11.544        0.016      348.528       28.289      862.560
09/04/2013  12:16:00     -206.134       32.296      -21.799       70.663       61.914       37.014     4993.257     3833.282     1370.034        2.710        0.510      208.648       38.222        0.034      348.437       28.130      862.553
09/04/2013  12:17:00     -269.870       -1.302      -27.227       67.417       34.220       18.807     4545.055     1170.977      353.707        3.982        0.303      269.873       21.668        0.006      348.110       27.564      862.525
09/04/2013  12:18:00     -163.494      -14.024      -13.833       69.966       47.415       27.321     4895.309     2248.196      746.416        1.750        0.394      164.094       17.306        0.011      348.328       27.943      862.486
09/04/2013  12:19:00     -164.021       49.568       -7.800       93.405       50.810       51.397     8724.408     2581.683     2641.691        2.168        0.697      171.347       51.524        0.090      348.522       28.277      862.438
09/04/2013  12:20:00     -235.322        7.035      -20.995       76.430       76.264       36.873     5841.536     5816.198     1359.644        3.444        0.651      235.427       37.578        0.025      348.448       28.148      862.404
09/04/2013  12:21:00     -107.015      -51.550        8.148       51.362       40.878       23.484     2638.098     1671.033      551.519        0.952        0.243      118.784       18.461        0.024      348.818       28.792      862.375
09/04/2013  12:22:00      -90.207      -37.257        2.500       78.414       38.812       26.412     6148.710     1506.400      697.582        0.894        0.418       97.598       23.927        0.060      348.882       28.903      862.363
09/04/2013  12:23:00     -249.253      -35.762       -6.109      109.084      156.444       45.779    11899.402    24474.660     2095.729        5.095        1.923      251.805       45.269        0.032      348.670       28.531      862.368
09/04/2013  12:24:00     -161.080     -125.013       -1.121      125.741      108.384       60.383    15810.869    11746.987     3646.116        3.638        1.560      203.900       72.006        0.125      348.700       28.583      862.355
09/04/2013  12:25:00     -216.864     -136.836       -8.701      122.538       86.120       60.670    15015.494     7416.714     3680.825        4.597        1.306      256.425       59.567        0.054      348.487       28.215      862.349
09/04/2013  12:26:00     -225.748     -157.930       -7.338      126.599       56.114       56.858    16027.321     3148.787     3232.809        4.918        1.120      275.507       62.755        0.052      348.438       28.130      862.337
09/04/2013  12:27:00     -121.103      -42.994        0.339      103.645       68.209       41.988    10742.196     4652.471     1763.016        1.683        0.858      128.509       39.426        0.094      348.711       28.606      862.316
09/04/2013  12:28:00     -226.477     -126.365      -12.218      116.163       74.396       48.931    13493.954     5534.729     2394.268        4.441        1.071      259.345       57.548        0.049      348.741       28.655      862.325
09/04/2013  12:29:00     -184.763      -52.449       -6.867       72.350       97.712       40.022     5234.578     9547.610     1601.732        2.666        0.819      192.063       41.164        0.046      348.620       28.445      862.324
09/04/2013  12:30:00     -253.719      -53.742      -20.009       92.666       84.264       48.428     8587.015     7100.349     2345.292        4.284        0.902      259.349       51.676        0.040      348.596       28.404      862.316
09/04/2013  12:31:00     -380.408      -97.994      -10.300      153.222      116.214       67.292    23477.008    13505.667     4528.164        9.796        2.076      392.827       68.864        0.031      348.637       28.474      862.286
09/04/2013  12:32:00     -338.567     -110.595      -14.123      146.680      111.740       60.418    21514.971    12485.778     3650.307        8.235        1.883      356.173       70.001        0.039      348.543       28.312      862.262
09/04/2013  12:33:00     -341.773     -108.751      -23.234      100.951      100.876       53.419    10191.040    10175.888     2853.592        7.619        1.161      358.658       59.327        0.027      348.336       27.953      862.256
09/04/2013  12:34:00     -180.341     -111.122        4.523      123.332       99.005       50.765    15210.721     9801.979     2577.037        3.624        1.379      211.828       52.189        0.061      348.571       28.360      862.238
09/04/2013  12:35:00     -312.664     -161.192      -13.636      100.293       80.065       55.864    10058.760     6410.391     3120.777        7.175        0.979      351.769       54.134        0.024      348.402       28.067      862.234
09/04/2013  12:36:00      -98.939      -88.285       -0.815       73.798       34.635       30.790     5446.127     1199.612      947.996        1.259        0.380      132.602       33.567        0.064      348.383       28.039      862.217
09/04/2013  12:37:00     -134.262      -63.858       10.663       73.619       66.803       32.595     5419.819     4462.651     1062.436        1.658        0.547      148.674       40.799        0.075      348.782       28.727      862.207
09/04/2013  12:38:00     -100.023      -81.822      -14.218       50.024       38.162       24.121     2502.386     1456.348      581.828        1.072        0.227      129.226       20.912        0.026      348.733       28.644      862.199
09/04/2013  12:39:00      -61.149      -34.554       26.384       63.222      104.101       48.807     3997.077    10836.964     2382.096        1.142        0.861       70.237       57.654        0.674      349.023       29.145      862.189
09/04/2013  12:40:00      -31.019       29.142        8.953       91.939       58.268       46.287     8452.855     3395.206     2142.515        0.794        0.700       42.561       14.802        0.121      349.389       29.779      862.172
09/04/2013  12:41:00     -176.870       57.621      -12.730      103.199       59.833       42.816    10650.130     3580.040     1833.219        2.541        0.803      186.019       44.139        0.056      348.888       28.910      862.180
09/04/2013  12:42:00     -147.035       87.618      -18.025       52.358       60.154       36.931     2741.384     3618.538     1363.866        1.867        0.386      171.162       30.517        0.032      348.596       28.406      862.161
09/04/2013  12:43:00     -221.697       61.908      -18.264      109.352       63.991       49.554    11957.881     4094.814     2455.632        3.591        0.925      230.179       48.425        0.044      348.785       28.733      862.151
09/04/2013  12:44:00     -198.721       12.257      -16.074       79.549       66.143       33.190     6328.022     4374.890     1101.560        2.585        0.590      199.099       26.879        0.018      348.653       28.504      862.146
09/04/2013  12:45:00     -354.278       -6.111      -19.783      107.718       90.175       48.779    11603.229     8131.516     2379.427        7.402        1.106      354.330       45.302        0.016      348.602       28.415      862.128
09/04/2013  12:46:00     -367.605      -29.823      -25.318       80.408       74.098       51.152     6465.447     5490.469     2616.572        7.562        0.729      368.813       39.625        0.012      348.542       28.311      862.118
09/04/2013  12:47:00     -318.165      -40.819      -16.220      109.595      102.564       53.239    12011.093    10519.470     2834.346        6.426        1.268      320.772       55.768        0.030      348.703       28.589      862.118
09/04/2013  12:48:00     -187.679       40.230       -5.721      113.897       80.584       54.344    12972.530     6493.745     2953.255        2.964        1.121      191.943       42.378        0.049      348.811       28.779      862.128
09/04/2013  12:49:00     -174.345      -95.257        0.923       94.764      101.887       51.668     8980.233    10381.036     2669.594        3.075        1.102      198.671       57.240        0.083      348.853       28.851      862.122
09/04/2013  12:50:00     -242.022      -88.247      -12.641      106.202       94.747       54.187    11278.816     8976.973     2936.251        4.485        1.160      257.609       49.218        0.037      348.850       28.843      862.132
09/04/2013  12:51:00     -320.295      -41.613      -10.741      126.221       98.160       51.659    15931.737     9635.423     2668.689        6.633        1.412      322.987       60.518        0.035      348.715       28.610      862.136
09/04/2013  12:52:00     -292.188      -66.425       -6.172       61.174       46.468       33.605     3742.225     2159.233     1129.265        4.843        0.352      299.644       36.917        0.015      348.465       28.174      862.125
09/04/2013  12:53:00     -219.611       17.210       -7.703       69.727       72.517       31.657     4861.809     5258.661     1002.153        2.985        0.556      220.285       30.147        0.019      348.646       28.489      862.108
09/04/2013  12:54:00     -141.922      -12.010       -8.231       72.473       52.699       34.961     5252.265     2777.214     1222.287        1.480        0.463      142.429       36.191        0.065      348.790       28.743      862.090
09/04/2013  12:55:00     -137.909      -67.269        2.847       76.472       72.474       39.903     5848.043     5252.501     1592.277        1.812        0.635      153.441       44.148        0.083      348.871       28.881      862.073
09/04/2013  12:56:00      -41.941      -12.325        1.791       31.775       35.340       18.713     1009.666     1248.933      350.192        0.226        0.130       43.714       15.854        0.132      348.977       29.067      862.064
09/04/2013  12:57:00      -10.211       21.977       18.779       57.314       19.499       29.941     3284.946      380.224      896.489        0.275        0.228       24.233       31.905        1.733      349.118       29.311      862.047
09/04/2013  12:58:00      -16.087       58.800       10.867       30.771       43.295       34.556      946.833     1874.425     1194.112        0.392        0.201       60.961       27.099        0.198      349.354       29.722      862.027
09/04/2013  12:59:00        4.638      -38.762       18.498       32.741       65.352       34.424     1071.955     4270.843     1185.029        0.420        0.326       39.038       40.190        1.060      349.269       29.572      862.011
09/04/2013  13:00:00        4.050       33.973       34.816       29.009       32.530       27.421      841.520     1058.186      751.917        0.252        0.133       34.213       18.569        0.295      349.462       29.908      862.022
09/04/2013  13:01:00      -12.043       77.004       17.700       37.187       41.180       34.881     1382.854     1695.775     1216.664        0.534        0.215       77.940       28.261        0.131      348.952       29.023      862.021
09/04/2013  13:02:00      -15.823       26.361       13.054       37.617       33.980       27.292     1415.010     1154.656      744.863        0.221        0.166       30.745       23.756        0.597      349.168       29.399      862.018
09/04/2013  13:03:00     -122.316      -32.941       -6.709       50.696       32.295       22.852     2570.124     1042.973      522.233        1.011        0.207      126.674       25.425        0.040      348.819       28.792      862.036
09/04/2013  13:04:00      -94.142      -60.297        3.952       62.620       67.470       28.961     3921.204     4552.196      838.731        1.091        0.466      111.797       35.439        0.100      348.843       28.836      862.038
09/04/2013  13:05:00     -105.388     -178.208      -16.031       53.177       59.168       31.003     2827.785     3500.900      961.158        2.520        0.364      207.038       20.050        0.009      348.640       28.481      862.006
09/04/2013  13:06:00     -125.248     -219.375       -5.778       92.631       64.219       44.051     8580.430     4124.137     1940.481        3.924        0.732      252.612       39.441        0.024      348.655       28.505      861.996
09/04/2013  13:07:00       -9.112     -145.133       10.373       56.102       63.336       38.146     3147.472     4011.486     1455.145        1.493        0.431      145.419       27.686        0.036      348.910       28.950      861.992
09/04/2013  13:08:00      -32.257      -97.349       16.790       72.868       63.491       39.082     5309.696     4031.142     1527.408        1.083        0.543      102.554       36.169        0.124      349.038       29.172      861.996
09/04/2013  13:09:00      -63.960     -152.885       -0.114       39.736       59.066       27.964     1578.950     3488.842      781.998        1.666        0.292      165.724       14.445        0.008      348.569       28.360      861.984
09/04/2013  13:10:00      -64.274     -141.759        1.150       37.563       45.928       24.930     1411.002     2109.384      621.487        1.418        0.207      155.650       23.290        0.022      348.563       28.349      861.969
09/04/2013  13:11:00     -147.476     -129.134        0.707       64.691       54.499       42.116     4184.869     2970.148     1773.747        2.368        0.446      196.022       40.962        0.044      348.653       28.504      861.954
09/04/2013  13:12:00      -52.604      -98.256        1.807       57.316       68.626       33.696     3285.131     4709.589     1135.426        1.078        0.457      111.451       35.692        0.103      348.686       28.562      861.937
09/04/2013  13:13:00      -72.394       12.919       12.927       21.391       21.869       23.982      457.557      478.251      575.114        0.354        0.076       73.538       21.316        0.084      348.693       28.576      861.921
09/04/2013  13:14:00      -80.418      -91.422        8.970       74.772       71.962       38.784     5590.861     5178.575     1504.227        1.359        0.614      121.758       36.255        0.089      348.940       29.003      861.920
09/04/2013  13:15:00     -112.382      -89.651       13.164       75.593       58.661       37.021     5714.360     3441.060     1370.589        1.568        0.526      143.760       35.569        0.061      348.947       29.014      861.928
09/04/2013  13:16:00     -100.082      -35.956        9.719       80.483       63.118       33.018     6477.510     3983.901     1090.173        1.148        0.578      106.345       33.811        0.101      349.135       29.339      861.923
09/04/2013  13:17:00     -146.827     -167.574      -10.346       66.437       69.812       42.022     4413.873     4873.737     1765.824        3.040        0.553      222.798       34.914        0.025      348.785       28.729      861.923
09/04/2013  13:18:00     -159.500     -155.780      -29.114       93.310       41.380       35.731     8706.837     1712.305     1276.691        3.112        0.585      222.952       34.515        0.024      348.622       28.448      861.905
09/04/2013  13:19:00     -130.559      -53.180       -5.267       61.758       71.232       32.723     3814.021     5074.040     1070.826        1.493        0.498      140.974       27.704        0.039      348.956       29.030      861.882
09/04/2013  13:20:00     -133.611      -83.967        9.077       99.014       75.071       46.160     9803.740     5635.658     2130.750        2.127        0.879      157.805       53.973        0.117      349.095       29.270      861.883
09/04/2013  13:21:00     -250.125      -81.092       -9.898      118.629       86.589       51.286    14072.894     7497.596     2630.236        4.671        1.210      262.942       57.811        0.048      348.832       28.812      861.888
09/04/2013  13:22:00     -212.287     -118.809      -10.911       91.624       67.462       46.448     8394.901     4551.073     2157.405        3.720        0.755      243.272       43.183        0.032      348.956       29.027      861.896
09/04/2013  13:23:00     -118.739      -66.021      -10.353       51.863       53.211       27.668     2689.794     2831.438      765.528        1.242        0.314      135.859       26.642        0.038      349.065       29.220      861.899
09/04/2013  13:24:00      -76.640      -80.477      -10.107       61.798       65.148       29.644     3819.045     4244.251      878.746        1.070        0.447      111.131       22.705        0.042      349.191       29.437      861.890
09/04/2013  13:25:00        5.668      -36.844       -3.122       35.745       69.452       36.207     1277.671     4823.597     1310.978        0.440        0.371       37.278       31.922        0.733      349.149       29.364      861.865
09/04/2013  13:26:00       35.593       54.187       28.108       30.694       31.194       28.766      942.142      973.042      827.461        0.387        0.137       64.831       18.193        0.079      349.130       29.332      861.847
09/04/2013  13:27:00       16.516      -17.959       25.470       39.882       48.254       39.458     1590.553     2328.488     1556.919        0.336        0.274       24.399       37.104        2.313      349.290       29.610      861.846
09/04/2013  13:28:00       14.139      -47.618        2.691       37.715       38.443       29.279     1422.417     1477.828      857.234        0.312        0.188       49.673       15.103        0.092      348.908       28.946      861.854
09/04/2013  13:29:00       37.277      -76.037      -11.673       52.197       37.211       25.683     2724.489     1384.692      659.599        0.604        0.238       84.683       25.109        0.088      348.635       28.475      861.860
09/04/2013  13:30:00       -9.541      -47.587       23.672       36.634       54.619       26.050     1342.040     2983.196      678.583        0.396        0.250       48.534       22.551        0.216      349.069       29.226      861.866
09/04/2013  13:31:00       37.593      -48.536       25.437       51.704       54.019       40.063     2673.303     2918.062     1605.015        0.580        0.360       61.392       32.969        0.288      349.157       29.379      861.869
09/04/2013  13:32:00       16.386      -53.994       11.290       35.311       50.658       34.164     1246.876     2566.275     1167.154        0.414        0.249       56.425       26.711        0.224      349.060       29.211      861.873
09/04/2013  13:33:00       28.952      -31.585       28.043       36.831       55.472       36.068     1356.507     3077.170     1300.883        0.418        0.287       42.846       36.241        0.715      349.292       29.612      861.870
09/04/2013  13:34:00       31.965      -91.900       -0.561       58.880       48.448       30.139     3466.857     2347.212      908.353        0.809        0.336       97.301       27.523        0.080      348.995       29.098      861.857
09/04/2013  13:35:00       89.137     -159.719       -2.791       77.952      105.513       46.196     6076.539    11133.033     2134.108        2.640        0.967      182.909       65.503        0.128      349.072       29.230      861.868
09/04/2013  13:36:00      -58.161     -104.964        1.762       66.808       61.817       38.238     4463.257     3821.383     1462.163        1.207        0.487      120.001       32.543        0.074      349.021       29.144      861.897
09/04/2013  13:37:00      -20.780        1.355       13.012       66.974       37.860       45.740     4485.492     1433.413     2092.169        0.431        0.401       20.824       43.697        4.403      349.100       29.279      861.872
09/04/2013  13:38:00       16.207       13.369       43.821       43.120       46.514       37.791     1859.351     2163.561     1428.158        0.391        0.273       21.009       31.914        2.308      349.168       29.399      861.848
09/04/2013  13:39:00       49.932       25.982       74.568       81.310       81.163       64.383     6611.355     6587.493     4145.163        1.303        0.867       56.288       58.571        1.083      349.298       29.624      861.808
09/04/2013  13:40:00        0.560     -167.023        9.575      130.104      134.729       58.691    16927.150    18151.951     3444.598        3.325        1.926      167.024       45.620        0.075      349.247       29.533      861.814
09/04/2013  13:41:00       90.149     -159.335       48.566      141.358      219.424      127.465    19982.068    48146.734    16247.436        6.011        4.219      183.070      143.897        0.618      349.323       29.662      861.759
09/04/2013  13:42:00       39.019     -194.522        3.963       90.929      158.971       80.743     8268.122    25271.852     6519.387        3.971        2.003      198.397       65.885        0.110      349.328       29.675      861.719
09/04/2013  13:43:00       87.355      -67.466       65.956      106.128      133.119       92.947    11263.084    17720.772     8639.154        2.707        1.881      110.375       98.249        0.792      349.506       29.982      861.671
09/04/2013  13:44:00      148.258     -229.425      -40.085      101.590      147.196       65.267    10320.498    21666.762     4259.751        5.623        1.812      273.160       43.719        0.026      349.288       29.603      861.658
09/04/2013  13:45:00      176.898     -227.747       24.788      117.960      229.488      101.591    13914.451    52664.552    10320.653        8.032        3.845      288.378      128.973        0.200      349.225       29.493      861.617
09/04/2013  13:46:00       99.393      -95.798       44.309      149.662      217.560      141.282    22398.736    47332.284    19960.585        5.534        4.485      138.044      155.631        1.271      349.392       29.784      861.583
09/04/2013  13:47:00       69.197      -20.727       98.406      123.425      193.570      129.170    15233.839    37469.535    16684.859        4.213        3.469       72.235      150.829        4.360      349.352       29.713      861.563
09/04/2013  13:48:00      141.541     -221.812       17.580      212.345      195.089       97.072    45090.215    38059.639     9423.030        8.104        4.629      263.124      116.509        0.196      349.460       29.902      861.569
09/04/2013  13:49:00      173.943     -165.642       37.824      153.150      217.956      126.214    23454.872    47504.964    15929.879        7.299        4.344      240.195      145.024        0.365      349.567       30.085      861.538
09/04/2013  13:50:00       52.545     -158.425        8.269      102.442      124.812       86.468    10494.346    15578.057     7476.778        3.073        1.677      166.912       75.689        0.206      349.662       30.254      861.599
09/04/2013  13:51:00       -9.281     -119.503      -18.921      104.240      108.847       71.545    10865.976    11847.670     5118.626        2.127        1.392      119.863       74.828        0.390      349.731       30.371      861.646
09/04/2013  13:52:00       15.771     -100.667        4.772       75.028       97.406       50.934     5629.161     9487.916     2594.301        1.405        0.886      101.895       48.511        0.227      349.643       30.221      861.643
09/04/2013  13:53:00       90.444     -238.427       -6.340      130.923       98.490       64.415    17140.957     9700.203     4149.350        4.802        1.550      255.005       55.644        0.048      349.364       29.732      861.629
09/04/2013  13:54:00      -14.122     -186.778       17.195      188.391      150.927       79.976    35491.271    22778.980     6396.190        5.001        3.233      187.312       72.255        0.149      349.612       30.165      861.605
09/04/2013  13:55:00       31.764     -177.589       -0.276      102.827      118.685       53.482    10573.481    14086.037     2860.356        3.003        1.376      180.408       32.229        0.032      349.609       30.160      861.614
09/04/2013  13:56:00      -82.474     -192.690       -3.964      151.750      169.915       73.248    23028.108    28870.966     5365.274        5.059        2.863      209.598       51.677        0.061      349.610       30.162      861.577
09/04/2013  13:57:00        7.503     -163.084       28.497      184.795      170.929       79.878    34149.100    29216.624     6380.517        4.859        3.487      163.257       50.003        0.094      349.613       30.166      861.580
09/04/2013  13:58:00       21.696     -135.254       23.509      113.245      130.399       54.852    12824.350    17003.946     3008.765        2.607        1.642      136.983       40.740        0.088      350.001       30.842      861.576
09/04/2013  13:59:00       80.516     -148.580       48.982      116.468      197.094      106.539    13564.753    38846.040    11350.492        4.735        3.188      168.994       89.727        0.282      349.789       30.472      861.580
09/04/2013  14:00:00      160.922     -195.951       -2.092      123.651      163.864       77.928    15289.471    26851.412     6072.810        5.625        2.411      253.560       80.155        0.100      349.653       30.236      861.577
09/04/2013  14:01:00       26.618     -133.231       26.375      138.690      142.810      115.984    19234.783    20394.703    13452.267        3.611        2.654      135.864       93.933        0.478      349.672       30.271      861.551
09/04/2013  14:02:00       18.949     -205.173       -4.820      128.072      141.536       84.068    16402.524    20032.572     7067.458        4.298        2.175      206.046       76.023        0.136      349.647       30.225      861.616
09/04/2013  14:03:00      -16.700     -255.779       20.393      130.355      157.054       70.951    16992.342    24665.811     5034.093        5.640        2.335      256.323       67.751        0.070      349.410       29.813      861.590
09/04/2013  14:04:00       -1.033     -206.415        5.297      128.866      160.639       73.836    16606.552    25805.028     5451.690        4.524        2.393      206.418       75.854        0.135      349.397       29.792      861.601
09/04/2013  14:05:00       -0.106     -192.088       27.048      140.453      181.175       88.968    19727.000    32824.455     7915.290        4.904        3.023      192.088       89.718        0.218      349.431       29.852      861.554
09/04/2013  14:06:00       -8.634     -215.900      -41.443      149.079      201.351      100.755    22224.666    40542.149    10151.611        6.065        3.646      216.072       78.949        0.134      349.378       29.760      861.518
09/04/2013  14:07:00     -189.663     -171.406      -13.968      176.861      115.876       68.672    31279.804    13427.214     4715.807        5.748        2.471      255.640       65.808        0.066      349.450       29.883      861.495
09/04/2013  14:08:00      -36.194     -186.739       -6.025      189.001      178.247       85.938    35721.257    31772.024     7385.389        5.553        3.744      190.214       83.786        0.194      349.536       30.034      861.512
09/04/2013  14:09:00       11.311     -345.499        1.523      144.428      132.821       88.875    20859.502    17641.322     7898.687        8.294        2.320      345.684       71.150        0.042      349.441       29.867      861.483
09/04/2013  14:10:00        9.324     -248.444        6.582      110.979      165.133       59.688    12316.449    27268.770     3562.644        5.249        2.157      248.619       51.730        0.043      349.549       30.056      861.537
09/04/2013  14:11:00       69.437     -188.941      -18.318      106.724      113.225       53.645    11389.959    12820.010     2877.817        3.397        1.354      201.296       28.856        0.021      349.299       29.623      861.523
09/04/2013  14:12:00      -88.971      -99.636        0.103      108.036       97.604       55.100    11671.714     9526.638     3035.978        2.103        1.212      133.578       45.087        0.114      349.537       30.037      861.469
09/04/2013  14:13:00      -18.777     -173.890       -8.489      104.961      134.047       50.965    11016.753    17968.604     2597.481        3.112        1.579      174.901       25.358        0.021      349.453       29.890      861.489
09/04/2013  14:14:00       -9.147     -182.956      -11.420      122.254      110.581       68.562    14946.065    12228.135     4700.758        3.277        1.594      183.185       36.174        0.039      349.421       29.835      861.488
09/04/2013  14:15:00      -14.554     -237.458        3.472       83.717      123.891       57.712     7008.587    15348.862     3330.651        4.114        1.284      237.904       46.244        0.038      349.486       29.946      861.498
09/04/2013  14:16:00       16.824     -173.403        1.547      104.868      121.683       62.455    10997.325    14806.870     3900.628        3.002        1.485      174.217       62.737        0.130      349.527       30.018      861.479
09/04/2013  14:17:00      -57.935     -170.332       36.024      107.703      147.449       67.740    11599.982    21741.254     4588.674        3.579        1.896      179.915       71.447        0.158      349.592       30.129      861.465
09/04/2013  14:18:00       12.243     -183.771      -14.721      128.215      156.332       63.832    16439.137    24439.722     4074.519        3.954        2.248      184.178       74.626        0.164      349.361       29.731      861.457
09/04/2013  14:19:00       43.812     -192.275      -13.368       88.670      143.439       60.233     7862.428    20574.781     3628.065        3.556        1.603      197.203       60.490        0.094      349.362       29.730      861.457
09/04/2013  14:20:00      -27.232     -135.721      -20.047       86.636      101.654       53.151     7505.837    10333.520     2825.069        2.011        1.033      138.426       41.818        0.091      349.528       30.021      861.414
09/04/2013  14:21:00     -108.667     -103.720       -1.603      126.793       82.207       52.464    16076.536     6757.977     2752.478        2.407        1.279      150.221       51.508        0.118      349.564       30.082      861.380
09/04/2013  14:22:00     -161.884     -121.245       19.567      197.770      144.687       70.962    39112.998    20934.346     5035.564        5.317        3.254      202.254       77.877        0.148      349.641       30.216      861.346
09/04/2013  14:23:00      -78.813     -159.021        5.397      109.084      162.324       62.140    11899.236    26349.047     3861.438        3.681        2.105      177.480       58.962        0.110      349.796       30.486      861.376
09/04/2013  14:24:00     -108.513     -224.946        2.696      139.358      111.906       80.948    19420.670    12522.946     6552.624        5.043        1.925      249.751       58.889        0.056      349.802       30.495      861.396
09/04/2013  14:25:00      -17.543     -172.889        2.966      190.782      172.737      100.811    36397.908    29838.001    10162.940        5.329        3.820      173.777       94.630        0.297      349.967       30.781      861.395
09/04/2013  14:26:00     -116.471     -208.516        2.197      103.401      156.459       65.415    10691.863    24479.533     4279.114        4.824        1.973      238.840       62.732        0.069      349.598       30.142      861.442
09/04/2013  14:27:00      -63.738     -254.607      -13.082      148.841      112.702       70.745    22153.764    12701.767     5004.814        5.445        1.993      262.464       41.642        0.025      349.529       30.020      861.413
09/04/2013  14:28:00       36.987     -319.000        2.252      115.476      173.378       84.963    13334.654    30059.826     7218.763        7.686        2.531      321.137       75.854        0.056      349.365       29.738      861.410
09/04/2013  14:29:00     -129.199     -228.168       16.753      196.247      153.252       78.026    38512.891    23486.166     6088.013        6.855        3.404      262.208       60.815        0.054      349.630       30.194      861.353
09/04/2013  14:30:00     -261.232     -219.602       -3.924      173.187      159.125       79.725    29993.720    25320.866     6356.131        8.906        3.084      341.273       63.054        0.034      349.511       29.988      861.322
09/04/2013  14:31:00     -183.125     -150.758       -5.400      135.413      153.678       62.768    18336.689    23616.836     3939.818        5.108        2.295      237.197       52.265        0.049      349.599       30.142      861.291
09/04/2013  14:32:00     -100.433     -139.872        5.319      119.429       78.259       50.621    14263.392     6124.490     2562.496        2.631        1.148      172.195       42.208        0.060      349.696       30.312      861.268
09/04/2013  14:33:00     -256.259     -219.507       -0.486      180.788      156.750       84.696    32684.196    24570.590     7173.367        8.913        3.221      337.420       94.595        0.079      349.701       30.319      861.277
09/04/2013  14:34:00     -317.549     -266.848        4.551      179.241      149.965       83.278    32127.462    22489.482     6935.259       11.680        3.078      414.783       78.970        0.036      349.704       30.323      861.223
09/04/2013  14:35:00      -44.067     -230.451      -20.681      162.429      125.316       67.255    26383.217    15704.116     4523.192        5.103        2.331      234.627       45.971        0.038      349.753       30.409      861.247
09/04/2013  14:36:00     -166.380     -225.627      -23.784      158.221      147.347       71.632    25033.788    21711.054     5131.158        6.551        2.594      280.338       50.128        0.032      349.673       30.271      861.265
09/04/2013  14:37:00      -51.711      -70.727       16.064      113.460       72.915       53.679    12873.197     5316.600     2881.435        1.450        1.054       87.615       48.571        0.307      350.054       30.936      861.234
09/04/2013  14:38:00     -152.344      -59.104       20.850      120.541       92.642       61.648    14530.096     8582.470     3800.479        2.702        1.346      163.407       61.259        0.141      350.104       31.019      861.215
09/04/2013  14:39:00      -70.118      -59.611       -3.925       81.083       74.055       50.416     6574.470     5484.080     2541.791        1.154        0.730       92.033       33.342        0.131      350.056       30.938      861.222
09/04/2013  14:40:00     -126.812     -170.093       23.040      181.904      173.835       81.040    33089.021    30218.739     6567.417        5.770        3.494      212.163      100.961        0.226      350.062       30.947      861.217
09/04/2013  14:41:00      -91.617     -169.389       -9.919      121.322      111.599       74.033    14718.946    12454.274     5480.949        3.491        1.633      192.578       51.773        0.072      349.973       30.793      861.189
09/04/2013  14:42:00     -113.351     -101.513       17.225      146.751       96.715       71.606    21535.927     9353.728     5127.468        2.973        1.801      152.162       53.703        0.125      350.051       30.928      861.219
09/04/2013  14:43:00      -97.782     -100.919       25.238      117.272      103.678       73.809    13752.618    10749.103     5447.822        2.516        1.497      140.521       62.620        0.199      349.970       30.787      861.184
09/04/2013  14:44:00      -25.674     -199.156        1.782       82.053      117.570       73.435     6732.737    13822.818     5392.638        3.313        1.297      200.804       67.225        0.112      349.580       30.111      861.169
09/04/2013  14:45:00      -24.970     -207.226      -14.306      140.363      159.248       68.375    19701.635    25359.783     4675.076        4.674        2.487      208.725       69.773        0.112      349.713       30.340      861.150
09/04/2013  14:46:00      -60.730     -175.072       12.023      128.059      124.934       61.368    16399.087    15608.475     3766.092        3.512        1.789      185.306       48.024        0.067      349.856       30.589      861.142
09/04/2013  14:47:00     -133.031     -232.837        6.995      229.044      136.601       73.645    52461.046    18659.952     5423.619        7.424        3.827      268.161       91.575        0.117      349.904       30.672      861.170
09/04/2013  14:48:00     -194.335     -250.288       20.307      309.888      203.712      102.701    96030.803    41498.618    10547.423       12.442        7.404      316.875      123.238        0.151      349.744       30.394      861.175
09/04/2013  14:49:00      -34.362      -88.097       31.494      245.018      103.397       73.979    60033.942    10690.946     5472.933        4.305        3.810       94.562       71.537        0.572      350.002       30.843      861.167
09/04/2013  14:50:00     -165.548     -145.644       -0.811      129.313      133.335       72.043    16721.925    17778.229     5190.167        4.415        1.985      220.496       75.056        0.116      350.033       30.897      861.137
09/04/2013  14:51:00     -143.981     -112.388       15.981      135.687      110.602       72.223    18411.041    12232.754     5216.196        3.473        1.793      182.651       69.114        0.143      350.087       30.990      861.144
09/04/2013  14:52:00       16.456     -153.790       -7.307      140.288      117.903       59.304    19680.646    13901.069     3516.922        3.053        1.855      154.668       44.477        0.083      349.873       30.619      861.126
09/04/2013  14:53:00     -248.885     -168.354        8.880      234.570      134.338       80.874    55022.979    18046.626     6540.661        8.497        3.981      300.478       90.920        0.092      349.864       30.601      861.132
09/04/2013  14:54:00     -200.679     -208.226        8.882      209.896      170.263       78.139    44056.317    28989.493     6105.779        8.141        3.958      289.188       60.571        0.044      349.799       30.490      861.102
09/04/2013  14:55:00     -133.466     -139.469       -6.366       79.802       71.725       50.336     6368.329     5144.535     2533.759        2.567        0.702      193.041       33.485        0.030      349.898       30.661      861.131
09/04/2013  14:56:00       13.680     -156.140       -7.644      120.586      101.423       55.149    14541.079    10286.565     3041.422        2.624        1.393      156.738       52.074        0.110      349.748       30.401      861.141
09/04/2013  14:57:00       36.107      -77.181       31.517      114.918      102.174       65.470    13206.153    10439.552     4286.314        1.809        1.397       85.209       58.797        0.476      349.745       30.397      861.065
09/04/2013  14:58:00     -263.296     -225.611       -7.414      153.700      174.561       61.461    23623.557    30471.709     3777.452        8.906        2.894      346.735       71.295        0.042      349.602       30.147      861.080
09/04/2013  14:59:00     -291.846     -262.036        5.933      159.451      184.716       68.626    25424.494    34119.969     4709.544       10.905        3.213      392.220       73.056        0.035      349.551       30.057      861.077
09/04/2013  15:00:00     -217.238     -156.071       16.565      201.538      138.761       82.704    40617.620    19254.730     6840.022        6.926        3.336      267.489       94.456        0.125      349.637       30.208      861.006
09/04/2013  15:01:00     -197.464     -131.651       19.450      278.963      154.662       91.306    77820.258    23920.314     8336.839        8.337        5.504      237.326      108.216        0.208      349.716       30.346      861.016
09/04/2013  15:02:00      -52.123     -122.721       21.015      112.615      152.526       82.203    12682.249    23264.047     6757.396        3.045        2.135      133.331       75.473        0.320      349.759       30.421      861.069
09/04/2013  15:03:00      -35.332        6.721       12.739       59.659       89.632       58.314     3559.156     8033.953     3400.534        0.822        0.750       35.965       43.931        1.492      349.684       30.294      861.034
09/04/2013  15:04:00      -16.111      -53.687       -9.563       56.017      104.154       30.762     3137.946    10848.060      946.323        0.908        0.747       56.052       31.471        0.315      349.678       30.282      861.023
09/04/2013  15:05:00      108.312     -184.233       -0.755      134.482      134.722       66.270    18085.423    18149.909     4391.687        4.314        2.031      213.713       77.069        0.130      349.482       29.939      860.994
09/04/2013  15:06:00       12.726      -70.106       46.563      116.494      131.658       85.540    13570.966    17333.700     7317.069        2.273        1.911       71.252       72.016        1.022      349.544       30.048      860.919
09/04/2013  15:07:00     -119.666     -113.249        9.885      139.887      108.332       62.474    19568.323    11735.869     3903.000        3.122        1.760      164.758       51.853        0.099      349.706       30.328      860.964
09/04/2013  15:08:00     -210.223     -118.998       21.820      192.947      113.403       69.725    37228.651    12860.140     4861.571        5.688        2.748      241.566       87.285        0.131      349.734       30.378      860.958
09/04/2013  15:09:00     -237.946     -232.575       -6.753      185.789      112.747       68.690    34517.598    12711.985     4718.319        8.134        2.597      332.731       57.459        0.030      349.536       30.034      860.931
09/04/2013  15:10:00     -106.133     -141.599        8.439      100.724       89.619       59.944    10145.413     8031.600     3593.301        2.657        1.089      176.959       50.218        0.081      349.649       30.230      860.919
09/04/2013  15:11:00     -219.803     -233.345       -4.835      120.831      137.841       71.873    14600.080    19000.228     5165.730        7.077        1.938      320.567       61.885        0.037      349.547       30.051      860.897
09/04/2013  15:12:00     -177.506     -181.991       11.320      211.483      182.382       95.256    44725.079    33263.036     9073.773        7.589        4.353      254.222      116.514        0.210      349.640       30.214      860.916
09/04/2013  15:13:00      -27.250     -103.144       29.468      131.757      129.048       72.388    17360.003    16653.481     5239.967        2.574        1.963      106.683       69.086        0.419      349.756       30.416      860.899
09/04/2013  15:14:00      -90.586     -109.437       25.650      133.863      126.371       74.800    17919.350    15969.536     5595.074        3.015        1.974      142.064       75.621        0.283      349.765       30.430      860.899
09/04/2013  15:15:00     -146.317     -231.120      -18.331      160.740      130.861       77.004    25837.508    17124.679     5929.550        6.202        2.445      273.541       69.362        0.064      349.662       30.251      860.858
09/04/2013  15:16:00     -155.099     -156.877       12.608      111.164      147.176       71.059    12357.434    21660.909     5049.416        4.394        1.953      220.604       65.785        0.089      349.705       30.326      860.881
09/04/2013  15:17:00      -70.230     -241.422        6.955      124.230      196.065       70.287    15433.085    38441.641     4940.301        6.103        2.941      251.430       77.684        0.095      349.624       30.186      860.835
09/04/2013  15:18:00     -117.458     -218.587        1.605      147.416      131.619       59.067    21731.581    17323.581     3488.962        5.205        2.127      248.147       64.568        0.068      349.595       30.136      860.803
09/04/2013  15:19:00      -41.611     -210.602       17.887      191.162      169.476      119.654    36543.040    28722.065    14316.973        6.298        3.979      214.673       92.129        0.184      349.554       30.065      860.823
09/04/2013  15:20:00     -257.711     -370.590       -9.642      200.787      204.815       96.576    40315.275    41949.306     9326.866       14.770        4.580      451.389       90.285        0.040      349.484       29.943      860.862
09/04/2013  15:21:00     -253.341     -245.568       13.971      192.454      191.537       88.476    37038.394    36686.469     7828.010       10.310        4.078      352.825       92.726        0.069      349.544       30.047      860.851
09/04/2013  15:22:00     -150.750     -172.782      -18.299      164.577       87.114       59.701    27085.500     7588.818     3564.201        4.557        1.912      229.302       29.235        0.016      349.571       30.093      860.838
09/04/2013  15:23:00       -3.013     -151.767      -20.396      155.255       81.642       52.390    24104.106     6665.400     2744.756        2.848        1.676      151.797       48.988        0.104      349.545       30.048      860.815
09/04/2013  15:24:00       28.382     -123.737       -3.021       79.971       96.763       58.088     6395.324     9362.998     3374.218        1.763        0.957      126.951       47.450        0.140      349.514       29.997      860.823
09/04/2013  15:25:00       28.173     -202.378       -8.417       92.227       67.957       49.527     8505.879     4618.154     2452.896        2.870        0.779      204.330       30.454        0.022      349.379       29.761      860.778
09/04/2013  15:26:00      134.935     -250.542      -25.535      146.900      117.613       63.166    21579.744    13832.778     3989.913        6.051        1.970      284.568       63.570        0.050      349.371       29.744      860.742
09/04/2013  15:27:00      -44.514     -122.910        2.901       84.226       70.736       53.393     7094.054     5003.528     2850.852        1.602        0.747      130.722       43.465        0.111      349.390       29.783      860.729
09/04/2013  15:28:00      -57.666      -32.771        5.715       61.949       50.968       29.594     3837.665     2597.744      875.805        0.587        0.366       66.327       26.361        0.158      349.543       30.047      860.747
09/04/2013  15:29:00     -161.905     -199.669        0.509      118.301      104.800       69.541    13995.070    10983.139     4835.918        4.794        1.491      257.062       47.712        0.034      349.483       29.941      860.764
09/04/2013  15:30:00     -191.879     -387.114       -8.921      162.762      175.798       85.891    26491.536    30905.070     7377.324       12.575        3.239      432.058       83.577        0.037      349.439       29.864      860.719
09/04/2013  15:31:00     -155.070     -231.515        5.879      179.396      191.191       72.831    32182.978    36554.112     5304.296        7.585        3.702      278.650       83.361        0.089      349.429       29.847      860.693
09/04/2013  15:32:00     -211.335     -220.643       11.659      217.903      133.409       81.493    47481.501    17797.865     6641.065        8.269        3.596      305.526       78.633        0.066      349.499       29.970      860.684
09/04/2013  15:33:00     -141.197     -261.841        5.669      141.225      183.799       67.529    19944.401    33782.235     4560.110        7.340        2.914      297.485       61.264        0.042      349.484       29.943      860.673
09/04/2013  15:34:00     -130.292     -155.804       21.851      104.403      115.125       62.368    10899.966    13253.787     3889.727        3.488        1.402      203.104       52.239        0.066      349.592       30.132      860.658
09/04/2013  15:35:00     -145.559     -216.852      -24.931      113.399      105.192       57.673    12859.247    11065.432     3326.148        4.804        1.363      261.175       35.576        0.019      349.568       30.089      860.683
09/04/2013  15:36:00     -199.329     -251.364       -5.795      132.483      118.669       59.563    17551.707    14082.352     3547.748        6.906        1.759      320.805       56.889        0.031      349.560       30.074      860.676
09/04/2013  15:37:00     -167.515     -103.267       10.548      105.063       89.027       51.752    11038.153     7925.740     2678.297        3.023        1.082      196.787       41.595        0.045      349.644       30.222      860.658
09/04/2013  15:38:00     -296.504     -280.644      -22.220      143.601      198.381       70.729    20621.329    39355.217     5002.583       11.606        3.249      408.259       73.582        0.032      349.536       30.032      860.614
09/04/2013  15:39:00     -159.702      -64.893       29.768      120.163      102.731       63.194    14439.052    10553.724     3993.526        2.979        1.449      172.383       54.489        0.100      349.652       30.234      860.620
09/04/2013  15:40:00     -162.086     -148.294       -4.780       77.703       62.717       41.162     6037.829     3933.439     1694.319        2.997        0.583      219.688       37.239        0.029      349.670       30.264      860.623
09/04/2013  15:41:00     -256.709     -107.400       -7.109      144.268       92.503       54.659    20813.119     8556.790     2987.580        5.491        1.618      278.270       63.338        0.052      349.628       30.192      860.602
09/04/2013  15:42:00     -131.491      -83.353       27.578      136.245      111.492       68.038    18562.714    12430.380     4629.236        3.030        1.781      155.684       77.133        0.245      349.641       30.218      860.581
09/04/2013  15:43:00     -281.951     -133.433       -3.407      154.914       70.337       57.766    23998.443     4947.255     3336.907        6.479        1.614      311.931       55.350        0.031      349.550       30.056      860.572
09/04/2013  15:44:00     -194.669      -64.616      -11.669       86.680       69.806       45.279     7513.460     4872.834     2050.167        2.832        0.722      205.113       36.196        0.031      349.522       30.009      860.552
09/04/2013  15:45:00     -292.215     -210.331      -10.553      123.743      139.293       63.652    15312.335    19402.672     4051.610        8.425        1.938      360.040       58.309        0.026      349.487       29.945      860.537
09/04/2013  15:46:00     -256.481      -54.183      -16.179      125.166      122.683       52.350    15666.589    15051.139     2740.566        5.121        1.673      262.142       62.571        0.057      349.506       29.982      860.477
09/04/2013  15:47:00     -281.324       -4.767      -17.621      187.403       97.999       55.596    35119.708     9603.736     3090.915        6.364        2.391      281.364       66.563        0.056      349.529       30.020      860.448
09/04/2013  15:48:00     -203.965      -61.579       15.085      209.316      132.435       71.932    43813.313    17539.093     5174.256        5.606        3.326      213.058       78.541        0.136      349.594       30.133      860.403
09/04/2013  15:49:00     -318.104     -250.709      -19.004      179.831      152.144       85.016    32339.338    23147.667     7227.787       11.355        3.136      405.025       89.093        0.048      349.591       30.128      860.447
09/04/2013  15:50:00     -199.309     -210.258        4.040      126.370      116.824       72.154    15969.330    13647.833     5206.156        5.938        1.741      289.711       82.012        0.080      349.647       30.226      860.487
09/04/2013  15:51:00     -116.961     -202.540        0.542      124.682      128.797       65.941    15545.589    16588.687     4348.208        4.559        1.824      233.886       55.265        0.056      349.515       29.996      860.483
09/04/2013  15:52:00     -228.771     -244.135        6.407      133.798      116.707       65.948    17901.829    13620.507     4349.156        7.392        1.794      334.571       64.721        0.037      349.538       30.036      860.492
09/04/2013  15:53:00     -117.672     -131.496       18.067      186.910      105.634       72.829    34935.464    11158.461     5304.036        4.142        2.570      176.460       71.461        0.164      349.567       30.086      860.474
09/04/2013  15:54:00     -256.152     -126.392       11.446      134.087      124.330       67.276    17979.322    15457.827     4526.059        5.983        1.898      285.637       57.687        0.041      349.544       30.047      860.472
09/04/2013  15:55:00     -174.640      -55.234        8.620      125.652      106.500       56.790    15788.388    11342.215     3225.102        3.198        1.518      183.166       49.959        0.074      349.492       29.957      860.467
09/04/2013  15:56:00     -199.010     -112.549       -7.715      135.782      119.608       60.977    18436.718    14306.171     3718.160        4.439        1.823      228.631       73.657        0.104      349.586       30.120      860.460
09/04/2013  15:57:00     -159.306     -123.868       13.485      148.131      125.728       66.770    21942.654    15807.564     4458.207        4.155        2.110      201.796       69.654        0.119      349.615       30.170      860.420
09/04/2013  15:58:00     -165.825     -199.947       -4.966      104.361      125.921       52.258    10891.217    15856.142     2730.947        4.848        1.474      259.763       60.686        0.055      349.667       30.259      860.434
09/04/2013  15:59:00     -110.464      -75.908       -3.350       86.821       70.936       48.743     7537.807     5031.911     2375.848        1.646        0.747      134.031       24.261        0.033      349.722       30.358      860.432
09/04/2013  16:00:00     -173.163     -114.818       -2.298      128.196       75.199       51.237    16434.228     5654.873     2625.184        3.394        1.236      207.770       53.007        0.065      349.547       30.049      860.419
09/04/2013  16:01:00     -192.295     -191.404       -1.152      126.454      123.301       65.786    15990.504    15203.236     4327.848        5.456        1.776      271.317       48.805        0.032      349.516       29.998      860.419
09/04/2013  16:02:00     -249.545     -305.816        0.181      214.452      181.373       76.903    45989.779    32896.030     5914.033       12.028        4.240      394.710       85.248        0.047      349.425       29.840      860.426
09/04/2013  16:03:00     -249.547     -170.951       -7.967      171.260      157.700       80.420    29329.928    24869.391     6467.340        7.610        3.033      302.486       93.518        0.096      349.449       29.882      860.387
09/04/2013  16:04:00     -182.669     -178.149        9.291      194.798      163.716       92.613    37946.116    26802.899     8577.217        6.924        3.666      255.157       90.932        0.127      349.488       29.950      860.327
09/04/2013  16:05:00     -400.319     -179.314       -0.962      258.732      160.630      116.075    66942.028    25802.123    13473.383       14.929        5.311      438.644      129.843        0.088      349.454       29.891      860.302
09/04/2013  16:06:00     -411.818     -275.518      -30.923      186.453      194.478      107.946    34764.850    37821.786    11652.328       16.533        4.212      495.484       99.237        0.040      349.441       29.869      860.318
09/04/2013  16:07:00     -389.381     -259.418       -6.784      192.911      166.950       86.862    37214.617    27872.352     7545.090       14.578        3.632      467.884      100.086        0.046      349.444       29.872      860.357
09/04/2013  16:08:00     -356.678     -329.042      -23.655      158.629      150.901       91.780    25163.071    22771.071     8423.642       14.619        2.818      485.270       92.711        0.037      349.487       29.948      860.399
09/04/2013  16:09:00     -165.143     -158.498       11.714      169.598      127.671       64.435    28763.446    16299.820     4151.820        5.086        2.461      228.897       80.363        0.123      349.605       30.153      860.396
09/04/2013  16:10:00     -132.121     -128.517       25.537      115.870      100.128       57.893    13425.908    10025.666     3351.605        3.071        1.340      184.317       53.343        0.084      349.612       30.165      860.377
09/04/2013  16:11:00     -303.695     -144.207      -13.151      189.067      129.426       69.038    35746.289    16751.004     4766.235        8.522        2.863      336.194       73.166        0.047      349.535       30.029      860.349
09/04/2013  16:12:00     -210.513     -135.097       -7.102       81.083       70.809       47.897     6574.521     5013.935     2294.116        3.825        0.694      250.133       42.381        0.029      349.559       30.074      860.349
09/04/2013  16:13:00     -169.648     -174.397       -5.852       98.750      117.353       48.046     9751.464    13771.800     2308.460        4.253        1.292      243.299       56.965        0.055      349.557       30.068      860.311
09/04/2013  16:14:00      -97.515      -69.763        6.515      157.139      102.316       58.707    24692.597    10468.647     3446.508        2.651        1.930      119.900       51.154        0.182      349.620       30.182      860.308
09/04/2013  16:15:00     -148.206     -282.407      -18.960      145.214      172.904       64.981    21087.217    29895.871     4222.553        7.863        2.760      318.934       63.096        0.039      349.502       29.976      860.325
09/04/2013  16:16:00     -287.290     -353.607       -6.772      195.016      139.753       85.156    38031.248    19530.855     7251.497       13.620        3.241      455.602       90.634        0.040      349.285       29.597      860.319
09/04/2013  16:17:00     -325.773     -244.084       -2.650      194.501      143.883       79.822    37830.507    20702.322     6371.530       11.530        3.245      407.069       92.913        0.052      349.300       29.622      860.346
09/04/2013  16:18:00     -299.331     -192.769      -13.000      176.509      122.549       74.708    31155.425    15018.287     5581.215        8.933        2.588      356.032       78.028        0.048      349.262       29.559      860.280
09/04/2013  16:19:00     -120.161        0.812       13.643      119.067      111.188       61.934    14176.837    12362.825     3835.829        2.249        1.519      120.163       61.014        0.258      349.411       29.818      860.274
09/04/2013  16:20:00     -363.050      -35.643       -8.693      227.707      119.328       68.999    51850.428    14239.067     4760.802       10.199        3.543      364.796       91.054        0.062      349.395       29.788      860.234
09/04/2013  16:21:00     -521.500      -53.006      -35.460      162.505      110.367       71.193    26407.773    12180.778     5068.400       15.983        2.183      524.187       78.003        0.022      349.408       29.809      860.195
09/04/2013  16:22:00     -279.610     -183.740        4.196      182.895      117.802       72.683    33450.682    13877.405     5282.781        8.227        2.631      334.577       84.146        0.063      349.431       29.849      860.209
09/04/2013  16:23:00     -299.591     -231.830       -5.932      178.139      138.965       70.525    31733.637    19311.179     4973.837        9.977        2.801      378.814       76.810        0.041      349.450       29.883      860.205
09/04/2013  16:24:00     -292.565     -310.193      -10.742      173.263      123.388       81.170    30020.088    15224.679     6588.559       11.687        2.592      426.397       78.684        0.034      349.372       29.748      860.187
09/04/2013  16:25:00     -358.303     -279.474        3.317      158.921      141.388       86.566    25255.981    19990.669     7493.609       12.961        2.637      454.408       86.915        0.037      349.415       29.821      860.166
09/04/2013  16:26:00     -524.085     -293.440      -19.408      184.530      165.762       91.620    34051.179    27477.120     8394.204       21.552        3.496      600.643       81.693        0.018      349.311       29.643      860.145
09/04/2013  16:27:00     -360.374     -243.690      -16.124      226.374      160.908       75.470    51245.060    25891.537     5695.673       13.616        4.142      435.034      106.859        0.060      349.339       29.691      860.159
09/04/2013  16:28:00     -271.589     -127.832        0.516      190.598      129.106       74.940    36327.749    16668.432     5616.045        7.435        2.931      300.170       79.313        0.070      349.383       29.767      860.173
09/04/2013  16:29:00     -250.444     -127.948       -2.556      185.294      177.186       81.938    34334.048    31394.834     6713.850        7.576        3.622      281.235       90.770        0.104      349.348       29.708      860.181
09/04/2013  16:30:00     -246.548     -158.182        0.535      119.921      110.828       69.011    14381.079    12282.854     4762.475        5.861        1.571      292.929       74.359        0.064      349.337       29.688      860.204
09/04/2013  16:31:00     -305.087     -151.828      -14.266      178.221      114.098       66.928    31762.690    13018.351     4479.361        8.279        2.463      340.778       81.826        0.058      349.252       29.541      860.192
09/04/2013  16:32:00     -315.104     -160.641      -17.839      153.351      144.261       67.498    23516.671    20811.279     4556.024        8.714        2.444      353.689       64.114        0.033      349.185       29.425      860.155
09/04/2013  16:33:00     -326.724     -131.077       -4.314      165.394      114.586       71.046    27355.287    13130.037     5047.477        8.473        2.277      352.037       58.894        0.028      349.167       29.392      860.146
09/04/2013  16:34:00     -315.563     -165.964        4.673      221.397      147.158       81.937    49016.430    21655.343     6713.595       10.225        3.869      356.545       98.086        0.076      349.119       29.310      860.132
09/04/2013  16:35:00     -260.186     -156.368        1.009      197.799      132.724       77.274    39124.639    17615.640     5971.311        7.742        3.136      303.558       80.834        0.071      349.097       29.272      860.114
09/04/2013  16:36:00     -240.347     -130.837      -18.300      139.232      150.449       69.180    19385.470    22634.858     4785.941        6.100        2.340      273.651       56.050        0.042      349.206       29.460      860.124
09/04/2013  16:37:00     -224.264     -116.587        6.794      212.333      179.032       70.279    45085.417    32052.515     4939.167        7.299        4.104      252.758       87.209        0.119      349.328       29.674      860.123
09/04/2013  16:38:00     -384.404     -123.771      -19.952      148.818      164.829       76.612    22146.842    27168.748     5869.367       10.932        2.759      403.838       63.519        0.025      349.243       29.525      860.106
09/04/2013  16:39:00     -370.577     -104.759       -2.920      213.366      130.554       70.066    45524.895    17044.339     4909.300       10.788        3.374      385.099      102.451        0.071      349.305       29.632      860.107
09/04/2013  16:40:00     -249.762     -182.920       -6.152      178.647      135.860       78.901    31914.911    18457.842     6225.438        7.623        2.830      309.582       87.315        0.080      349.262       29.557      860.102
09/04/2013  16:41:00      -84.363      -13.854       30.432      111.189       95.721       68.018    12363.031     9162.427     4626.477        1.719        1.308       85.493       61.718        0.521      349.454       29.893      860.098
09/04/2013  16:42:00     -287.294      -63.900       -4.345      206.186      129.489       70.582    42512.735    16767.334     4981.753        7.544        3.213      294.315       81.080        0.076      349.351       29.711      860.092
09/04/2013  16:43:00     -429.917      -33.355      -13.274      211.474      153.219       94.451    44721.100    23476.190     8921.004       13.160        3.856      431.209      107.220        0.062      349.352       29.714      860.087
09/04/2013  16:44:00     -357.948      -26.833      -20.417      171.556      114.228       73.525    29431.533    13048.064     5405.968        8.856        2.394      358.952       68.855        0.037      349.440       29.867      860.081
09/04/2013  16:45:00     -301.266      -46.757       10.210      178.099      165.866       81.323    31719.089    27511.670     6613.406        7.943        3.292      304.873       86.816        0.081      349.438       29.862      860.086
09/04/2013  16:46:00     -209.071      -94.814        4.596      112.658      153.290       71.679    12691.923    23497.773     5137.859        4.702        2.066      229.566       67.557        0.087      349.459       29.899      860.074
09/04/2013  16:47:00     -322.025      -81.535      -11.390      133.433      117.139       68.582    17804.433    13721.532     4703.554        7.335        1.811      332.187       62.397        0.035      349.411       29.817      860.055
09/04/2013  16:48:00     -283.959      -54.668      -12.224      165.327      154.269       66.218    27332.997    23798.810     4384.787        6.963        2.776      289.174       74.727        0.067      349.377       29.756      860.056
09/04/2013  16:49:00     -334.853     -296.830       -8.205      225.337      173.933      113.735    50776.767    30252.607    12935.660       14.711        4.698      447.476      110.478        0.061      349.277       29.585      860.025
09/04/2013  16:50:00     -299.886     -175.047       -9.268      169.380      122.638       83.341    28689.742    15040.108     6945.670        8.566        2.534      347.236       81.843        0.056      349.322       29.663      860.049
09/04/2013  16:51:00     -356.117     -148.314       -7.516      220.399      163.426       78.239    48575.930    26707.953     6121.397       11.512        4.070      385.767       84.443        0.048      349.365       29.736      860.013
09/04/2013  16:52:00     -408.168     -171.483       -8.284      205.494      200.756       84.578    42227.986    40302.885     7153.522       14.286        4.484      442.728       89.610        0.041      349.319       29.657      860.020
09/04/2013  16:53:00     -327.334     -143.473       -4.416      152.706      157.995       81.353    23318.982    24962.516     6618.349        9.131        2.745      357.397       80.888        0.051      349.326       29.669      860.033
09/04/2013  16:54:00     -351.695     -122.064        2.842      195.765      146.688       73.245    38324.067    21517.376     5364.817       10.189        3.260      372.276       74.736        0.040      349.323       29.662      860.033
09/04/2013  16:55:00     -331.433     -176.986        1.477      168.800      139.942       76.331    28493.295    19583.828     5826.470        9.753        2.695      375.728       80.919        0.046      349.327       29.670      860.045
09/04/2013  16:56:00     -275.281     -226.298        1.906      152.031      136.101       86.555    23113.495    18523.551     7491.801        8.805        2.456      356.357       78.764        0.049      349.335       29.683      860.044
09/04/2013  16:57:00     -150.236     -127.650       -0.357       94.137       91.609       55.006     8861.713     8392.236     3025.693        2.957        1.014      197.143       31.767        0.026      349.453       29.889      860.051
09/04/2013  16:58:00     -192.121     -184.944       -0.130      103.972      121.662       60.585    10810.098    14801.643     3670.531        5.019        1.464      266.673       47.615        0.032      349.376       29.755      860.023
09/04/2013  16:59:00     -266.617     -115.717        2.302       97.400       78.136       52.939     9486.810     6105.273     2802.560        5.143        0.920      290.646       51.880        0.032      349.376       29.754      859.982
09/04/2013  17:00:00     -272.733      -69.587      -12.251      179.679      106.823       66.940    32284.526    11411.078     4481.006        6.377        2.409      281.471       77.463        0.076      349.516       29.998      860.010
09/04/2013  17:01:00     -339.491      -79.975      -14.834      170.462      157.351       75.619    29057.444    24759.387     5718.306        9.069        2.977      348.784       83.101        0.057      349.394       29.787      860.023
09/04/2013  17:02:00     -374.626      -29.084      -22.468       96.595      104.915       58.145     9330.553    11007.213     3380.835        8.270        1.186      375.753       48.712        0.017      349.364       29.733      860.023
09/04/2013  17:03:00     -201.296      -37.119        4.756       98.913       88.230       49.345     9783.763     7784.586     2434.925        3.096        1.000      204.690       52.274        0.065      349.484       29.943      860.018
09/04/2013  17:04:00     -245.034       11.331      -10.288      110.312      108.388       56.673    12168.648    11747.937     3211.878        4.370        1.356      245.296       56.324        0.053      349.468       29.915      860.018
09/04/2013  17:05:00     -377.913      -75.543      -15.482      168.129      124.261       70.623    28267.448    15440.852     4987.678        9.872        2.435      385.389       78.061        0.041      349.475       29.927      859.986
09/04/2013  17:06:00     -234.230     -175.311       16.942      246.377      166.021      102.736    60701.700    27562.839    10554.622        9.233        4.941      292.571      131.508        0.202      349.488       29.951      860.005
09/04/2013  17:07:00     -236.140     -213.781       -7.962      179.691      110.669       75.543    32288.754    12247.644     5706.714        7.588        2.512      318.534       75.565        0.056      349.508       29.984      860.055
09/04/2013  17:08:00     -404.668     -288.883      -24.070      205.953      168.034       87.256    42416.480    28235.281     7613.618       16.301        3.913      497.202       72.663        0.021      349.381       29.763      860.033
09/04/2013  17:09:00     -338.591     -223.469      -26.748      118.380      133.309       69.870    14013.900    17771.156     4881.854       10.098        1.833      405.688       60.231        0.022      349.315       29.650      860.044
09/04/2013  17:10:00     -309.781     -218.827       -8.937      150.445      124.572       63.415    22633.720    15518.086     4021.467        9.304        2.109      379.275       59.620        0.025      349.440       29.865      860.036
09/04/2013  17:11:00     -123.840      -74.884       10.814       93.959       70.354       42.049     8828.216     4949.718     1768.121        1.830        0.777      144.720       39.123        0.073      349.575       30.101      860.031
09/04/2013  17:12:00     -243.485     -148.672       -9.468      158.169      122.064       68.788    25017.532    14899.643     4731.835        6.305        2.232      285.286       70.180        0.061      349.408       29.810      860.007
09/04/2013  17:13:00     -249.590     -199.241        0.511      135.754      142.648       68.590    18429.236    20348.475     4704.539        7.273        2.174      319.362       68.253        0.046      349.271       29.575      860.005
09/04/2013  17:14:00     -254.421     -170.844      -14.299      107.665       93.447       55.174    11591.788     8732.347     3044.139        5.874        1.168      306.460       49.662        0.026      349.300       29.624      859.967
09/04/2013  17:15:00     -122.072     -100.210       19.662      152.790      117.747       61.392    23344.889    13864.331     3769.025        3.315        2.049      157.935       69.666        0.195      349.488       29.950      859.971
09/04/2013  17:16:00     -337.572     -145.424      -19.183      158.267      115.908       63.803    25048.350    13434.747     4070.865        8.900        2.128      367.563       73.334        0.040      349.280       29.587      859.982
09/04/2013  17:17:00     -227.215      -44.160      -13.453      133.638       90.511       55.116    17859.110     8192.174     3037.820        4.142        1.454      231.467       54.495        0.055      349.431       29.852      859.963
09/04/2013  17:18:00     -136.284      -53.110        6.371      142.540      102.680       52.055    20317.581    10543.271     2709.752        2.750        1.679      146.267       69.294        0.224      349.402       29.802      859.936
09/04/2013  17:19:00     -165.329     -167.906       -4.949      128.250      116.498       60.569    16447.968    13571.851     3668.643        4.461        1.684      235.640       56.242        0.057      349.383       29.767      859.948
09/04/2013  17:20:00     -248.722     -323.599      -10.425      207.454      167.722       86.494    43036.964    28130.834     7481.163       12.265        3.932      408.140      101.422        0.062      349.352       29.714      859.929
09/04/2013  17:21:00     -307.629     -258.110       -2.767      285.512      154.470       99.884    81517.304    23860.867     9976.843       13.829        5.768      401.567      110.936        0.076      349.305       29.632      859.957
09/04/2013  17:22:00     -416.573     -311.931      -12.483      187.947      179.283      103.000    35324.179    32142.400    10609.055       17.452        3.904      520.417      106.540        0.042      349.210       29.467      859.932
09/04/2013  17:23:00     -430.864     -284.304      -14.891      186.837      178.075       88.070    34907.964    31710.803     7756.252       17.052        3.719      516.210       88.373        0.029      349.259       29.551      859.938
09/04/2013  17:24:00     -297.082      -79.146      -11.707      145.297      115.697       65.577    21111.127    13385.709     4300.304        6.672        1.940      307.444       60.852        0.039      349.362       29.732      859.976
09/04/2013  17:25:00     -132.202     -103.357       13.567      113.360       99.986       59.070    12850.453     9997.147     3489.272        2.734        1.317      167.810       67.684        0.163      349.412       29.818      860.007
09/04/2013  17:26:00     -292.938     -104.428       -1.335      137.655      139.517       72.821    18948.818    19465.011     5302.915        7.021        2.186      310.995       65.153        0.044      349.411       29.817      860.017
09/04/2013  17:27:00     -353.400     -264.701      -24.748      168.452      146.019       77.958    28376.149    21321.652     6077.468       12.566        2.789      441.540       88.416        0.040      349.161       29.383      860.017
09/04/2013  17:28:00     -276.651     -162.559      -19.467      142.548      121.233       66.286    20319.939    14697.332     4393.873        7.137        1.971      320.875       77.200        0.058      349.260       29.554      860.021
09/04/2013  17:29:00     -198.831     -149.884       -3.597      103.845       89.677       51.540    10783.731     8042.006     2656.331        4.174        1.074      248.996       57.646        0.054      349.322       29.661      860.025
09/04/2013  17:30:00     -191.505      -71.419        6.292      121.688      117.911       58.384    14807.916    13903.059     3408.666        3.696        1.606      204.389       68.172        0.111      349.468       29.915      860.011
09/04/2013  17:31:00     -293.408     -141.550        9.444      193.106      165.085       81.350    37290.081    27253.128     6617.780        8.867        3.558      325.767       86.030        0.070      349.392       29.783      859.955
09/04/2013  17:32:00     -382.845     -218.743        2.788      221.836      152.319       90.908    49211.018    23200.966     8264.297       13.753        4.034      440.929       93.995        0.045      349.364       29.733      859.951
09/04/2013  17:33:00     -370.961     -264.967      -13.240      238.876      197.975       99.416    57061.637    39194.012     9883.496       15.705        5.307      455.872      125.450        0.076      349.210       29.468      859.965
09/04/2013  17:34:00     -195.932     -121.300       10.413      172.607      126.563       78.534    29793.120    16018.305     6167.558        5.258        2.599      230.441       82.779        0.129      349.256       29.549      859.974
09/04/2013  17:35:00     -333.918     -191.778      -11.030      159.705      100.788       68.350    25505.688    10158.209     4671.694        9.436        2.017      385.072       73.433        0.036      349.222       29.489      859.987
09/04/2013  17:36:00     -199.914     -104.557        2.627      109.342      105.264       66.601    11955.625    11080.459     4435.746        3.918        1.374      225.605       61.502        0.074      349.275       29.581      859.979
09/04/2013  17:37:00     -322.077     -127.172      -16.116      106.694       89.952       58.245    11383.519     8091.383     3392.448        7.151        1.143      346.275       38.652        0.012      349.268       29.569      859.970
09/04/2013  17:38:00     -274.636     -144.516      -10.030      122.311      119.998       66.065    14959.985    14399.554     4364.630        6.506        1.686      310.339       65.175        0.044      349.230       29.501      859.965
09/04/2013  17:39:00     -323.159     -269.405      -14.633      211.906      161.954       97.991    44904.038    26229.128     9602.187       12.896        4.037      420.726      107.495        0.065      349.226       29.495      859.967
09/04/2013  17:40:00     -379.985     -235.798        2.261      226.890      175.624      107.174    51478.938    30843.798    11486.185       14.688        4.690      447.202      128.771        0.083      349.216       29.477      859.946
09/04/2013  17:41:00     -429.713     -225.262        5.538      230.351      192.935      106.652    53061.491    37223.921    11374.641       16.852        5.083      485.176      103.917        0.046      349.195       29.441      859.947
09/04/2013  17:42:00     -351.059     -152.323       -3.040      203.631      197.668       84.497    41465.564    39072.702     7139.701       11.705        4.384      382.681       92.558        0.059      349.179       29.413      859.972
09/04/2013  17:43:00     -407.612     -275.110        4.513      251.846      150.687      100.311    63426.485    22706.708    10062.340       16.901        4.810      491.765      110.427        0.050      349.112       29.295      859.977
09/04/2013  17:44:00     -337.712     -246.942       13.125      218.009      196.902       99.766    47527.931    38770.514     9953.261       13.571        4.813      418.365      107.692        0.066      349.089       29.257      859.936
09/04/2013  17:45:00     -429.015     -294.439        3.490      282.775      162.920       96.459    79961.945    26543.054     9304.261       19.326        5.790      520.335      116.332        0.050      349.099       29.273      859.924
09/04/2013  17:46:00     -470.514     -298.178       -0.716      203.001      169.511       99.307    41209.341    28733.928     9861.838       19.503        3.990      557.040       99.283        0.032      349.087       29.254      859.935
09/04/2013  17:47:00     -356.154     -253.093       -0.375      251.213      184.291      105.890    63108.110    33963.167    11212.604       14.957        5.414      436.923      117.333        0.072      349.150       29.363      859.940
09/04/2013  17:48:00     -435.315     -309.935      -10.047      244.388      146.160      103.519    59725.515    21362.781    10716.199       18.871        4.590      534.378      113.085        0.045      349.147       29.357      859.898
09/04/2013  17:49:00     -433.489     -289.712       -6.789      213.202      191.031       98.951    45455.054    36492.916     9791.300       18.180        4.587      521.388      108.135        0.043      349.145       29.354      859.938
09/04/2013  17:50:00     -405.467     -290.999        1.616      235.256      201.398      100.980    55345.570    40560.993    10197.039       17.757        5.305      499.083      119.220        0.057      349.122       29.313      859.927
09/04/2013  17:51:00     -285.923     -239.569        4.332      174.272      155.674       95.909    30370.783    24234.538     9198.511       10.147        3.190      373.022       94.492        0.064      349.156       29.372      859.945
09/04/2013  17:52:00     -308.642     -153.272       -5.213      176.489      102.839       76.935    31148.464    10575.762     5918.931        8.320        2.382      344.604       89.658        0.068      349.193       29.440      859.959
09/04/2013  17:53:00     -310.330     -124.673      -10.186      153.347      159.912       74.843    23515.416    25571.801     5601.433        8.331        2.734      334.437       83.624        0.063      349.142       29.348      859.950
09/04/2013  17:54:00     -282.965     -177.690       -1.678      146.887      149.399       62.022    21575.746    22320.127     3846.716        7.968        2.387      334.130       63.297        0.036      349.126       29.320      859.942
09/04/2013  17:55:00     -265.587     -164.247       11.791      151.166      138.292       74.065    22851.037    19124.593     5485.638        7.255        2.373      312.272       74.456        0.057      349.045       29.181      859.922
09/04/2013  17:56:00     -163.119     -149.722       -1.579      129.899       94.623       53.483    16873.627     8953.506     2860.403        3.885        1.434      221.415       30.158        0.019      349.122       29.316      859.915
09/04/2013  17:57:00     -297.478     -145.453       -0.691      225.453      169.519       88.061    50829.011    28736.857     7754.671        9.847        4.366      331.134      114.892        0.120      349.133       29.334      859.907
09/04/2013  17:58:00     -296.999     -207.424       12.764      193.258      177.657       83.022    37348.557    31561.873     6892.729       10.358        3.790      362.261      102.231        0.080      349.088       29.256      859.891
09/04/2013  17:59:00     -372.015     -199.271       -7.745      168.979      152.376       92.239    28553.919    23218.527     8507.961       11.921        3.014      422.023      102.137        0.059      349.038       29.170      859.874
09/04/2013  18:00:00     -336.463     -187.253        1.100      165.986      137.118       70.874    27551.234    18801.306     5023.194        9.981        2.569      385.060       71.305        0.034      349.079       29.240      859.895
09/04/2013  18:01:00     -295.609     -191.797      -14.952      143.147       91.960       63.860    20491.025     8456.683     4078.138        7.870        1.651      352.379       75.393        0.046      349.088       29.255      859.895
09/04/2013  18:02:00     -194.450     -124.879       -5.155      157.649      118.655       70.022    24853.210    14078.980     4903.141        4.862        2.192      231.096       89.377        0.150      349.148       29.360      859.914
09/04/2013  18:03:00     -305.399     -182.032       -1.753      136.945       99.488       60.619    18754.017     9897.768     3674.639        7.936        1.616      355.534       61.524        0.030      349.126       29.321      859.922
09/04/2013  18:04:00     -288.298     -194.517        1.040      199.100      131.708       81.610    39640.661    17346.963     6660.238        9.229        3.182      347.782       96.349        0.077      349.010       29.119      859.928
09/04/2013  18:05:00     -279.516     -285.162      -18.125      180.907      142.782       86.995    32727.273    20386.664     7568.053       11.022        3.034      399.308      100.717        0.064      348.953       29.022      859.918
09/04/2013  18:06:00     -250.282     -129.407       -7.861      183.234      152.347       79.773    33574.616    23209.458     6363.703        7.129        3.157      281.757       93.264        0.110      348.995       29.097      859.898
09/04/2013  18:07:00     -380.725      -96.095       -8.792      138.683      101.800       68.551    19233.003    10363.195     4699.187        9.427        1.715      392.665       71.422        0.033      348.973       29.057      859.922
09/04/2013  18:08:00     -347.574     -208.188        4.724      173.762      191.990       78.806    30193.232    36860.339     6210.429       11.870        3.663      405.154       94.775        0.055      348.920       28.966      859.935
09/04/2013  18:09:00     -301.083     -237.465      -18.528      174.045      132.842       83.854    30291.680    17647.017     7031.479       10.117        2.749      383.458       93.892        0.060      348.869       28.876      859.929
09/04/2013  18:10:00     -168.054      -90.564        9.187      110.981       94.363       57.166    12316.710     8904.330     3267.909        3.050        1.224      190.903       46.850        0.060      348.961       29.035      859.939
09/04/2013  18:11:00     -258.842      -60.667       -9.202      168.091      119.799       71.182    28254.498    14351.789     5066.904        5.921        2.384      265.856       63.523        0.057      348.952       29.022      859.931
09/04/2013  18:12:00     -307.368     -146.067       -0.232      153.519      148.449       69.161    23568.100    22037.189     4783.195        8.309        2.519      340.309       91.899        0.073      348.959       29.032      859.913
09/04/2013  18:13:00     -314.082     -109.939      -13.392      159.078      153.365       71.044    25305.770    23520.691     5047.245        8.238        2.694      332.768       85.560        0.066      348.995       29.096      859.909
09/04/2013  18:14:00     -291.761     -256.025       -5.399      213.765      207.063       81.775    45695.501    42874.911     6687.161       12.296        4.763      388.167       99.037        0.065      348.936       28.995      859.912
09/04/2013  18:15:00     -364.839     -252.017      -11.531      215.328      210.732      108.512    46366.349    44408.011    11774.881       14.963        5.127      443.418      111.507        0.063      348.776       28.715      859.872
09/04/2013  18:16:00     -349.741     -126.030      -15.823      210.685      149.012       88.589    44388.325    22204.693     7847.937       10.643        3.722      371.755       95.441        0.066      348.799       28.755      859.895
09/04/2013  18:17:00     -256.639     -189.408        1.179      194.269      147.787       79.186    37740.290    21840.945     6270.373        8.378        3.293      318.966       92.860        0.085      348.786       28.734      859.914
09/04/2013  18:18:00     -223.002     -113.868       13.710      171.032      112.963       77.856    29251.958    12760.703     6061.491        5.547        2.404      250.391       91.178        0.133      348.805       28.767      859.909
09/04/2013  18:19:00     -210.366      -95.923        7.390      124.841      100.227       64.894    15585.353    10045.379     4211.266        4.167        1.492      231.204       49.805        0.046      348.856       28.854      859.937
09/04/2013  18:20:00     -238.983     -210.258       -4.391      153.572      145.027       95.241    23584.485    21032.744     9070.849        7.750        2.684      318.310      101.700        0.102      348.794       28.746      859.922
09/04/2013  18:21:00     -252.247      -46.304        1.395      122.693      112.875       55.173    15053.513    12740.688     3044.104        4.830        1.542      256.461       49.473        0.037      348.851       28.845      859.947
09/04/2013  18:22:00     -289.166      -41.758       -4.446      145.118      119.096       71.182    21059.301    14183.824     5066.911        6.284        2.016      292.166       66.457        0.052      348.837       28.820      859.956
09/04/2013  18:23:00     -410.175      -81.739       -2.115      202.329      153.465       74.537    40937.135    23551.415     5555.798       12.247        3.502      418.240       80.561        0.037      348.701       28.586      859.934
09/04/2013  18:24:00     -194.655     -127.451       19.777      228.167      151.302      100.260    52060.366    22892.278    10052.017        6.975        4.250      232.668      116.765        0.252      348.716       28.613      859.923
09/04/2013  18:25:00     -525.876     -232.480      -22.912      215.225      154.113       90.582    46321.603    23750.851     8205.183       20.468        3.914      574.972       97.099        0.029      348.590       28.394      859.919
09/04/2013  18:26:00     -405.806     -154.192      -12.061      170.417      152.889       81.388    29041.920    23375.108     6623.944       12.381        2.952      434.112       92.180        0.045      348.600       28.411      859.917
09/04/2013  18:27:00     -347.248      -97.628       -7.061      152.956      104.411       66.610    23395.412    10901.757     4436.942        8.444        1.937      360.712       67.905        0.035      348.615       28.437      859.935
09/04/2013  18:28:00     -518.383      -60.210      -17.258      210.158      146.131       96.225    44166.281    21354.292     9259.189       17.370        3.739      521.868      104.029        0.040      348.569       28.356      859.902
09/04/2013  18:29:00     -358.993      -47.813      -14.320      162.661      115.502       75.351    26458.634    13340.699     5677.786        8.841        2.274      362.163       86.617        0.057      348.608       28.425      859.917
09/04/2013  18:30:00     -247.728      -45.551       -3.804      120.407       91.238       63.549    14497.757     8324.335     4038.525        4.515        1.343      251.881       62.446        0.061      348.630       28.461      859.919
09/04/2013  18:31:00     -128.965     -121.224       28.866      153.714      124.146       83.525    23627.892    15412.322     6976.451        3.908        2.301      176.995       78.342        0.196      348.651       28.500      859.917
09/04/2013  18:32:00     -212.209     -108.570       -8.159      138.815      138.135       71.697    19269.618    19081.151     5140.499        5.018        2.175      238.369       73.292        0.095      348.629       28.462      859.930
09/04/2013  18:33:00     -226.527     -138.974        6.091      149.603      138.003       76.938    22381.014    19044.915     5919.395        5.900        2.367      265.759       81.245        0.093      348.610       28.427      859.942
09/04/2013  18:34:00     -227.573     -112.123       -4.257      170.277      134.206       68.433    28994.398    18011.294     4683.009        5.802        2.584      253.695       75.746        0.089      348.618       28.444      859.946
09/04/2013  18:35:00     -233.788     -112.500       -2.508      124.696       83.780       60.590    15549.013     7019.170     3671.141        4.677        1.312      259.448       65.641        0.064      348.611       28.429      859.957
09/04/2013  18:36:00     -389.062        4.767        7.166      219.514      204.921       74.883    48186.418    41992.672     5607.476       12.360        4.789      389.091       90.056        0.054      348.477       28.198      859.959
09/04/2013  18:37:00     -343.710     -101.030       -7.612      175.527      127.136       75.349    30809.886    16163.634     5677.453        9.052        2.633      358.251       78.667        0.048      348.473       28.191      859.966
09/04/2013  18:38:00     -211.524      -32.410       17.924      146.388      108.151       63.542    21429.307    11696.558     4037.635        4.163        1.858      213.993       75.848        0.126      348.448       28.148      859.965
09/04/2013  18:39:00     -216.427      -55.419       -3.072      157.296       96.156       73.275    24741.919     9245.977     5369.244        4.463        1.968      223.410       80.174        0.129      348.477       28.200      859.968
09/04/2013  18:40:00     -372.848      -95.790        3.960      256.925      155.146       92.344    66010.281    24070.343     8527.451       12.339        4.930      384.956      110.518        0.082      348.428       28.114      859.957
09/04/2013  18:41:00     -541.072     -252.584      -20.767      203.856      140.336       93.553    41557.279    19694.069     8752.134       21.348        3.500      597.124      110.132        0.034      348.352       27.981      859.947
09/04/2013  18:42:00     -390.638     -245.828      -19.411      260.263      141.976       93.010    67736.990    20157.120     8650.783       15.496        4.827      461.551      108.568        0.055      348.353       27.982      859.944
09/04/2013  18:43:00     -211.482     -119.846       21.691      216.193      157.910       83.756    46739.258    24935.435     7015.103        6.911        3.934      243.080      101.496        0.174      348.365       28.005      859.951
09/04/2013  18:44:00     -235.116     -114.064       -3.536      202.466      128.837       70.463    40992.593    16598.914     4964.985        6.542        3.128      261.324       95.839        0.135      348.365       28.004      859.966
09/04/2013  18:45:00     -210.599     -163.215        5.867      193.869      118.746       92.488    37585.160    14100.642     8553.963        6.562        3.012      266.441      109.622        0.169      348.349       27.976      859.955
09/04/2013  18:46:00     -298.048      -69.397        0.424      162.045      114.815       85.461    26258.707    13182.562     7303.634        7.019        2.337      306.021       89.301        0.085      348.347       27.973      859.963
09/04/2013  18:47:00     -401.999      -17.587       -9.919      230.950      165.331       85.429    53337.731    27334.214     7298.034       12.497        4.398      402.384      101.587        0.064      348.327       27.936      859.989
09/04/2013  18:48:00     -470.922     -258.845      -37.159      185.311      154.392       88.528    34340.047    23836.977     7837.195       17.807        3.301      537.372       95.473        0.032      348.303       27.895      860.000
09/04/2013  18:49:00     -417.426     -184.557        0.754      284.136      210.251       99.353    80733.334    44205.673     9870.974       17.153        6.740      456.405      129.035        0.080      348.270       27.840      860.000
09/04/2013  18:50:00     -390.871      -85.350      -14.842      184.370      138.904       88.208    33992.428    19294.448     7780.710       11.066        3.053      400.081       91.585        0.052      348.276       27.848      860.023
09/04/2013  18:51:00     -395.114     -116.773      -26.621      115.239      106.415       57.700    13280.003    11324.115     3329.257        9.919        1.397      412.008       43.829        0.011      348.271       27.841      860.058
09/04/2013  18:52:00     -276.812     -136.265       -0.810      172.045      124.775       73.290    29599.326    15568.725     5371.412        7.286        2.527      308.534       88.400        0.082      348.280       27.856      860.047
09/04/2013  18:53:00     -266.952     -154.848      -23.911      192.519      176.343      105.802    37063.650    31096.955    11194.059        8.757        3.968      308.612      113.461        0.135      348.238       27.784      860.029
09/04/2013  18:54:00     -338.416     -107.189       -5.969      193.669      126.648       77.987    37507.579    16039.833     6082.027        9.283        2.981      354.986       84.015        0.056      348.204       27.727      860.034
09/04/2013  18:55:00     -432.938     -212.275       -0.555      223.083      160.938      110.437    49765.931    25901.175    12196.389       16.016        4.393      482.178      126.125        0.068      348.201       27.721      860.046
09/04/2013  18:56:00     -298.816     -181.843       13.060      261.453      153.195      107.121    68357.585    23468.848    11474.979       11.289        5.165      349.797      127.944        0.134      348.184       27.693      860.042
09/04/2013  18:57:00     -226.383     -233.406       -4.558      193.862      158.021       86.600    37582.367    24970.635     7499.628        8.789        3.503      325.158      102.383        0.099      348.174       27.675      860.062
09/04/2013  18:58:00     -400.839     -243.411      -14.690      185.087      118.782       79.863    34257.060    14109.076     6378.106       13.743        2.737      468.957       79.759        0.029      348.160       27.649      860.075
09/04/2013  18:59:00     -403.199     -244.754      -14.680      208.912      184.993      103.953    43644.234    34222.587    10806.198       15.566        4.434      471.671      109.007        0.053      348.136       27.608      860.067
09/04/2013  19:00:00     -207.536     -168.388        8.940      152.616      150.187       85.989    23291.767    22556.123     7394.135        6.236        2.662      267.256       90.147        0.114      348.136       27.610      860.051
09/04/2013  19:01:00     -222.495      -79.278       10.563      174.033      150.329       75.761    30287.441    22598.816     5739.660        5.725        2.931      236.197       79.164        0.112      348.110       27.563      860.063
09/04/2013  19:02:00     -307.840     -170.648      -11.585      228.877      146.098      100.681    52384.824    21344.534    10136.659       10.393        4.193      351.975      116.608        0.110      348.105       27.554      860.060
09/04/2013  19:03:00     -386.952     -195.977      -15.306      232.501      185.611      106.752    54056.610    34451.459    11396.016       14.412        4.995      433.750      109.258        0.063      348.066       27.486      860.066
09/04/2013  19:04:00     -343.451     -172.774       11.577      186.551      136.286       82.204    34801.281    18573.967     6757.491       10.403        3.007      384.460       90.095        0.055      348.026       27.418      860.117
09/04/2013  19:05:00     -392.650     -139.513      -19.525      203.464      123.022       77.432    41397.800    15134.457     5995.654       11.826        3.126      416.699       77.998        0.035      348.003       27.379      860.133
09/04/2013  19:06:00     -321.216      -33.535       -2.217      221.815      105.763       89.083    49201.863    11185.791     7935.781        8.630        3.416      322.961      122.471        0.144      347.971       27.325      860.132
09/04/2013  19:07:00     -396.443     -208.209      -17.584      232.256      164.059       92.506    53942.848    26915.263     8557.316       14.510        4.471      447.792      106.483        0.057      347.948       27.285      860.149
09/04/2013  19:08:00     -300.961     -225.238       -3.291      188.235      169.472       88.595    35432.562    28720.919     7849.149       10.665        3.600      375.911       94.126        0.063      347.909       27.216      860.150
09/04/2013  19:09:00     -252.791      -92.005        1.600      166.162      126.903       76.900    27609.719    16104.250     5913.574        6.099        2.481      269.013       81.725        0.092      347.900       27.202      860.173
09/04/2013  19:10:00     -283.344     -109.381       -5.612      154.782      124.250       66.027    23957.454    15438.083     4359.507        6.801        2.188      303.724       70.222        0.053      347.875       27.158      860.192
09/04/2013  19:11:00     -377.057     -166.943      -21.130      163.547      163.018       76.003    26747.535    26574.849     5776.525       11.478        2.955      412.361       84.480        0.042      347.843       27.101      860.201
09/04/2013  19:12:00     -192.091     -121.896        5.682      164.036      124.863       68.835    26907.956    15590.661     4738.311        4.950        2.362      227.503       69.322        0.093      347.811       27.046      860.216
09/04/2013  19:13:00     -200.152     -113.337        6.352      164.692      132.306       69.057    27123.474    17504.822     4768.881        5.116        2.470      230.013       68.554        0.089      347.781       26.996      860.249
09/04/2013  19:14:00     -317.145      -54.822      -12.850      204.514      115.296       77.013    41825.910    13293.202     5931.047        8.239        3.053      321.848       80.904        0.063      347.718       26.885      860.261
09/04/2013  19:15:00     -290.429      -11.433      -14.623      169.389      125.969       78.762    28692.742    15868.119     6203.450        6.772        2.538      290.654       86.815        0.089      347.672       26.808      860.262
09/04/2013  19:16:00     -466.938      -39.291      -28.986      175.644      132.523       87.210    30850.964    17562.336     7605.644       13.821        2.801      468.588       93.545        0.040      347.661       26.788      860.280
09/04/2013  19:17:00     -338.000      -60.998       -8.478      157.850      126.232       78.723    24916.752    15934.468     6197.297        8.253        2.352      343.460       81.539        0.056      347.659       26.785      860.296
09/04/2013  19:18:00     -355.483      -81.323      -14.228      167.478      130.542       77.507    28048.821    17041.230     6007.360        9.213        2.555      364.667       78.907        0.047      347.651       26.770      860.293
09/04/2013  19:19:00     -407.017      -12.166      -20.536      205.676      136.011       78.259    42302.713    18498.886     6124.545       11.657        3.346      407.198       80.879        0.039      347.630       26.736      860.312
09/04/2013  19:20:00     -303.244     -103.233       -0.114      193.631      135.475       70.280    37493.061    18353.366     4939.253        8.169        3.039      320.335       91.966        0.082      347.604       26.689      860.324
09/04/2013  19:21:00     -234.503        8.272        7.633      144.221      107.022       65.729    20799.835    11453.622     4320.268        4.584        1.829      234.649       57.186        0.059      347.591       26.668      860.338
09/04/2013  19:22:00     -314.436      -49.143      -10.743      190.338      106.494       73.674    36228.405    11341.014     5427.815        7.719        2.650      318.253       67.096        0.044      347.601       26.687      860.339
09/04/2013  19:23:00     -169.622      -71.054        3.738      185.381      137.813       75.505    34366.062    18992.460     5700.983        4.644        2.953      183.903       85.278        0.215      347.574       26.640      860.336
09/04/2013  19:24:00     -212.943      -73.237        9.369      147.422      147.932       77.016    21733.174    21883.957     5931.453        5.016        2.477      225.185       87.404        0.151      347.554       26.604      860.359
09/04/2013  19:25:00     -126.834      -44.068       15.365      110.282       96.488       72.012    12162.184     9309.977     5185.659        2.246        1.333      134.272       71.363        0.282      347.509       26.529      860.384
09/04/2013  19:26:00     -371.890     -101.997      -25.165      135.579      106.846       71.521    18381.672    11416.056     5115.257        9.212        1.746      385.624       66.354        0.030      347.545       26.590      860.397
09/04/2013  19:27:00     -330.124     -125.129      -10.752      174.771      150.351       78.619    30545.023    22605.355     6180.948        9.203        2.967      353.043       91.158        0.067      347.520       26.545      860.428
09/04/2013  19:28:00     -189.423      -82.439        5.850      155.075       92.778       76.140    24048.179     8607.716     5797.334        4.057        1.923      206.584       86.483        0.175      347.512       26.530      860.433
09/04/2013  19:29:00     -495.817     -115.165      -19.510      187.169      106.367       79.117    35032.409    11314.004     6259.566       15.603        2.630      509.017       78.990        0.024      347.512       26.530      860.449
09/04/2013  19:30:00     -274.389      -78.011       -9.021      123.891      122.235       64.796    15348.955    14941.376     4198.546        5.797        1.724      285.263       52.213        0.034      347.466       26.452      860.442
09/04/2013  19:31:00     -264.187      -75.765       -4.657      148.651      113.693       56.236    22097.205    12926.002     3162.499        5.686        1.909      274.836       60.645        0.049      347.480       26.476      860.434
09/04/2013  19:32:00     -319.844      -93.910      -17.664      171.707       97.228       64.813    29483.149     9453.189     4200.749        7.728        2.157      333.345       71.717        0.046      347.446       26.417      860.432
09/04/2013  19:33:00     -431.597     -121.838      -19.673      209.238      168.275       89.596    43780.534    28316.573     8027.463       14.080        4.006      448.465      102.730        0.052      347.422       26.376      860.444
09/04/2013  19:34:00     -363.397     -107.448       -3.622      190.066      152.291       86.728    36125.183    23192.657     7521.767       10.521        3.342      378.950       73.379        0.037      347.385       26.311      860.451
09/04/2013  19:35:00     -377.649     -108.079       14.112      180.715      158.434       85.550    32658.055    25101.415     7318.791       10.978        3.254      392.810       93.887        0.057      347.413       26.359      860.470
09/04/2013  19:36:00     -289.466      -63.807       -8.386      165.109      127.958       80.155    27260.834    16373.209     6424.771        6.899        2.503      296.415       90.271        0.093      347.415       26.363      860.500
09/04/2013  19:37:00     -244.173      -75.422       20.559      200.037      134.562       74.061    40014.837    18107.050     5485.057        6.466        3.180      255.556       93.098        0.133      347.363       26.276      860.528
09/04/2013  19:38:00     -476.907     -153.461      -21.395      204.388      177.843       85.539    41774.450    31628.062     7316.845       16.607        4.036      500.989      100.987        0.041      347.358       26.267      860.544
09/04/2013  19:39:00     -288.276      -31.372       -4.051      163.965      111.823       76.907    26884.388    12504.442     5914.736        6.469        2.265      289.978       69.793        0.058      347.339       26.234      860.555
09/04/2013  19:40:00     -202.731      -31.283       -1.250      110.707       81.709       56.873    12256.058     6676.286     3234.532        3.212        1.108      205.131       56.566        0.076      347.298       26.164      860.574
09/04/2013  19:41:00     -245.717     -141.181        0.206      192.736      148.633       75.658    37147.264    22091.706     5724.134        7.262        3.248      283.388       93.109        0.108      347.297       26.162      860.552
09/04/2013  19:42:00     -386.425      -84.571      -19.899      179.889      151.659       89.090    32360.202    23000.588     7937.115       11.007        3.165      395.571       97.539        0.061      347.264       26.103      860.542
09/04/2013  19:43:00     -258.522     -137.692        8.243      181.316      139.559       86.533    32875.519    19476.654     7487.955        7.284        2.992      292.904       94.502        0.104      347.262       26.100      860.542
09/04/2013  19:44:00     -330.887      -56.024      -26.321      152.539      147.983       74.657    23268.245    21898.875     5573.683        8.202        2.537      335.596       65.569        0.038      347.248       26.075      860.563
09/04/2013  19:45:00     -260.360      -20.484      -10.869      115.083      105.220       60.754    13244.021    11071.323     3691.002        4.816        1.400      261.165       55.483        0.045      347.199       25.991      860.588
09/04/2013  19:46:00     -355.231      -75.060      -22.172      175.462      144.415       61.015    30786.831    20855.568     3722.838        9.383        2.768      363.075       61.571        0.029      347.199       25.992      860.590
09/04/2013  19:47:00     -528.385      -14.776      -30.756      170.342      151.514       89.515    29016.327    22956.606     8012.936       17.016        2.999      528.591       96.080        0.033      347.173       25.946      860.584
09/04/2013  19:48:00     -271.862      -35.561        4.519      169.965      101.131       64.747    28887.963    10227.519     4192.230        5.924        2.165      274.177       76.424        0.078      347.114       25.845      860.551
09/04/2013  19:49:00     -296.047      -47.464      -11.497      132.621      165.057       71.682    17588.230    27243.977     5138.278        6.999        2.499      299.827       69.826        0.054      347.084       25.793      860.553
09/04/2013  19:50:00     -358.968      -98.263      -27.638      126.185      166.119       66.351    15922.621    27595.671     4402.442        9.359        2.396      372.174       51.521        0.019      347.090       25.802      860.552
09/04/2013  19:51:00     -251.971     -109.262       -2.661      155.659      118.168       70.080    24229.871    13963.726     4911.212        5.926        2.155      274.641       84.719        0.095      347.044       25.724      860.551
09/04/2013  19:52:00     -200.447     -120.521       -1.893      141.393      125.989       59.803    19992.052    15873.323     3576.339        4.707        1.972      233.889       44.493        0.036      347.021       25.686      860.535
09/04/2013  19:53:00     -269.900      -36.038       17.471      172.087       91.654       75.866    29614.094     8400.407     5755.582        5.910        2.189      272.295       95.942        0.124      346.966       25.590      860.541
09/04/2013  19:54:00     -284.728     -167.055       11.252      210.914      184.772       89.073    44484.557    34140.666     7934.031        9.781        4.328      330.118       90.010        0.074      346.929       25.527      860.549
09/04/2013  19:55:00     -348.650      -92.991      -11.505      171.810      133.374       75.971    29518.746    17788.749     5771.622        9.170        2.654      360.838       79.876        0.049      346.935       25.537      860.584
09/04/2013  19:56:00     -218.605      -60.530       -6.892      191.759      161.940       76.519    36771.669    26224.436     5855.097        6.016        3.443      226.830       87.589        0.149      346.941       25.547      860.574
09/04/2013  19:57:00     -392.149     -106.176      -19.349      171.302      222.951       88.835    29344.454    49707.145     7891.590       12.617        4.347      406.268       87.801        0.047      346.921       25.513      860.570
09/04/2013  19:58:00     -356.946     -125.008      -20.583      197.440      160.319       90.175    38982.608    25702.101     8131.615       10.812        3.641      378.203       96.995        0.066      346.916       25.506      860.580
09/04/2013  19:59:00     -379.299      -82.687       -8.210      202.973      161.601       80.502    41197.991    26115.005     6480.584       11.227        3.690      388.207       83.341        0.046      346.931       25.532      860.569
09/04/2013  20:00:00     -513.713      -82.983      -18.160      194.236      137.471       85.363    37727.675    18898.413     7286.909       16.750        3.196      520.372       84.291        0.026      346.887       25.454      860.557
09/04/2013  20:01:00     -405.470      -90.802       -7.076      237.342      126.476       78.464    56331.268    15996.148     6156.637       12.558        3.924      415.513       92.970        0.050      346.873       25.431      860.572
09/04/2013  20:02:00     -359.293      -72.983       -3.037      188.146      143.087       80.472    35398.817    20473.747     6475.765        9.838        3.117      366.630       92.039        0.063      346.844       25.381      860.586
09/04/2013  20:03:00     -233.404      -64.066       -5.820      160.646      132.368       80.012    25807.265    17521.357     6401.969        5.416        2.487      242.037       76.938        0.101      346.853       25.395      860.556
09/04/2013  20:04:00     -355.838      -14.991       -2.125      162.254      111.689       72.191    26326.247    12474.381     5211.527        8.542        2.201      356.154       75.435        0.045      346.810       25.323      860.543
09/04/2013  20:05:00     -525.520      -76.949      -34.334      216.448      185.192      101.076    46849.786    34296.009    10216.429       18.730        4.568      531.124       99.127        0.035      346.812       25.324      860.538
09/04/2013  20:06:00     -330.010     -112.458       -9.962      152.934      120.349       63.259    23388.714    14483.882     4001.710        8.176        2.094      348.645       69.812        0.040      346.815       25.332      860.585
09/04/2013  20:07:00     -340.525      -94.433       -3.158      169.977      139.791       75.453    28892.156    19541.566     5693.090        8.950        2.706      353.377       83.263        0.056      346.822       25.343      860.591
09/04/2013  20:08:00     -156.400      -13.089       29.885      184.082      103.896       80.760    33886.257    10794.354     6522.184        3.835        2.560      156.947      106.580        0.461      346.795       25.297      860.587
09/04/2013  20:09:00     -309.312      -79.483      -14.632      151.768      129.668       65.043    23033.557    16813.703     4230.562        7.313        2.204      319.361       66.738        0.044      346.793       25.293      860.590
09/04/2013  20:10:00     -202.293      -71.443        8.383      166.957      120.732       72.480    27874.703    14576.244     5253.310        4.689        2.385      214.538       86.370        0.162      346.746       25.212      860.601
09/04/2013  20:11:00     -326.837      -57.357      -15.169      172.257      119.687       77.496    29672.456    14324.859     6005.575        8.016        2.500      331.831       74.176        0.050      346.764       25.243      860.619
09/04/2013  20:12:00     -358.001     -157.348       -7.378      194.871      142.774       83.544    37974.870    20384.368     6979.571       10.914        3.267      391.054       93.084        0.057      346.765       25.245      860.608
09/04/2013  20:13:00     -264.922      -96.592        7.965      144.204      153.554       71.496    20794.874    23578.942     5111.618        6.452        2.474      281.982       73.557        0.068      346.748       25.215      860.628
09/04/2013  20:14:00     -452.453     -113.611      -31.315      182.570      183.782       74.859    33331.983    33776.004     5603.887       14.564        3.636      466.499       72.532        0.024      346.758       25.231      860.630
09/04/2013  20:15:00     -517.452      -92.410      -18.711      199.042      153.993       87.473    39617.575    23713.833     7651.542       17.380        3.549      525.639       81.656        0.024      346.728       25.179      860.646
09/04/2013  20:16:00     -562.824     -112.448      -27.141      223.219      195.378       86.736    49826.873    38172.547     7523.171       21.282        4.776      573.947       93.391        0.026      346.731       25.185      860.654
09/04/2013  20:17:00     -230.961      -58.692       10.104      188.816      155.552       73.561    35651.356    24196.397     5411.160        6.106        3.263      238.302       83.409        0.123      346.667       25.076      860.653
09/04/2013  20:18:00     -266.977      -67.710       -3.899      179.364      140.438       81.089    32171.451    19722.711     6575.430        6.716        2.923      275.430       97.161        0.124      346.684       25.104      860.689
09/04/2013  20:19:00     -309.832      -43.125      -10.422      149.521      140.228       79.346    22356.640    19663.908     6295.826        7.313        2.416      312.819       76.980        0.061      346.685       25.106      860.705
09/04/2013  20:20:00     -338.745     -144.785       11.914      309.551      150.246      109.567    95822.113    22573.812    12005.019       13.310        6.520      368.389      141.491        0.148      346.649       25.045      860.698
09/04/2013  20:21:00     -252.075     -111.731       10.151      172.821      182.720       76.683    29867.154    33386.459     5880.298        7.262        3.457      275.727       95.507        0.120      346.633       25.017      860.761
09/04/2013  20:22:00     -220.538     -173.497        8.112      165.388      137.387       84.203    27353.298    18875.123     7090.070        6.605        2.666      280.604       95.010        0.115      346.646       25.040      860.789
09/04/2013  20:23:00     -216.145      -52.658      -10.080      118.196      113.314       65.069    13970.291    12840.146     4233.926        4.031        1.552      222.466       65.348        0.086      346.639       25.029      860.774
09/04/2013  20:24:00     -329.429     -118.465        0.218      118.984      120.253       67.455    14157.201    14460.685     4550.199        7.786        1.658      350.082       65.166        0.035      346.613       24.984      860.788
09/04/2013  20:25:00     -463.473      -23.212      -49.678      188.259      149.449       83.471    35441.603    22335.135     6967.400       14.127        3.237      464.054       89.022        0.037      346.585       24.934      860.807
09/04/2013  20:26:00     -402.962      -45.205      -34.480      194.328      172.005       92.655    37763.225    29585.814     8585.031       12.076        3.797      405.490      101.670        0.063      346.572       24.914      860.802
09/04/2013  20:27:00     -409.562      -43.616      -19.658      217.535      175.002       87.225    47321.690    30625.778     7608.144       12.778        4.278      411.878       93.838        0.052      346.568       24.904      860.830
09/04/2013  20:28:00     -529.390     -133.749      -24.516      183.349      162.015       92.055    33616.782    26248.908     8474.181       18.353        3.417      546.024       85.749        0.025      346.601       24.962      860.890
09/04/2013  20:29:00     -264.491      -81.379      -20.274      153.297      121.295       62.314    23499.962    14712.466     3883.069        5.953        2.105      276.727       69.527        0.063      346.582       24.929      860.898
09/04/2013  20:30:00     -275.927       -5.936      -14.562      149.237      101.569       52.409    22271.750    10316.285     2746.723        5.585        1.767      275.991       60.820        0.049      346.560       24.892      860.873
09/04/2013  20:31:00     -147.262      -54.441       -0.474      128.323      123.088       57.177    16466.678    15150.695     3269.170        2.976        1.744      157.003       67.478        0.185      346.511       24.807      860.840
09/04/2013  20:32:00     -188.961      -66.828        8.482      117.542      100.531       58.779    13816.040    10106.549     3454.934        3.381        1.369      200.430       58.556        0.085      346.474       24.745      860.868
09/04/2013  20:33:00     -407.320        6.324      -10.604      132.264      131.182       61.503    17493.648    17208.658     3782.634       10.227        1.924      407.369       48.444        0.014      346.505       24.798      860.905
09/04/2013  20:34:00     -226.307      -91.296        5.632      123.217       99.439       57.599    15182.516     9888.135     3317.626        4.398        1.419      244.028       62.635        0.066      346.487       24.767      860.895
09/04/2013  20:35:00     -192.246      -28.148       11.064      135.084      118.004       57.661    18247.603    13924.903     3324.745        3.668        1.775      194.296       55.682        0.082      346.454       24.711      860.906
09/04/2013  20:36:00     -430.034      -97.695       -7.806      268.923      202.133       98.491    72319.668    40857.573     9700.484       15.868        6.144      440.991      123.129        0.078      346.475       24.746      860.893
09/04/2013  20:37:00     -379.730      -63.739      -24.368      239.646      142.909       77.476    57430.195    20422.885     6002.559       11.634        4.193      385.042      105.597        0.075      346.504       24.796      860.943
09/04/2013  20:38:00     -329.798      -52.928      -12.718      255.686      158.298       84.002    65375.153    25058.298     7056.290       10.459        4.874      334.018       84.721        0.064      346.481       24.757      860.912
09/04/2013  20:39:00     -329.670     -107.600       -2.857      155.963      120.241       67.091    24324.340    14457.839     4501.214        8.177        2.164      346.785       73.613        0.045      346.464       24.728      860.881
09/04/2013  20:40:00     -314.196      -81.557       -3.025      188.820      155.686       67.091    35653.017    24238.025     4501.152        8.487        3.220      324.608       75.814        0.055      346.438       24.682      860.853
09/04/2013  20:41:00     -434.168     -196.354      -32.958      217.404      138.929       84.035    47264.618    19301.400     7061.842       15.087        3.681      476.505      102.680        0.046      346.473       24.743      860.873
09/04/2013  20:42:00     -380.092      -16.877      -14.701      163.567      141.645       72.219    26754.227    20063.240     5215.568        9.849        2.602      380.467       61.751        0.026      346.434       24.675      860.874
09/04/2013  20:43:00     -455.469       66.233      -30.644      189.971      174.728       80.138    36089.060    30529.727     6422.169       14.289        3.652      460.259       95.805        0.043      346.457       24.716      860.900
09/04/2013  20:44:00     -373.511       17.444      -22.679      139.530      132.077       75.727    19468.719    17444.442     5734.606        9.148        2.132      373.918       75.719        0.041      346.458       24.716      860.910
09/04/2013  20:45:00     -336.688      -83.252      -24.155      103.002      167.924       65.738    10609.330    28198.492     4321.423        8.199        2.156      346.827       40.173        0.013      346.468       24.733      860.889
09/04/2013  20:46:00     -226.511      -72.687      -12.004      167.219       96.524       63.110    27962.274     9316.946     3982.890        4.899        2.063      237.888       75.632        0.101      346.466       24.732      860.899
09/04/2013  20:47:00     -441.988      -68.619      -23.533      204.181      112.025       77.203    41689.818    12549.581     5960.311       13.040        3.010      447.283       88.451        0.039      346.441       24.688      860.894
09/04/2013  20:48:00     -528.996       52.621      -44.263      214.287      148.732       88.309    45918.963    22121.292     7798.438       18.019        3.792      531.606       99.835        0.035      346.471       24.739      860.917
09/04/2013  20:49:00     -450.560      -95.224      -25.257      163.161      155.565       73.907    26621.640    24200.349     5462.265       13.449        2.814      460.513       85.229        0.034      346.455       24.712      860.923
09/04/2013  20:50:00     -232.340      -14.983        4.109      194.879      123.730       64.591    37977.938    15309.177     4171.994        5.583        2.873      232.823       74.935        0.104      346.416       24.644      860.961
09/04/2013  20:51:00     -492.982     -125.025       -4.451      211.888      149.995       87.210    44896.586    22498.370     7605.540       16.683        3.750      508.589      103.568        0.041      346.437       24.681      860.959
09/04/2013  20:52:00     -366.286      -62.353      -23.830      147.136      131.619       71.790    21648.987    17323.597     5153.751        9.136        2.206      371.556       81.124        0.048      346.442       24.689      860.976
09/04/2013  20:53:00     -331.940     -129.513        2.210      216.625      168.538       89.551    46926.529    28405.032     8019.317       10.514        4.168      356.311      109.736        0.095      346.486       24.766      860.953
09/04/2013  20:54:00     -336.767      -55.095      -14.127      132.262      120.375       60.629    17493.329    14490.078     3675.870        7.615        1.783      341.244       46.266        0.018      346.473       24.741      860.943
09/04/2013  20:55:00     -287.054      -86.102       -9.446      128.058       93.600       58.868    16398.853     8760.897     3465.398        5.926        1.431      299.689       62.804        0.044      346.444       24.693      860.926
09/04/2013  20:56:00     -357.086     -101.471      -11.652      121.323      117.371       52.378    14719.302    13775.838     2743.428        8.458        1.562      371.223       52.758        0.020      346.426       24.661      860.910
09/04/2013  20:57:00     -259.696      -77.224       11.612      198.068      106.519       78.280    39230.785    11346.240     6127.752        6.511        2.835      270.935       96.951        0.128      346.390       24.597      860.879
09/04/2013  20:58:00     -464.804      -96.024      -20.888      194.097      127.991       80.475    37673.740    16381.710     6476.188       14.310        3.027      474.619       78.082        0.027      346.439       24.684      860.844
09/04/2013  20:59:00     -499.919      -71.692      -15.964      163.930      124.281       79.330    26873.059    15445.672     6293.292       15.195        2.431      505.034       78.257        0.024      346.456       24.712      860.849
09/04/2013  21:00:00     -228.742      -71.739       11.147      173.175      108.155       59.953    29989.684    11697.570     3594.395        5.143        2.264      239.727       65.376        0.074      346.406       24.628      860.880
09/04/2013  21:01:00     -230.554      -90.960       -2.805      119.706      105.542       58.856    14329.450    11139.067     3464.071        4.518        1.447      247.849       49.694        0.040      346.446       24.698      860.896
09/04/2013  21:02:00     -302.201      -38.762        9.149      171.868      103.774       73.767    29538.749    10768.951     5441.542        6.932        2.287      304.677       90.720        0.089      346.458       24.718      860.888
09/04/2013  21:03:00     -232.333     -128.274       -5.746      164.219      119.927       59.424    26967.836    14382.572     3531.201        5.766        2.244      265.392       76.218        0.082      346.454       24.711      860.903
09/04/2013  21:04:00     -420.456     -167.330      -34.965      157.203      103.675       82.558    24712.890    10748.423     6815.878       12.413        2.114      452.529       72.652        0.026      346.512       24.809      860.888
09/04/2013  21:05:00     -437.298      -45.591      -30.056      159.796      125.939       82.349    25534.687    15860.624     6781.307       12.118        2.409      439.668       80.731        0.034      346.466       24.730      860.903
09/04/2013  21:06:00     -425.163     -169.942      -36.666      145.956      117.162       70.625    21303.249    13726.983     4987.954       12.550        2.001      457.869       54.508        0.014      346.532       24.844      860.912
09/04/2013  21:07:00     -365.803       39.411      -27.138      112.664      105.060       60.543    12693.277    11037.658     3665.509        8.174        1.370      367.920       53.211        0.021      346.472       24.741      860.935
09/04/2013  21:08:00     -345.137      -60.977      -29.468      124.953      122.900       56.419    15613.210    15104.288     3183.112        7.880        1.695      350.482       58.563        0.028      346.489       24.770      860.925
09/04/2013  21:09:00     -210.656       -0.102      -10.424      110.759       82.222       46.466    12267.565     6760.492     2159.121        3.283        1.059      210.656       54.290        0.066      346.466       24.732      860.909
09/04/2013  21:10:00     -282.046      -70.584      -16.286      127.381       84.003       45.981    16225.801     7056.544     2114.283        5.509        1.270      290.744       51.883        0.032      346.495       24.781      860.900
09/04/2013  21:11:00     -329.736     -106.642       -1.339      161.673      127.482       68.191    26138.186    16251.655     4650.069        8.356        2.352      346.552       77.410        0.050      346.473       24.745      860.923
09/04/2013  21:12:00     -265.273      -42.092        0.011      142.445      149.632       62.076    20290.456    22389.870     3853.476        5.933        2.327      268.591       56.027        0.044      346.407       24.627      860.925
09/04/2013  21:13:00     -323.943     -124.783      -16.554      158.933      113.415       59.190    25259.557    12862.965     3503.432        8.120        2.081      347.145       74.974        0.047      346.442       24.689      860.939
09/04/2013  21:14:00     -326.042      -82.658       -8.273      177.274      114.153       77.037    31425.961    13030.923     5934.709        8.179        2.520      336.356       83.713        0.062      346.412       24.637      860.913
09/04/2013  21:15:00     -313.705      -47.901       -8.550      158.711      120.516       58.463    25189.317    14524.103     3417.873        7.195        2.157      317.341       64.704        0.042      346.434       24.675      860.898
09/04/2013  21:16:00     -251.100      -72.123       -4.586      125.832       82.146       58.419    15833.711     6747.959     3412.733        4.713        1.300      261.253       67.393        0.067      346.376       24.575      860.899
09/04/2013  21:17:00     -273.744      -47.335       -3.237      162.825      103.966       60.398    26511.979    10808.994     3647.890        5.907        2.048      277.807       50.634        0.033      346.396       24.612      860.901
09/04/2013  21:18:00     -304.435      -57.422        6.116      174.859      129.733      100.238    30575.542    16830.649    10047.671        7.672        2.873      309.803       98.057        0.100      346.383       24.588      860.892
09/04/2013  21:19:00     -304.128     -103.472      -14.065      143.216      117.122       67.802    20510.686    13717.473     4597.061        7.110        1.941      321.248       58.421        0.033      346.414       24.639      860.890
09/04/2013  21:20:00     -454.125      -81.278      -17.982      164.608      113.833       76.776    27095.639    12957.873     5894.527       12.954        2.297      461.341       82.993        0.032      346.433       24.672      860.899
09/04/2013  21:21:00     -433.097      -80.648      -10.787      152.489      141.484       87.004    23252.953    20017.593     7569.636       12.251        2.542      440.541       97.195        0.049      346.413       24.638      860.923
09/04/2013  21:22:00     -325.544      -83.957      -15.083      164.695      112.213       62.378    27124.292    12591.833     3891.067        7.842        2.180      336.196       72.827        0.047      346.447       24.697      860.965
09/04/2013  21:23:00     -106.442      -44.165       15.901      119.289       68.707       47.173    14229.914     4720.673     2225.322        1.735        1.059      115.241       58.008        0.253      346.366       24.560      860.995
09/04/2013  21:24:00     -256.324     -137.262      -11.828       79.033       83.568       50.510     6246.224     6983.640     2551.288        5.023        0.789      290.762       45.318        0.024      346.433       24.670      860.999
09/04/2013  21:25:00     -103.464      -46.581       12.735      136.977      117.899       65.854    18762.599    13900.078     4336.711        2.501        1.850      113.466       76.239        0.451      346.252       24.363      861.003
09/04/2013  21:26:00     -302.154      -65.406        2.711      164.188       99.651       73.941    26957.588     9930.281     5467.267        6.896        2.118      309.152       77.919        0.064      346.393       24.605      860.996
09/04/2013  21:27:00     -301.579      -39.532      -10.723      149.290      125.468       53.301    22287.573    15742.217     2840.947        6.674        2.044      304.159       63.915        0.044      346.370       24.565      861.009
09/04/2013  21:28:00     -209.196     -137.016       -6.490      131.522       97.883       64.135    17298.050     9581.094     4113.269        4.678        1.550      250.073       66.590        0.071      346.333       24.503      860.988
09/04/2013  21:29:00     -380.674      -79.637      -11.697      175.777      122.204       71.711    30897.692    14933.716     5142.516       10.117        2.549      388.915       82.073        0.045      346.347       24.525      861.001
09/04/2013  21:30:00     -364.084      -38.381      -20.329      149.708      109.574       71.967    22412.480    12006.552     5179.189        8.701        1.980      366.101       79.199        0.047      346.382       24.586      861.016
09/04/2013  21:31:00     -361.495       -8.185      -25.985      186.780      130.733       73.394    34886.675    17091.058     5386.702        9.438        2.868      361.587       85.769        0.056      346.346       24.524      861.027
09/04/2013  21:32:00     -411.768        6.275      -17.565      174.491      129.801       76.786    30447.025    16848.172     5896.138       11.154        2.660      411.816       87.927        0.046      346.316       24.472      861.034
09/04/2013  21:33:00     -313.415      -46.325      -19.040      176.084      121.061       61.730    31005.424    14655.870     3810.551        7.509        2.474      316.820       60.855        0.037      346.305       24.453      861.064
09/04/2013  21:34:00     -220.381      -42.000       -7.872      157.109      106.947       57.323    24683.362    11437.647     3285.948        4.489        1.970      224.347       64.846        0.084      346.260       24.378      861.093
09/04/2013  21:35:00     -313.079      -29.065       -3.277      204.560      119.492       82.290    41844.781    14278.421     6771.630        8.087        3.145      314.425       88.582        0.079      346.271       24.397      861.090
09/04/2013  21:36:00     -347.036      -96.922      -22.264      183.541      127.713       62.150    33687.266    16310.508     3862.647        9.208        2.693      360.316       51.833        0.021      346.322       24.483      861.092
09/04/2013  21:37:00     -338.221     -126.574        2.693      166.821      169.060       77.252    27829.367    28581.348     5967.844        9.639        3.119      361.129       91.139        0.064      346.300       24.445      861.053
09/04/2013  21:38:00     -367.450      -98.722       -9.565      170.540      113.178       62.093    29083.921    12809.208     3855.496        9.529        2.287      380.481       64.321        0.029      346.318       24.477      861.052
09/04/2013  21:39:00     -261.092      -37.067      -15.147      120.580      111.025       67.054    14539.515    12326.580     4496.252        5.056        1.568      263.710       51.197        0.038      346.291       24.430      861.068
09/04/2013  21:40:00     -251.622      -44.580      -12.342      138.160      102.187       50.546    19088.129    10442.101     2554.925        4.876        1.604      255.541       58.973        0.053      346.257       24.371      861.044
09/04/2013  21:41:00     -241.277      -61.851        5.939      136.728      112.329       57.250    18694.500    12617.772     3277.557        4.833        1.729      249.079       59.908        0.058      346.252       24.362      861.023
09/04/2013  21:42:00     -293.167       -8.082      -17.925      149.691       74.315       60.518    22407.301     5522.713     3662.428        5.896        1.580      293.278       78.758        0.072      346.232       24.328      861.030
09/04/2013  21:43:00     -194.855      -94.424      -11.324      101.458      103.340       46.491    10293.673    10679.209     2161.370        3.507        1.157      216.528       43.052        0.040      346.242       24.347      861.043
09/04/2013  21:44:00     -284.982      -57.200       -6.360      127.565      115.256       60.029    16272.879    13283.931     3603.477        5.884        1.658      290.666       75.474        0.067      346.266       24.385      861.057
09/04/2013  21:45:00     -280.944      -77.543      -16.901      144.231      118.141       60.498    20802.708    13957.367     3659.971        6.182        1.921      291.449       64.055        0.048      346.246       24.351      861.046
09/04/2013  21:46:00     -294.421      -19.785      -15.787      137.516      133.513       57.818    18910.521    17825.593     3342.901        6.369        2.004      295.085       59.393        0.041      346.253       24.364      861.040
09/04/2013  21:47:00     -229.373      -40.521      -16.218      144.679       89.782       58.545    20932.107     8060.871     3427.524        4.346        1.621      232.924       55.727        0.057      346.273       24.400      861.031
09/04/2013  21:48:00     -203.012      -52.102      -14.595      122.053       86.976       46.034    14896.937     7564.886     2119.157        3.436        1.229      209.592       50.462        0.058      346.233       24.331      861.027
09/04/2013  21:49:00     -412.246     -127.207      -10.072      155.193      111.262       58.364    24084.727    12379.216     3406.380       11.304        1.994      431.426       51.848        0.014      346.292       24.431      861.018
09/04/2013  21:50:00     -373.504      -49.286      -28.376      190.318      125.901       65.476    36221.126    15851.078     4287.050        9.954        2.818      376.741       70.711        0.035      346.204       24.278      860.996
09/04/2013  21:51:00     -303.039      -19.839       -5.325      200.609      134.199       59.156    40243.905    18009.281     3499.469        7.699        3.088      303.688       68.520        0.051      346.181       24.241      861.042
09/04/2013  21:52:00     -183.639        9.636       -7.939      138.478      121.266       61.443    19176.030    14705.429     3775.185        3.576        1.883      183.892       61.306        0.111      346.145       24.179      861.065
09/04/2013  21:53:00     -201.402      -91.983       -7.417      116.359      115.168       47.468    13539.498    13263.572     2253.203        3.906        1.453      221.412       48.656        0.048      346.155       24.197      861.110
09/04/2013  21:54:00     -195.083     -123.455       -1.391      126.961      113.646       75.785    16119.155    12915.466     5743.429        4.403        1.739      230.865       74.660        0.105      346.183       24.243      861.130
09/04/2013  21:55:00     -185.725       62.887        3.911      145.229      118.139       61.881    21091.383    13956.791     3829.300        3.866        1.944      196.083       68.853        0.123      346.137       24.166      861.115
09/04/2013  21:56:00     -307.568       11.655      -33.861      149.576       70.642       46.069    22373.065     4990.287     2122.376        6.268        1.474      307.789       56.887        0.034      346.201       24.273      861.116
09/04/2013  21:57:00     -232.898      -75.193       -9.175      109.129       72.010       42.973    11909.183     5185.434     1846.681        3.946        0.947      244.736       42.226        0.030      346.190       24.256      861.141
09/04/2013  21:58:00      -52.082      -90.620       22.285      142.439      104.842       46.074    20288.950    10991.824     2122.783        2.241        1.670      104.521       41.881        0.161      346.213       24.297      861.147
09/04/2013  21:59:00     -127.942      -25.645        6.209       96.429       88.721       49.836     9298.519     7871.414     2483.620        1.836        0.983      130.487       52.954        0.165      346.218       24.307      861.156
09/04/2013  22:00:00      -48.729      -35.145       10.516       43.118       47.696       17.351     1859.126     2274.885      301.065        0.408        0.222       60.080       17.056        0.081      346.171       24.225      861.173
09/04/2013  22:01:00        3.260      -60.576       31.536      107.527       74.829       60.141    11562.034     5599.374     3616.969        1.272        1.039       60.664       40.178        0.439      346.121       24.139      861.182
09/04/2013  22:02:00      -58.069       73.096      -10.180       55.586       84.275       60.325     3089.854     7102.291     3639.085        1.132        0.692       93.355       35.951        0.148      346.162       24.211      861.189
09/04/2013  22:03:00       15.511      -81.608      -19.934       84.142       41.609       30.669     7079.806     1731.335      940.579        0.852        0.488       83.069       28.438        0.117      346.124       24.145      861.183
09/04/2013  22:04:00       55.369      -22.487      -27.227       40.332       60.833       28.954     1626.702     3700.654      838.316        0.524        0.308       59.761       17.562        0.086      346.079       24.068      861.175
09/04/2013  22:05:00       11.233       32.255       -1.792       50.806       29.268       21.317     2581.257      856.632      454.406        0.253        0.195       34.155       15.449        0.205      346.178       24.239      861.219
09/04/2013  22:06:00       95.781       54.562       55.010       64.308       72.377       47.181     4135.460     5238.390     2226.033        1.339        0.580      110.231       47.161        0.183      346.067       24.048      861.254
09/04/2013  22:07:00       68.946       14.086       50.681       55.810       53.502       51.972     3114.725     2862.442     2701.117        0.810        0.434       70.370       43.084        0.375      345.762       23.526      861.263
09/04/2013  22:08:00       59.091       -9.885       17.395       40.710       54.223       37.066     1657.304     2940.099     1373.907        0.493        0.299       59.912       26.238        0.192      345.892       23.748      861.271
09/04/2013  22:09:00       53.272       25.423       45.589       52.921       57.548       51.588     2800.591     3311.730     2661.358        0.717        0.439       59.027       49.343        0.699      345.831       23.642      861.270
09/04/2013  22:10:00       65.796       78.093       67.727       74.708       64.181       50.075     5581.338     4119.183     2507.520        1.361        0.610      102.116       31.786        0.097      345.933       23.819      861.219
09/04/2013  22:11:00       84.180       37.516        0.870       91.528       78.055       50.839     8377.376     6092.524     2584.647        1.277        0.853       92.161       42.916        0.217      346.007       23.945      861.243
09/04/2013  22:12:00      134.895       22.554       23.772       61.676       43.418       34.982     3803.961     1885.147     1223.748        1.309        0.346      136.767       25.921        0.036      346.096       24.098      861.297
09/04/2013  22:13:00      163.441       74.183       25.696       63.436       54.802       44.988     4024.073     3003.277     2023.881        2.096        0.453      179.488       24.812        0.019      346.242       24.347      861.325
09/04/2013  22:14:00       26.626       16.246       32.446       59.378       32.930       36.653     3525.739     1084.391     1343.468        0.399        0.298       31.191       35.223        1.275      346.138       24.169      861.369
09/04/2013  22:15:00       11.052      -49.898       15.173       49.606       41.215       21.305     2460.708     1698.654      453.893        0.373        0.231       51.107       23.048        0.203      346.015       23.960      861.405
09/04/2013  22:16:00        6.817      -12.284       13.150       15.847       23.439       19.013      251.126      549.390      361.512        0.077        0.058       14.049       12.041        0.735      346.077       24.066      861.390
09/04/2013  22:17:00       12.193      -11.443        2.398       34.373       21.869       21.146     1181.486      478.234      447.166        0.120        0.105       16.721       26.783        2.566      346.264       24.387      861.381
09/04/2013  22:18:00       98.259       42.625       68.376       40.983       62.464       62.538     1679.622     3901.798     3910.958        1.282        0.475      107.107       53.367        0.248      345.975       23.890      861.349
09/04/2013  22:19:00       15.316      -19.319       43.908       57.926       86.368       46.886     3355.381     7459.423     2198.253        0.777        0.651       24.653       41.256        2.800      346.056       24.028      861.328
09/04/2013  22:20:00       24.059      -74.535       22.172       43.878       90.653       55.310     1925.285     8217.995     3059.249        0.991        0.660       78.322       66.162        0.714      346.030       23.984      861.344
09/04/2013  22:21:00       62.677     -126.776       -3.318       60.335       54.007       31.949     3640.293     2916.749     1020.751        1.379        0.379      141.423       19.367        0.019      346.246       24.354      861.360
09/04/2013  22:22:00       55.055     -126.029       -4.256       61.680       49.843       27.385     3804.371     2484.309      749.912        1.298        0.352      137.530       30.429        0.049      346.256       24.371      861.371
09/04/2013  22:23:00       30.332      -53.977       -6.474       25.824       46.667       14.236      666.897     2177.819      202.658        0.346        0.152       61.916       17.358        0.079      346.078       24.067      861.373
09/04/2013  22:24:00        5.791        4.380        5.746       12.448       15.002       15.997      154.964      225.052      255.896        0.036        0.032        7.261       11.699        2.596      345.852       23.679      861.358
09/04/2013  22:25:00      -45.184       13.017       -8.810        9.065       18.237        7.753       82.179      332.578       60.111        0.138        0.024       47.022        3.535        0.006      346.020       23.967      861.347
09/04/2013  22:26:00      -77.402        0.589      -13.977       29.443       16.296        8.853      866.895      265.557       78.372        0.370        0.061       77.404        9.646        0.016      346.096       24.096      861.344
09/04/2013  22:27:00      -91.947       52.729      -17.621       69.168       66.621       34.113     4784.277     4438.395     1163.688        1.096        0.519      105.993       26.044        0.060      346.295       24.439      861.335
09/04/2013  22:28:00       17.450       21.756       29.406       38.556       26.605       27.133     1486.558      707.806      736.191        0.229        0.147       27.889       24.644        0.781      346.282       24.417      861.341
09/04/2013  22:29:00       -6.379        7.942        4.968       26.285       20.743       16.752      690.880      430.263      280.616        0.076        0.070       10.186        6.811        0.447      346.347       24.528      861.354
09/04/2013  22:30:00       14.610      -12.245       13.321       33.103       21.849       19.819     1095.820      477.392      392.812        0.125        0.098       19.063       13.098        0.472      346.079       24.068      861.374
09/04/2013  22:31:00       37.897       16.463       34.747       31.046       22.103       16.278      963.838      488.561      264.962        0.232        0.086       41.318       15.886        0.148      345.529       23.125      861.389
09/04/2013  22:32:00       36.744       -2.550       17.496       33.734       22.702       21.673     1137.986      515.395      469.705        0.189        0.106       36.833       21.962        0.356      345.805       23.598      861.386
09/04/2013  22:33:00       51.377       30.024       34.960       33.227       19.705       26.577     1104.058      388.287      706.317        0.348        0.110       59.507       15.219        0.065      345.561       23.179      861.379
09/04/2013  22:34:00       54.205       10.633       24.391       22.010       23.438       23.554      484.445      549.334      554.794        0.262        0.079       55.238       13.997        0.064      345.667       23.362      861.378
09/04/2013  22:35:00       62.899        7.316       16.456       19.673       26.924       20.108      387.027      724.894      404.314        0.290        0.076       63.323       17.337        0.075      346.000       23.933      861.376
09/04/2013  22:36:00       31.869      -30.025        4.821       25.540       25.136       11.788      652.278      631.836      138.959        0.168        0.071       43.785       10.319        0.056      346.109       24.120      861.378
09/04/2013  22:37:00      -48.053      -16.856        1.494       38.857       36.585       16.256     1509.861     1338.438      264.251        0.285        0.156       50.924       12.111        0.057      346.060       24.036      861.380
09/04/2013  22:38:00     -110.089      -47.093       -9.460       38.914       28.613       16.177     1514.305      818.730      261.707        0.851        0.130      119.738       10.341        0.007      345.893       23.749      861.376
09/04/2013  22:39:00     -154.899      -68.528       -1.849       42.098       34.578       23.096     1772.231     1195.621      533.442        1.610        0.175      169.380       21.359        0.016      346.021       23.970      861.373
09/04/2013  22:40:00     -164.411      -35.410       -0.752       57.187       40.892       27.395     3270.365     1672.175      750.462        1.699        0.285      168.181       28.112        0.028      346.209       24.291      861.389
09/04/2013  22:41:00      -92.467       -1.986       -1.560       54.342       33.603       18.938     2953.065     1129.162      358.652        0.650        0.222       92.488       12.925        0.020      346.471       24.741      861.385
09/04/2013  22:42:00      -18.984      -23.338       16.160       48.261       24.345       21.115     2329.140      592.675      445.847        0.227        0.168       30.084       25.102        0.696      346.155       24.200      861.377
09/04/2013  22:43:00     -184.759      -47.286       -4.717       41.649       34.790       23.077     1734.666     1210.377      532.540        1.994        0.174      190.714       12.654        0.004      346.317       24.476      861.392
09/04/2013  22:44:00     -214.407     -112.120      -12.212       84.367       73.216       43.338     7117.790     5360.625     1878.155        3.652        0.718      241.953       40.881        0.029      346.356       24.540      861.407
09/04/2013  22:45:00      -56.397       17.577       15.383       47.664       48.294       25.558     2271.888     2332.271      653.189        0.449        0.263       59.073       20.773        0.124      346.187       24.254      861.420
09/04/2013  22:46:00        8.255       -2.661       26.781       38.896       23.182       20.838     1512.911      537.398      434.225        0.164        0.124        8.674       20.520        5.597      345.738       23.482      861.427
09/04/2013  22:47:00     -223.786      -61.391       -9.904      125.866       73.937       43.663    15842.237     5466.719     1906.478        3.858        1.161      232.054       45.152        0.038      346.273       24.400      861.439
09/04/2013  22:48:00     -314.391      -86.733      -19.438       78.568       66.182       40.029     6172.968     4380.006     1602.309        5.945        0.608      326.136       31.999        0.010      346.360       24.549      861.409
09/04/2013  22:49:00     -261.991      -45.113      -10.748      108.105       75.563       46.186    11686.629     5709.746     2133.152        4.516        0.976      265.847       49.435        0.035      346.256       24.368      861.392
09/04/2013  22:50:00     -261.941      -92.224       -4.441       95.017       85.962       45.310     9028.257     7389.518     2053.001        4.780        0.924      277.702       41.520        0.022      346.217       24.301      861.400
09/04/2013  22:51:00     -106.136       12.320        4.034       50.842       54.265       30.213     2584.883     2944.725      912.819        0.894        0.322      106.848       27.705        0.067      346.120       24.138      861.402
09/04/2013  22:52:00     -222.724       13.226      -12.165       74.336       52.426       35.445     5525.805     2748.538     1256.362        2.973        0.477      223.116       34.710        0.024      346.232       24.329      861.398
09/04/2013  22:53:00     -190.653      -15.406       -9.503       89.912       69.716       43.446     8084.118     4860.338     1887.586        2.575        0.742      191.274       40.178        0.044      346.187       24.253      861.389
09/04/2013  22:54:00     -189.589      -17.234      -13.390       63.246       54.935       35.135     4000.089     3017.834     1234.453        2.233        0.413      190.371       29.805        0.025      346.172       24.226      861.369
09/04/2013  22:55:00     -163.357       10.738      -11.748       73.774       74.577       36.170     5442.591     5561.686     1308.259        1.962        0.616      163.710       33.945        0.043      346.123       24.144      861.360
09/04/2013  22:56:00      -99.262        4.719        8.431       65.931       55.090       31.845     4346.840     3034.888     1014.105        0.917        0.420       99.374       32.462        0.107      346.052       24.021      861.358
09/04/2013  22:57:00      -69.179      -27.764        0.069      100.950       53.599       31.360    10190.930     2872.880      983.428        0.980        0.702       74.542       25.386        0.116      345.756       23.513      861.359
09/04/2013  22:58:00     -150.194      -41.505        7.008      116.614       40.995       31.440    13598.773     1680.584      988.499        2.030        0.813      155.824       45.432        0.085      345.977       23.890      861.370
09/04/2013  22:59:00     -203.648      -37.231      -13.138       91.437       50.643       39.272     8360.665     2564.761     1542.325        2.775        0.623      207.023       44.453        0.046      346.144       24.177      861.353
09/04/2013  23:00:00     -169.711      -51.634       -2.362      105.946       61.626       41.415    11224.503     3797.770     1715.174        2.410        0.837      177.392       57.198        0.104      346.110       24.119      861.365
09/04/2013  23:01:00      -82.290      -13.343       11.662       67.989       36.465       26.373     4622.507     1329.703      695.524        0.687        0.332       83.364       28.390        0.116      345.994       23.921      861.378
09/04/2013  23:02:00     -171.981       27.939      -11.343       82.170       61.004       45.768     6751.834     3721.490     2094.673        2.152        0.628      174.235       44.444        0.065      346.067       24.046      861.385
09/04/2013  23:03:00     -149.686      -33.620        0.202       80.640       51.823       36.625     6502.837     2685.653     1341.392        1.703        0.526      153.415       39.210        0.065      346.157       24.201      861.382
09/04/2013  23:04:00     -126.789        3.647      -10.180       46.794       38.258       26.025     2189.639     1463.651      677.294        1.026        0.217      126.842       17.934        0.020      346.148       24.188      861.381
09/04/2013  23:05:00      -74.098      -56.696        5.253       43.859       29.845       22.902     1923.653      890.706      524.499        0.604        0.167       93.301       22.444        0.058      346.079       24.070      861.386
09/04/2013  23:06:00      -11.946       -2.748       19.242       23.461       24.614       18.274      550.407      605.863      333.952        0.101        0.075       12.258       14.134        1.330      345.767       23.534      861.383
09/04/2013  23:07:00       25.268      -19.192       22.623       42.608       20.940       17.684     1815.452      438.482      312.735        0.204        0.128       31.730       15.394        0.235      345.191       22.546      861.394
09/04/2013  23:08:00       43.576      -14.366       21.133       32.770       19.320       23.614     1073.849      373.275      557.614        0.228        0.100       45.883       11.739        0.065      345.028       22.267      861.396
09/04/2013  23:09:00       66.873      -18.867        8.747       29.345       22.707       24.694      861.138      515.601      609.780        0.345        0.099       69.483       11.378        0.027      344.970       22.167      861.394
09/04/2013  23:10:00       31.113        5.772        7.044       33.336       19.838       33.822     1111.265      393.531     1143.959        0.185        0.132       31.644       28.985        0.839      345.091       22.374      861.398
09/04/2013  23:11:00       20.753       21.710       -2.435       32.149       21.356       25.617     1033.581      456.082      656.229        0.153        0.107       30.034       18.094        0.363      345.386       22.879      861.406
09/04/2013  23:12:00       22.645      -10.206       -0.506       30.004       32.987       22.457      900.246     1088.111      504.321        0.155        0.125       24.839       18.120        0.532      344.874       22.001      861.407
09/04/2013  23:13:00       25.974      -21.922       16.309       28.074       27.818       24.825      788.122      773.854      616.292        0.180        0.109       33.989       18.695        0.303      344.831       21.929      861.392
09/04/2013  23:14:00       52.196      -17.429        6.549       35.716       30.348       23.372     1275.621      921.004      546.257        0.291        0.137       55.029       14.633        0.071      344.939       22.114      861.386
09/04/2013  23:15:00       30.219       24.550       -3.895       18.255       24.421       18.341      333.244      596.372      336.395        0.140        0.063       38.935        7.694        0.039      345.171       22.512      861.359
09/04/2013  23:16:00       17.733        1.512        4.837       21.889       31.950       16.075      479.117     1020.830      258.418        0.105        0.088       17.798       12.186        0.469      345.230       22.611      861.334
09/04/2013  23:17:00       -2.327       -3.541        1.446       20.301       21.780       14.812      412.146      474.367      219.401        0.056        0.055        4.237       13.278        9.818      345.089       22.371      861.317
09/04/2013  23:18:00      -25.844      -10.187        8.040       15.788       16.714       19.410      249.272      279.364      376.765        0.087        0.045       27.780       10.990        0.157      344.998       22.215      861.317
09/04/2013  23:19:00       23.163      -35.052       -0.672       27.895       19.770       14.826      778.106      390.860      219.816        0.158        0.069       42.013       11.099        0.070      345.311       22.752      861.310
09/04/2013  23:20:00       28.767       -7.103       20.684       17.496       14.496       15.617      306.120      210.137      243.886        0.103        0.038       29.631       10.179        0.118      345.361       22.837      861.311
09/04/2013  23:21:00        7.244      -24.521        4.292       12.306       21.365       10.839      151.442      456.442      117.494        0.070        0.036       25.569       10.414        0.166      345.748       23.502      861.326
09/04/2013  23:22:00      -57.163      -11.666       -5.760       22.645       16.145       10.686      512.775      260.653      114.187        0.216        0.044       58.341       13.126        0.051      345.469       23.023      861.347
09/04/2013  23:23:00      -92.645      -20.717      -10.553        9.098        8.377        8.051       82.777       70.171       64.820        0.467        0.011       94.933        4.160        0.002      345.420       22.935      861.341
09/04/2013  23:24:00      -97.803      -29.444       -9.822       11.686       15.109        9.600      136.571      228.270       92.167        0.549        0.023      102.139        7.040        0.005      345.441       22.974      861.319
09/04/2013  23:25:00     -102.304       -7.071       -5.905       21.328       14.415       13.468      454.884      207.796      181.397        0.570        0.042      102.548       10.061        0.010      345.408       22.916      861.310
09/04/2013  23:26:00      -81.346      -22.300       -6.141       38.954       20.847       12.105     1517.401      434.613      146.536        0.462        0.105       84.348       10.368        0.015      345.431       22.956      861.309
09/04/2013  23:27:00      -28.825      -27.352        3.465       16.939       14.062        9.506      286.940      197.731       90.372        0.108        0.029       39.737        7.590        0.036      345.310       22.748      861.301
09/04/2013  23:28:00      -17.637      -30.875       -0.207       27.690       16.347       10.882      766.735      267.210      118.409        0.121        0.058       35.558        9.279        0.068      345.464       23.012      861.294
09/04/2013  23:29:00      -17.616      -38.990        0.672       33.590       20.235       13.424     1128.268      409.456      180.204        0.177        0.086       42.785       13.767        0.104      345.652       23.336      861.295
09/04/2013  23:30:00       -8.255       -8.857        4.372       16.780       12.402       12.566      281.555      153.819      157.909        0.038        0.030       12.107       11.790        0.948      345.580       23.213      861.298
09/04/2013  23:31:00      -31.785       -4.402       -5.960       30.139       27.149       10.017      908.331      737.069      100.340        0.141        0.087       32.088       14.008        0.191      345.648       23.330      861.297
09/04/2013  23:32:00      -63.612       42.997       -6.801       18.313       18.626       15.152      335.383      346.918      229.577        0.343        0.046       76.781        7.064        0.008      345.322       22.769      861.301
09/04/2013  23:33:00     -131.637       56.450      -11.440       53.782       27.290       26.886     2892.528      744.722      722.850        1.250        0.218      143.230       26.793        0.035      345.355       22.824      861.331
09/04/2013  23:34:00      -71.708       77.890      -11.462       31.017       26.557       20.319      962.071      705.281      412.863        0.671        0.104      105.872       18.633        0.031      345.405       22.911      861.334
09/04/2013  23:35:00       -1.151       56.144        1.325       19.730       21.407       13.157      389.283      458.247      173.116        0.209        0.051       56.156       14.062        0.063      345.358       22.831      861.322
09/04/2013  23:36:00       42.765       53.002        2.035       10.799       14.514        8.951      116.613      210.643       80.128        0.252        0.020       68.104        7.040        0.011      345.527       23.120      861.304
09/04/2013  23:37:00       51.141       45.238        2.607        9.319        8.984       10.234       86.848       80.721      104.725        0.247        0.014       68.278        5.938        0.008      345.539       23.141      861.311
09/04/2013  23:38:00       33.185       19.722       -2.687       17.302       17.069        3.938      299.343      291.367       15.511        0.105        0.030       38.603        3.085        0.006      345.455       22.997      861.319
09/04/2013  23:39:00      -19.145       21.953       -4.824       15.313       23.665        7.450      234.473      560.022       55.497        0.086        0.042       29.129        8.687        0.089      345.435       22.964      861.320
09/04/2013  23:40:00      -38.677        0.898       -8.430       16.086        8.384        5.564      258.763       70.284       30.958        0.096        0.018       38.687        4.677        0.015      345.213       22.581      861.317
09/04/2013  23:41:00      -30.008       -0.945       -5.699        8.632       13.722        6.243       74.516      188.300       38.969        0.062        0.015       30.023        6.633        0.049      345.190       22.544      861.313
09/04/2013  23:42:00      -29.345      -16.340       -5.629        8.502       10.462        5.646       72.280      109.447       31.875        0.069        0.011       33.587        3.067        0.008      345.237       22.623      861.310
09/04/2013  23:43:00      -50.948      -11.690       -9.276       25.987        7.687        8.901      675.312       59.091       79.236        0.182        0.041       52.272       11.828        0.051      345.227       22.604      861.302
09/04/2013  23:44:00      -63.965      -26.226       -9.538       15.060       13.759        9.321      226.808      189.312       86.880        0.269        0.025       69.133        8.295        0.014      345.135       22.449      861.306
09/04/2013  23:45:00      -89.431      -35.374       -6.704       11.590        7.872        8.682      134.337       61.973       75.382        0.478        0.014       96.173        4.260        0.002      345.111       22.407      861.320
09/04/2013  23:46:00      -94.496      -42.530      -12.571       11.530        8.383        6.742      132.944       70.275       45.458        0.557        0.012      103.626        5.188        0.003      345.152       22.478      861.325
09/04/2013  23:47:00      -99.496      -40.396      -15.254        6.894        8.317        7.248       47.531       69.168       52.537        0.597        0.008      107.384        2.656        0.001      345.101       22.393      861.338
09/04/2013  23:48:00     -115.674      -35.504      -12.951       11.911        9.260        7.971      141.883       85.745       63.533        0.755        0.015      120.999        7.048        0.003      345.083       22.363      861.356
09/04/2013  23:49:00     -125.719      -37.269      -16.261       10.221       13.826        7.461      104.469      191.170       55.672        0.890        0.018      131.127        4.020        0.001      345.023       22.258      861.368
09/04/2013  23:50:00     -142.552      -29.329      -16.052       18.793       20.227       16.508      353.188      409.143      272.525        1.124        0.052      145.537        8.640        0.004      344.846       21.954      861.367
09/04/2013  23:51:00     -102.837      -38.603       -3.695       37.262       23.606       15.369     1388.468      557.231      236.217        0.713        0.109      109.844       16.887        0.024      344.890       22.029      861.355
09/04/2013  23:52:00     -108.383      -34.340       -5.813       21.972       14.871       11.747      482.780      221.157      137.994        0.690        0.042      113.693       11.125        0.010      344.843       21.950      861.357
09/04/2013  23:53:00     -118.693      -13.000      -10.010       43.024       25.975       19.362     1851.047      674.702      374.888        0.863        0.145      119.402       19.282        0.026      344.778       21.839      861.359
09/04/2013  23:54:00      -47.504       18.881        1.083       38.627       22.696       18.968     1492.038      515.100      359.768        0.249        0.118       51.119       13.767        0.073      344.653       21.625      861.350
09/04/2013  23:55:00      -54.741       61.336        0.628       34.667       42.639       29.500     1201.777     1818.119      870.254        0.532        0.195       82.211       28.178        0.117      344.700       21.705      861.330
09/04/2013  23:56:00      -77.988       55.979       -7.855       35.099       54.872       19.585     1231.935     3010.931      383.566        0.695        0.231       95.998       17.640        0.034      344.698       21.700      861.309
09/04/2013  23:57:00      -95.067       24.262      -10.526       27.928       26.697       17.610      779.961      712.731      310.116        0.577        0.090       98.114       13.439        0.019      344.734       21.762      861.291
09/04/2013  23:58:00      -96.830        8.836      -13.848       20.710       22.011       11.346      428.889      484.498      128.731        0.534        0.052       97.233        5.636        0.003      344.829       21.924      861.291
09/04/2013  23:59:00      -73.911      -44.406      -17.100       15.772       17.115       13.873      248.765      292.911      192.448        0.423        0.037       86.225        2.879        0.001      344.821       21.911      861.301
